<?xml version="1.0" encoding="UTF-8" standalone="no" ?>
<gpx xmlns="http://www.topografix.com/GPX/1/1" xmlns:xsi="http://www.w3.org/2001/XMLSchema-instance" xsi:schemaLocation="http://www.topografix.com/GPX/1/1 http://www.topografix.com/GPX/1/1/gpx.xsd" version="1.1" creator="VisuGPX - https://www.visugpx.com">
  <metadata>
    <name>Maures Gravel 2019</name>
  </metadata>
  <trk>
    <name><![CDATA[9893845-La Maures Gravel 2019]]></name>
    <trkseg>
      <trkpt lat="43.32389" lon="6.294">
        <ele>154</ele>
        <time>2019-09-07T15:39:49Z</time>
      </trkpt>
      <trkpt lat="43.32447" lon="6.29485">
        <ele>151</ele>
        <time>2019-09-07T15:40:04Z</time>
      </trkpt>
      <trkpt lat="43.3249" lon="6.29578">
        <ele>149</ele>
        <time>2019-09-07T15:40:18Z</time>
      </trkpt>
      <trkpt lat="43.325" lon="6.29595">
        <ele>149</ele>
        <time>2019-09-07T15:40:21Z</time>
      </trkpt>
      <trkpt lat="43.32538" lon="6.29642">
        <ele>148</ele>
        <time>2019-09-07T15:40:30Z</time>
      </trkpt>
      <trkpt lat="43.32578" lon="6.29707">
        <ele>148</ele>
        <time>2019-09-07T15:40:41Z</time>
      </trkpt>
      <trkpt lat="43.32593" lon="6.29727">
        <ele>148</ele>
        <time>2019-09-07T15:40:45Z</time>
      </trkpt>
      <trkpt lat="43.32647" lon="6.29791">
        <ele>147</ele>
        <time>2019-09-07T15:40:58Z</time>
      </trkpt>
      <trkpt lat="43.3267" lon="6.29833">
        <ele>147</ele>
        <time>2019-09-07T15:41:05Z</time>
      </trkpt>
      <trkpt lat="43.32662" lon="6.29916">
        <ele>146</ele>
        <time>2019-09-07T15:41:15Z</time>
      </trkpt>
      <trkpt lat="43.32661" lon="6.30031">
        <ele>142</ele>
        <time>2019-09-07T15:41:30Z</time>
      </trkpt>
      <trkpt lat="43.32676" lon="6.3015">
        <ele>140</ele>
        <time>2019-09-07T15:41:46Z</time>
      </trkpt>
      <trkpt lat="43.32688" lon="6.3019">
        <ele>140</ele>
        <time>2019-09-07T15:41:51Z</time>
      </trkpt>
      <trkpt lat="43.32701" lon="6.30253">
        <ele>139</ele>
        <time>2019-09-07T15:42:00Z</time>
      </trkpt>
      <trkpt lat="43.32713" lon="6.3029">
        <ele>138</ele>
        <time>2019-09-07T15:42:05Z</time>
      </trkpt>
      <trkpt lat="43.3271" lon="6.30301">
        <ele>138</ele>
        <time>2019-09-07T15:42:07Z</time>
      </trkpt>
      <trkpt lat="43.32691" lon="6.30329">
        <ele>138</ele>
        <time>2019-09-07T15:42:12Z</time>
      </trkpt>
      <trkpt lat="43.3269" lon="6.3035">
        <ele>138</ele>
        <time>2019-09-07T15:42:14Z</time>
      </trkpt>
      <trkpt lat="43.32697" lon="6.30366">
        <ele>138</ele>
        <time>2019-09-07T15:42:17Z</time>
      </trkpt>
      <trkpt lat="43.32703" lon="6.3037">
        <ele>138</ele>
        <time>2019-09-07T15:42:18Z</time>
      </trkpt>
      <trkpt lat="43.32725" lon="6.30377">
        <ele>138</ele>
        <time>2019-09-07T15:42:22Z</time>
      </trkpt>
      <trkpt lat="43.32737" lon="6.30399">
        <ele>138</ele>
        <time>2019-09-07T15:42:26Z</time>
      </trkpt>
      <trkpt lat="43.32738" lon="6.30409">
        <ele>138</ele>
        <time>2019-09-07T15:42:27Z</time>
      </trkpt>
      <trkpt lat="43.32733" lon="6.30435">
        <ele>138</ele>
        <time>2019-09-07T15:42:30Z</time>
      </trkpt>
      <trkpt lat="43.32712" lon="6.3046">
        <ele>137</ele>
        <time>2019-09-07T15:42:35Z</time>
      </trkpt>
      <trkpt lat="43.32705" lon="6.30473">
        <ele>137</ele>
        <time>2019-09-07T15:42:37Z</time>
      </trkpt>
      <trkpt lat="43.32703" lon="6.30479">
        <ele>137</ele>
        <time>2019-09-07T15:42:38Z</time>
      </trkpt>
      <trkpt lat="43.32706" lon="6.30493">
        <ele>137</ele>
        <time>2019-09-07T15:42:40Z</time>
      </trkpt>
      <trkpt lat="43.32777" lon="6.30591">
        <ele>135</ele>
        <time>2019-09-07T15:42:58Z</time>
      </trkpt>
      <trkpt lat="43.32792" lon="6.30624">
        <ele>134</ele>
        <time>2019-09-07T15:43:03Z</time>
      </trkpt>
      <trkpt lat="43.32807" lon="6.30645">
        <ele>134</ele>
        <time>2019-09-07T15:43:07Z</time>
      </trkpt>
      <trkpt lat="43.32935" lon="6.30864">
        <ele>132</ele>
        <time>2019-09-07T15:43:43Z</time>
      </trkpt>
      <trkpt lat="43.32951" lon="6.30895">
        <ele>132</ele>
        <time>2019-09-07T15:43:48Z</time>
      </trkpt>
      <trkpt lat="43.32962" lon="6.30952">
        <ele>132</ele>
        <time>2019-09-07T15:43:56Z</time>
      </trkpt>
      <trkpt lat="43.32968" lon="6.30955">
        <ele>132</ele>
        <time>2019-09-07T15:43:57Z</time>
      </trkpt>
      <trkpt lat="43.32975" lon="6.30954">
        <ele>132</ele>
        <time>2019-09-07T15:43:58Z</time>
      </trkpt>
      <trkpt lat="43.32986" lon="6.30979">
        <ele>132</ele>
        <time>2019-09-07T15:44:02Z</time>
      </trkpt>
      <trkpt lat="43.32999" lon="6.30999">
        <ele>131</ele>
        <time>2019-09-07T15:44:05Z</time>
      </trkpt>
      <trkpt lat="43.33025" lon="6.31031">
        <ele>131</ele>
        <time>2019-09-07T15:44:12Z</time>
      </trkpt>
      <trkpt lat="43.3303" lon="6.31044">
        <ele>130</ele>
        <time>2019-09-07T15:44:14Z</time>
      </trkpt>
      <trkpt lat="43.33035" lon="6.31067">
        <ele>130</ele>
        <time>2019-09-07T15:44:17Z</time>
      </trkpt>
      <trkpt lat="43.33038" lon="6.31107">
        <ele>129</ele>
        <time>2019-09-07T15:44:22Z</time>
      </trkpt>
      <trkpt lat="43.33038" lon="6.31215">
        <ele>128</ele>
        <time>2019-09-07T15:44:36Z</time>
      </trkpt>
      <trkpt lat="43.33035" lon="6.31252">
        <ele>128</ele>
        <time>2019-09-07T15:44:41Z</time>
      </trkpt>
      <trkpt lat="43.33022" lon="6.31315">
        <ele>127</ele>
        <time>2019-09-07T15:44:49Z</time>
      </trkpt>
      <trkpt lat="43.33012" lon="6.31345">
        <ele>127</ele>
        <time>2019-09-07T15:44:53Z</time>
      </trkpt>
      <trkpt lat="43.33008" lon="6.31371">
        <ele>127</ele>
        <time>2019-09-07T15:44:57Z</time>
      </trkpt>
      <trkpt lat="43.33005" lon="6.31421">
        <ele>128</ele>
        <time>2019-09-07T15:45:03Z</time>
      </trkpt>
      <trkpt lat="43.32996" lon="6.31463">
        <ele>126</ele>
        <time>2019-09-07T15:45:09Z</time>
      </trkpt>
      <trkpt lat="43.32994" lon="6.31488">
        <ele>125</ele>
        <time>2019-09-07T15:45:12Z</time>
      </trkpt>
      <trkpt lat="43.32996" lon="6.3157">
        <ele>124</ele>
        <time>2019-09-07T15:45:23Z</time>
      </trkpt>
      <trkpt lat="43.33002" lon="6.3161">
        <ele>124</ele>
        <time>2019-09-07T15:45:28Z</time>
      </trkpt>
      <trkpt lat="43.3303" lon="6.31715">
        <ele>123</ele>
        <time>2019-09-07T15:45:43Z</time>
      </trkpt>
      <trkpt lat="43.33045" lon="6.31759">
        <ele>123</ele>
        <time>2019-09-07T15:45:49Z</time>
      </trkpt>
      <trkpt lat="43.3307" lon="6.31817">
        <ele>122</ele>
        <time>2019-09-07T15:45:58Z</time>
      </trkpt>
      <trkpt lat="43.33084" lon="6.31874">
        <ele>122</ele>
        <time>2019-09-07T15:46:05Z</time>
      </trkpt>
      <trkpt lat="43.33107" lon="6.31939">
        <ele>121</ele>
        <time>2019-09-07T15:46:15Z</time>
      </trkpt>
      <trkpt lat="43.33108" lon="6.31984">
        <ele>120</ele>
        <time>2019-09-07T15:46:21Z</time>
      </trkpt>
      <trkpt lat="43.33114" lon="6.32023">
        <ele>119</ele>
        <time>2019-09-07T15:46:26Z</time>
      </trkpt>
      <trkpt lat="43.33133" lon="6.32054">
        <ele>119</ele>
        <time>2019-09-07T15:46:31Z</time>
      </trkpt>
      <trkpt lat="43.33142" lon="6.32063">
        <ele>118</ele>
        <time>2019-09-07T15:46:33Z</time>
      </trkpt>
      <trkpt lat="43.33153" lon="6.3208">
        <ele>118</ele>
        <time>2019-09-07T15:46:36Z</time>
      </trkpt>
      <trkpt lat="43.3316" lon="6.321">
        <ele>118</ele>
        <time>2019-09-07T15:46:39Z</time>
      </trkpt>
      <trkpt lat="43.33169" lon="6.32143">
        <ele>118</ele>
        <time>2019-09-07T15:46:45Z</time>
      </trkpt>
      <trkpt lat="43.33178" lon="6.32237">
        <ele>117</ele>
        <time>2019-09-07T15:46:57Z</time>
      </trkpt>
      <trkpt lat="43.33192" lon="6.32322">
        <ele>116</ele>
        <time>2019-09-07T15:47:08Z</time>
      </trkpt>
      <trkpt lat="43.33223" lon="6.32398">
        <ele>115</ele>
        <time>2019-09-07T15:47:19Z</time>
      </trkpt>
      <trkpt lat="43.33249" lon="6.32449">
        <ele>115</ele>
        <time>2019-09-07T15:47:27Z</time>
      </trkpt>
      <trkpt lat="43.33253" lon="6.32487">
        <ele>114</ele>
        <time>2019-09-07T15:47:32Z</time>
      </trkpt>
      <trkpt lat="43.33285" lon="6.32577">
        <ele>114</ele>
        <time>2019-09-07T15:47:45Z</time>
      </trkpt>
      <trkpt lat="43.33305" lon="6.32663">
        <ele>114</ele>
        <time>2019-09-07T15:47:57Z</time>
      </trkpt>
      <trkpt lat="43.33344" lon="6.32757">
        <ele>113</ele>
        <time>2019-09-07T15:48:11Z</time>
      </trkpt>
      <trkpt lat="43.33364" lon="6.32875">
        <ele>112</ele>
        <time>2019-09-07T15:48:27Z</time>
      </trkpt>
      <trkpt lat="43.33379" lon="6.32925">
        <ele>112</ele>
        <time>2019-09-07T15:48:34Z</time>
      </trkpt>
      <trkpt lat="43.33382" lon="6.32964">
        <ele>111</ele>
        <time>2019-09-07T15:48:39Z</time>
      </trkpt>
      <trkpt lat="43.33382" lon="6.33025">
        <ele>111</ele>
        <time>2019-09-07T15:48:47Z</time>
      </trkpt>
      <trkpt lat="43.33395" lon="6.33077">
        <ele>110</ele>
        <time>2019-09-07T15:48:54Z</time>
      </trkpt>
      <trkpt lat="43.33396" lon="6.33124">
        <ele>110</ele>
        <time>2019-09-07T15:49:00Z</time>
      </trkpt>
      <trkpt lat="43.334" lon="6.33151">
        <ele>110</ele>
        <time>2019-09-07T15:49:04Z</time>
      </trkpt>
      <trkpt lat="43.3344" lon="6.33319">
        <ele>109</ele>
        <time>2019-09-07T15:49:26Z</time>
      </trkpt>
      <trkpt lat="43.33474" lon="6.33381">
        <ele>109</ele>
        <time>2019-09-07T15:49:36Z</time>
      </trkpt>
      <trkpt lat="43.33489" lon="6.33453">
        <ele>110</ele>
        <time>2019-09-07T15:49:46Z</time>
      </trkpt>
      <trkpt lat="43.33493" lon="6.33506">
        <ele>111</ele>
        <time>2019-09-07T15:49:53Z</time>
      </trkpt>
      <trkpt lat="43.33504" lon="6.33565">
        <ele>110</ele>
        <time>2019-09-07T15:50:01Z</time>
      </trkpt>
      <trkpt lat="43.33512" lon="6.33591">
        <ele>110</ele>
        <time>2019-09-07T15:50:05Z</time>
      </trkpt>
      <trkpt lat="43.33517" lon="6.33647">
        <ele>109</ele>
        <time>2019-09-07T15:50:12Z</time>
      </trkpt>
      <trkpt lat="43.33519" lon="6.33721">
        <ele>108</ele>
        <time>2019-09-07T15:50:21Z</time>
      </trkpt>
      <trkpt lat="43.33524" lon="6.33747">
        <ele>108</ele>
        <time>2019-09-07T15:50:25Z</time>
      </trkpt>
      <trkpt lat="43.33534" lon="6.33781">
        <ele>107</ele>
        <time>2019-09-07T15:50:30Z</time>
      </trkpt>
      <trkpt lat="43.33563" lon="6.33855">
        <ele>106</ele>
        <time>2019-09-07T15:50:41Z</time>
      </trkpt>
      <trkpt lat="43.33619" lon="6.33974">
        <ele>103</ele>
        <time>2019-09-07T15:50:59Z</time>
      </trkpt>
      <trkpt lat="43.33652" lon="6.34069">
        <ele>100</ele>
        <time>2019-09-07T15:51:13Z</time>
      </trkpt>
      <trkpt lat="43.33667" lon="6.34097">
        <ele>99</ele>
        <time>2019-09-07T15:51:17Z</time>
      </trkpt>
      <trkpt lat="43.337" lon="6.34136">
        <ele>99</ele>
        <time>2019-09-07T15:51:25Z</time>
      </trkpt>
      <trkpt lat="43.33714" lon="6.34158">
        <ele>99</ele>
        <time>2019-09-07T15:51:29Z</time>
      </trkpt>
      <trkpt lat="43.33731" lon="6.34194">
        <ele>99</ele>
        <time>2019-09-07T15:51:34Z</time>
      </trkpt>
      <trkpt lat="43.33751" lon="6.34227">
        <ele>98</ele>
        <time>2019-09-07T15:51:40Z</time>
      </trkpt>
      <trkpt lat="43.33774" lon="6.34272">
        <ele>99</ele>
        <time>2019-09-07T15:51:47Z</time>
      </trkpt>
      <trkpt lat="43.3378" lon="6.34288">
        <ele>99</ele>
        <time>2019-09-07T15:51:49Z</time>
      </trkpt>
      <trkpt lat="43.33803" lon="6.34377">
        <ele>99</ele>
        <time>2019-09-07T15:52:01Z</time>
      </trkpt>
      <trkpt lat="43.33807" lon="6.34386">
        <ele>99</ele>
        <time>2019-09-07T15:52:03Z</time>
      </trkpt>
      <trkpt lat="43.33859" lon="6.34451">
        <ele>99</ele>
        <time>2019-09-07T15:52:15Z</time>
      </trkpt>
      <trkpt lat="43.33865" lon="6.34492">
        <ele>99</ele>
        <time>2019-09-07T15:52:21Z</time>
      </trkpt>
      <trkpt lat="43.33872" lon="6.34511">
        <ele>99</ele>
        <time>2019-09-07T15:52:23Z</time>
      </trkpt>
      <trkpt lat="43.33889" lon="6.3454">
        <ele>99</ele>
        <time>2019-09-07T15:52:28Z</time>
      </trkpt>
      <trkpt lat="43.33908" lon="6.34565">
        <ele>100</ele>
        <time>2019-09-07T15:52:33Z</time>
      </trkpt>
      <trkpt lat="43.33924" lon="6.34607">
        <ele>99</ele>
        <time>2019-09-07T15:52:39Z</time>
      </trkpt>
      <trkpt lat="43.3393" lon="6.34638">
        <ele>99</ele>
        <time>2019-09-07T15:52:43Z</time>
      </trkpt>
      <trkpt lat="43.33836" lon="6.34706">
        <ele>98</ele>
        <time>2019-09-07T15:53:02Z</time>
      </trkpt>
      <trkpt lat="43.3383" lon="6.34708">
        <ele>97</ele>
        <time>2019-09-07T15:53:03Z</time>
      </trkpt>
      <trkpt lat="43.33817" lon="6.34707">
        <ele>97</ele>
        <time>2019-09-07T15:53:05Z</time>
      </trkpt>
      <trkpt lat="43.338" lon="6.34702">
        <ele>97</ele>
        <time>2019-09-07T15:53:09Z</time>
      </trkpt>
      <trkpt lat="43.338" lon="6.34712">
        <ele>97</ele>
        <time>2019-09-07T15:53:10Z</time>
      </trkpt>
      <trkpt lat="43.33829" lon="6.34742">
        <ele>97</ele>
        <time>2019-09-07T15:53:16Z</time>
      </trkpt>
      <trkpt lat="43.33863" lon="6.34798">
        <ele>95</ele>
        <time>2019-09-07T15:53:26Z</time>
      </trkpt>
      <trkpt lat="43.3388" lon="6.34838">
        <ele>95</ele>
        <time>2019-09-07T15:53:32Z</time>
      </trkpt>
      <trkpt lat="43.3389" lon="6.3487">
        <ele>95</ele>
        <time>2019-09-07T15:53:36Z</time>
      </trkpt>
      <trkpt lat="43.33895" lon="6.34899">
        <ele>94</ele>
        <time>2019-09-07T15:53:40Z</time>
      </trkpt>
      <trkpt lat="43.33895" lon="6.34916">
        <ele>94</ele>
        <time>2019-09-07T15:53:42Z</time>
      </trkpt>
      <trkpt lat="43.3391" lon="6.34986">
        <ele>93</ele>
        <time>2019-09-07T15:53:52Z</time>
      </trkpt>
      <trkpt lat="43.33959" lon="6.3517">
        <ele>92</ele>
        <time>2019-09-07T15:54:17Z</time>
      </trkpt>
      <trkpt lat="43.33946" lon="6.35183">
        <ele>92</ele>
        <time>2019-09-07T15:54:20Z</time>
      </trkpt>
      <trkpt lat="43.33932" lon="6.3519">
        <ele>92</ele>
        <time>2019-09-07T15:54:23Z</time>
      </trkpt>
      <trkpt lat="43.33924" lon="6.35201">
        <ele>92</ele>
        <time>2019-09-07T15:54:25Z</time>
      </trkpt>
      <trkpt lat="43.33911" lon="6.35207">
        <ele>92</ele>
        <time>2019-09-07T15:54:27Z</time>
      </trkpt>
      <trkpt lat="43.33902" lon="6.35215">
        <ele>92</ele>
        <time>2019-09-07T15:54:29Z</time>
      </trkpt>
      <trkpt lat="43.33898" lon="6.35223">
        <ele>92</ele>
        <time>2019-09-07T15:54:30Z</time>
      </trkpt>
      <trkpt lat="43.33911" lon="6.35268">
        <ele>91</ele>
        <time>2019-09-07T15:54:37Z</time>
      </trkpt>
      <trkpt lat="43.33912" lon="6.3528">
        <ele>92</ele>
        <time>2019-09-07T15:54:38Z</time>
      </trkpt>
      <trkpt lat="43.33909" lon="6.35307">
        <ele>92</ele>
        <time>2019-09-07T15:54:42Z</time>
      </trkpt>
      <trkpt lat="43.33928" lon="6.35365">
        <ele>93</ele>
        <time>2019-09-07T15:54:50Z</time>
      </trkpt>
      <trkpt lat="43.33938" lon="6.35388">
        <ele>94</ele>
        <time>2019-09-07T15:54:53Z</time>
      </trkpt>
      <trkpt lat="43.33938" lon="6.35393">
        <ele>94</ele>
        <time>2019-09-07T15:54:54Z</time>
      </trkpt>
      <trkpt lat="43.33926" lon="6.35418">
        <ele>96</ele>
        <time>2019-09-07T15:54:58Z</time>
      </trkpt>
      <trkpt lat="43.33927" lon="6.35454">
        <ele>96</ele>
        <time>2019-09-07T15:55:03Z</time>
      </trkpt>
      <trkpt lat="43.33922" lon="6.35486">
        <ele>96</ele>
        <time>2019-09-07T15:55:07Z</time>
      </trkpt>
      <trkpt lat="43.33924" lon="6.35517">
        <ele>96</ele>
        <time>2019-09-07T15:55:11Z</time>
      </trkpt>
      <trkpt lat="43.33937" lon="6.35592">
        <ele>97</ele>
        <time>2019-09-07T15:55:21Z</time>
      </trkpt>
      <trkpt lat="43.33941" lon="6.35645">
        <ele>96</ele>
        <time>2019-09-07T15:55:28Z</time>
      </trkpt>
      <trkpt lat="43.33939" lon="6.35672">
        <ele>95</ele>
        <time>2019-09-07T15:55:31Z</time>
      </trkpt>
      <trkpt lat="43.3393" lon="6.3569">
        <ele>95</ele>
        <time>2019-09-07T15:55:34Z</time>
      </trkpt>
      <trkpt lat="43.33921" lon="6.35699">
        <ele>95</ele>
        <time>2019-09-07T15:55:36Z</time>
      </trkpt>
      <trkpt lat="43.3391" lon="6.35717">
        <ele>95</ele>
        <time>2019-09-07T15:55:39Z</time>
      </trkpt>
      <trkpt lat="43.33908" lon="6.35726">
        <ele>94</ele>
        <time>2019-09-07T15:55:40Z</time>
      </trkpt>
      <trkpt lat="43.33893" lon="6.35754">
        <ele>93</ele>
        <time>2019-09-07T15:55:45Z</time>
      </trkpt>
      <trkpt lat="43.33879" lon="6.35801">
        <ele>94</ele>
        <time>2019-09-07T15:55:51Z</time>
      </trkpt>
      <trkpt lat="43.33896" lon="6.35846">
        <ele>95</ele>
        <time>2019-09-07T15:55:58Z</time>
      </trkpt>
      <trkpt lat="43.33912" lon="6.35873">
        <ele>97</ele>
        <time>2019-09-07T15:56:02Z</time>
      </trkpt>
      <trkpt lat="43.33956" lon="6.35935">
        <ele>101</ele>
        <time>2019-09-07T15:56:14Z</time>
      </trkpt>
      <trkpt lat="43.33954" lon="6.35961">
        <ele>101</ele>
        <time>2019-09-07T15:56:17Z</time>
      </trkpt>
      <trkpt lat="43.33958" lon="6.35966">
        <ele>101</ele>
        <time>2019-09-07T15:56:18Z</time>
      </trkpt>
      <trkpt lat="43.33954" lon="6.35961">
        <ele>101</ele>
        <time>2019-09-07T15:56:19Z</time>
      </trkpt>
      <trkpt lat="43.33931" lon="6.35989">
        <ele>103</ele>
        <time>2019-09-07T15:56:24Z</time>
      </trkpt>
      <trkpt lat="43.33919" lon="6.36008">
        <ele>104</ele>
        <time>2019-09-07T15:56:28Z</time>
      </trkpt>
      <trkpt lat="43.33891" lon="6.36067">
        <ele>105</ele>
        <time>2019-09-07T15:56:37Z</time>
      </trkpt>
      <trkpt lat="43.33874" lon="6.36093">
        <ele>106</ele>
        <time>2019-09-07T15:56:41Z</time>
      </trkpt>
      <trkpt lat="43.33864" lon="6.36106">
        <ele>106</ele>
        <time>2019-09-07T15:56:44Z</time>
      </trkpt>
      <trkpt lat="43.33847" lon="6.36119">
        <ele>108</ele>
        <time>2019-09-07T15:56:47Z</time>
      </trkpt>
      <trkpt lat="43.33818" lon="6.36162">
        <ele>110</ele>
        <time>2019-09-07T15:56:55Z</time>
      </trkpt>
      <trkpt lat="43.3381" lon="6.36169">
        <ele>111</ele>
        <time>2019-09-07T15:56:56Z</time>
      </trkpt>
      <trkpt lat="43.33765" lon="6.36181">
        <ele>113</ele>
        <time>2019-09-07T15:57:05Z</time>
      </trkpt>
      <trkpt lat="43.33756" lon="6.36181">
        <ele>113</ele>
        <time>2019-09-07T15:57:06Z</time>
      </trkpt>
      <trkpt lat="43.3373" lon="6.36167">
        <ele>114</ele>
        <time>2019-09-07T15:57:11Z</time>
      </trkpt>
      <trkpt lat="43.33666" lon="6.36157">
        <ele>115</ele>
        <time>2019-09-07T15:57:23Z</time>
      </trkpt>
      <trkpt lat="43.33658" lon="6.3616">
        <ele>116</ele>
        <time>2019-09-07T15:57:24Z</time>
      </trkpt>
      <trkpt lat="43.33653" lon="6.36166">
        <ele>116</ele>
        <time>2019-09-07T15:57:25Z</time>
      </trkpt>
      <trkpt lat="43.33645" lon="6.36187">
        <ele>116</ele>
        <time>2019-09-07T15:57:28Z</time>
      </trkpt>
      <trkpt lat="43.33633" lon="6.36199">
        <ele>116</ele>
        <time>2019-09-07T15:57:31Z</time>
      </trkpt>
      <trkpt lat="43.33597" lon="6.36216">
        <ele>117</ele>
        <time>2019-09-07T15:57:38Z</time>
      </trkpt>
      <trkpt lat="43.33569" lon="6.36219">
        <ele>117</ele>
        <time>2019-09-07T15:57:43Z</time>
      </trkpt>
      <trkpt lat="43.33517" lon="6.36213">
        <ele>117</ele>
        <time>2019-09-07T15:57:52Z</time>
      </trkpt>
      <trkpt lat="43.33488" lon="6.36198">
        <ele>117</ele>
        <time>2019-09-07T15:57:58Z</time>
      </trkpt>
      <trkpt lat="43.33475" lon="6.36195">
        <ele>117</ele>
        <time>2019-09-07T15:58:00Z</time>
      </trkpt>
      <trkpt lat="43.33464" lon="6.36197">
        <ele>116</ele>
        <time>2019-09-07T15:58:02Z</time>
      </trkpt>
      <trkpt lat="43.33378" lon="6.36259">
        <ele>116</ele>
        <time>2019-09-07T15:58:19Z</time>
      </trkpt>
      <trkpt lat="43.33366" lon="6.36264">
        <ele>116</ele>
        <time>2019-09-07T15:58:21Z</time>
      </trkpt>
      <trkpt lat="43.33328" lon="6.3627">
        <ele>117</ele>
        <time>2019-09-07T15:58:28Z</time>
      </trkpt>
      <trkpt lat="43.3329" lon="6.3628">
        <ele>117</ele>
        <time>2019-09-07T15:58:35Z</time>
      </trkpt>
      <trkpt lat="43.33259" lon="6.36305">
        <ele>119</ele>
        <time>2019-09-07T15:58:41Z</time>
      </trkpt>
      <trkpt lat="43.33222" lon="6.3632">
        <ele>120</ele>
        <time>2019-09-07T15:58:48Z</time>
      </trkpt>
      <trkpt lat="43.33172" lon="6.36327">
        <ele>122</ele>
        <time>2019-09-07T15:58:57Z</time>
      </trkpt>
      <trkpt lat="43.33144" lon="6.36325">
        <ele>122</ele>
        <time>2019-09-07T15:59:02Z</time>
      </trkpt>
      <trkpt lat="43.33116" lon="6.3633">
        <ele>123</ele>
        <time>2019-09-07T15:59:07Z</time>
      </trkpt>
      <trkpt lat="43.33103" lon="6.36337">
        <ele>124</ele>
        <time>2019-09-07T15:59:10Z</time>
      </trkpt>
      <trkpt lat="43.33061" lon="6.36388">
        <ele>125</ele>
        <time>2019-09-07T15:59:20Z</time>
      </trkpt>
      <trkpt lat="43.32979" lon="6.36537">
        <ele>129</ele>
        <time>2019-09-07T15:59:44Z</time>
      </trkpt>
      <trkpt lat="43.3296" lon="6.36577">
        <ele>129</ele>
        <time>2019-09-07T15:59:50Z</time>
      </trkpt>
      <trkpt lat="43.32949" lon="6.3659">
        <ele>129</ele>
        <time>2019-09-07T15:59:53Z</time>
      </trkpt>
      <trkpt lat="43.32947" lon="6.36596">
        <ele>129</ele>
        <time>2019-09-07T15:59:54Z</time>
      </trkpt>
      <trkpt lat="43.32995" lon="6.36609">
        <ele>127</ele>
        <time>2019-09-07T16:00:02Z</time>
      </trkpt>
      <trkpt lat="43.33031" lon="6.36595">
        <ele>126</ele>
        <time>2019-09-07T16:00:09Z</time>
      </trkpt>
      <trkpt lat="43.33036" lon="6.36595">
        <ele>126</ele>
        <time>2019-09-07T16:00:10Z</time>
      </trkpt>
      <trkpt lat="43.33078" lon="6.36609">
        <ele>125</ele>
        <time>2019-09-07T16:00:17Z</time>
      </trkpt>
      <trkpt lat="43.33101" lon="6.36614">
        <ele>124</ele>
        <time>2019-09-07T16:00:22Z</time>
      </trkpt>
      <trkpt lat="43.33202" lon="6.36625">
        <ele>121</ele>
        <time>2019-09-07T16:00:40Z</time>
      </trkpt>
      <trkpt lat="43.33223" lon="6.36634">
        <ele>121</ele>
        <time>2019-09-07T16:00:44Z</time>
      </trkpt>
      <trkpt lat="43.33243" lon="6.36652">
        <ele>121</ele>
        <time>2019-09-07T16:00:48Z</time>
      </trkpt>
      <trkpt lat="43.33303" lon="6.36696">
        <ele>120</ele>
        <time>2019-09-07T16:01:00Z</time>
      </trkpt>
      <trkpt lat="43.3337" lon="6.36711">
        <ele>120</ele>
        <time>2019-09-07T16:01:12Z</time>
      </trkpt>
      <trkpt lat="43.3342" lon="6.36713">
        <ele>119</ele>
        <time>2019-09-07T16:01:21Z</time>
      </trkpt>
      <trkpt lat="43.33479" lon="6.36721">
        <ele>117</ele>
        <time>2019-09-07T16:01:31Z</time>
      </trkpt>
      <trkpt lat="43.33504" lon="6.36713">
        <ele>117</ele>
        <time>2019-09-07T16:01:36Z</time>
      </trkpt>
      <trkpt lat="43.33534" lon="6.36709">
        <ele>116</ele>
        <time>2019-09-07T16:01:41Z</time>
      </trkpt>
      <trkpt lat="43.33557" lon="6.3672">
        <ele>115</ele>
        <time>2019-09-07T16:01:46Z</time>
      </trkpt>
      <trkpt lat="43.33603" lon="6.36777">
        <ele>112</ele>
        <time>2019-09-07T16:01:57Z</time>
      </trkpt>
      <trkpt lat="43.33628" lon="6.36801">
        <ele>111</ele>
        <time>2019-09-07T16:02:02Z</time>
      </trkpt>
      <trkpt lat="43.33652" lon="6.36817">
        <ele>111</ele>
        <time>2019-09-07T16:02:07Z</time>
      </trkpt>
      <trkpt lat="43.3366" lon="6.36828">
        <ele>111</ele>
        <time>2019-09-07T16:02:09Z</time>
      </trkpt>
      <trkpt lat="43.33673" lon="6.36861">
        <ele>109</ele>
        <time>2019-09-07T16:02:14Z</time>
      </trkpt>
      <trkpt lat="43.33681" lon="6.3687">
        <ele>109</ele>
        <time>2019-09-07T16:02:16Z</time>
      </trkpt>
      <trkpt lat="43.33694" lon="6.36881">
        <ele>108</ele>
        <time>2019-09-07T16:02:18Z</time>
      </trkpt>
      <trkpt lat="43.33709" lon="6.36886">
        <ele>107</ele>
        <time>2019-09-07T16:02:21Z</time>
      </trkpt>
      <trkpt lat="43.33757" lon="6.36936">
        <ele>105</ele>
        <time>2019-09-07T16:02:32Z</time>
      </trkpt>
      <trkpt lat="43.33793" lon="6.36978">
        <ele>102</ele>
        <time>2019-09-07T16:02:40Z</time>
      </trkpt>
      <trkpt lat="43.33814" lon="6.37047">
        <ele>99</ele>
        <time>2019-09-07T16:02:50Z</time>
      </trkpt>
      <trkpt lat="43.3382" lon="6.37072">
        <ele>98</ele>
        <time>2019-09-07T16:02:53Z</time>
      </trkpt>
      <trkpt lat="43.33825" lon="6.37109">
        <ele>96</ele>
        <time>2019-09-07T16:02:58Z</time>
      </trkpt>
      <trkpt lat="43.33824" lon="6.3712">
        <ele>96</ele>
        <time>2019-09-07T16:03:00Z</time>
      </trkpt>
      <trkpt lat="43.33814" lon="6.37142">
        <ele>96</ele>
        <time>2019-09-07T16:03:03Z</time>
      </trkpt>
      <trkpt lat="43.33806" lon="6.37172">
        <ele>95</ele>
        <time>2019-09-07T16:03:07Z</time>
      </trkpt>
      <trkpt lat="43.33799" lon="6.37184">
        <ele>95</ele>
        <time>2019-09-07T16:03:09Z</time>
      </trkpt>
      <trkpt lat="43.33835" lon="6.37216">
        <ele>97</ele>
        <time>2019-09-07T16:03:17Z</time>
      </trkpt>
      <trkpt lat="43.33836" lon="6.37231">
        <ele>97</ele>
        <time>2019-09-07T16:03:19Z</time>
      </trkpt>
      <trkpt lat="43.33828" lon="6.37252">
        <ele>98</ele>
        <time>2019-09-07T16:03:22Z</time>
      </trkpt>
      <trkpt lat="43.33835" lon="6.37251">
        <ele>98</ele>
        <time>2019-09-07T16:03:23Z</time>
      </trkpt>
      <trkpt lat="43.33835" lon="6.37254">
        <ele>98</ele>
        <time>2019-09-07T16:03:23Z</time>
      </trkpt>
      <trkpt lat="43.33835" lon="6.37251">
        <ele>98</ele>
        <time>2019-09-07T16:03:24Z</time>
      </trkpt>
      <trkpt lat="43.3388" lon="6.37241">
        <ele>96</ele>
        <time>2019-09-07T16:03:32Z</time>
      </trkpt>
      <trkpt lat="43.33936" lon="6.37224">
        <ele>94</ele>
        <time>2019-09-07T16:03:42Z</time>
      </trkpt>
      <trkpt lat="43.33975" lon="6.37221">
        <ele>94</ele>
        <time>2019-09-07T16:03:49Z</time>
      </trkpt>
      <trkpt lat="43.34014" lon="6.37227">
        <ele>93</ele>
        <time>2019-09-07T16:03:56Z</time>
      </trkpt>
      <trkpt lat="43.34033" lon="6.37234">
        <ele>93</ele>
        <time>2019-09-07T16:03:59Z</time>
      </trkpt>
      <trkpt lat="43.34063" lon="6.37263">
        <ele>92</ele>
        <time>2019-09-07T16:04:06Z</time>
      </trkpt>
      <trkpt lat="43.34078" lon="6.37271">
        <ele>91</ele>
        <time>2019-09-07T16:04:09Z</time>
      </trkpt>
      <trkpt lat="43.34096" lon="6.37274">
        <ele>91</ele>
        <time>2019-09-07T16:04:12Z</time>
      </trkpt>
      <trkpt lat="43.34118" lon="6.3727">
        <ele>91</ele>
        <time>2019-09-07T16:04:16Z</time>
      </trkpt>
      <trkpt lat="43.34138" lon="6.3726">
        <ele>90</ele>
        <time>2019-09-07T16:04:20Z</time>
      </trkpt>
      <trkpt lat="43.34154" lon="6.37258">
        <ele>90</ele>
        <time>2019-09-07T16:04:23Z</time>
      </trkpt>
      <trkpt lat="43.34304" lon="6.37308">
        <ele>90</ele>
        <time>2019-09-07T16:04:50Z</time>
      </trkpt>
      <trkpt lat="43.34373" lon="6.37326">
        <ele>88</ele>
        <time>2019-09-07T16:05:03Z</time>
      </trkpt>
      <trkpt lat="43.34385" lon="6.37331">
        <ele>88</ele>
        <time>2019-09-07T16:05:05Z</time>
      </trkpt>
      <trkpt lat="43.34392" lon="6.37339">
        <ele>88</ele>
        <time>2019-09-07T16:05:07Z</time>
      </trkpt>
      <trkpt lat="43.34398" lon="6.37357">
        <ele>88</ele>
        <time>2019-09-07T16:05:09Z</time>
      </trkpt>
      <trkpt lat="43.34407" lon="6.37416">
        <ele>90</ele>
        <time>2019-09-07T16:05:17Z</time>
      </trkpt>
      <trkpt lat="43.34447" lon="6.37438">
        <ele>90</ele>
        <time>2019-09-07T16:05:25Z</time>
      </trkpt>
      <trkpt lat="43.34469" lon="6.37453">
        <ele>90</ele>
        <time>2019-09-07T16:05:29Z</time>
      </trkpt>
      <trkpt lat="43.34531" lon="6.37477">
        <ele>90</ele>
        <time>2019-09-07T16:05:40Z</time>
      </trkpt>
      <trkpt lat="43.34631" lon="6.37536">
        <ele>90</ele>
        <time>2019-09-07T16:06:00Z</time>
      </trkpt>
      <trkpt lat="43.34644" lon="6.37527">
        <ele>89</ele>
        <time>2019-09-07T16:06:02Z</time>
      </trkpt>
      <trkpt lat="43.34671" lon="6.37537">
        <ele>88</ele>
        <time>2019-09-07T16:06:07Z</time>
      </trkpt>
      <trkpt lat="43.34771" lon="6.37601">
        <ele>85</ele>
        <time>2019-09-07T16:06:27Z</time>
      </trkpt>
      <trkpt lat="43.34804" lon="6.37626">
        <ele>84</ele>
        <time>2019-09-07T16:06:34Z</time>
      </trkpt>
      <trkpt lat="43.34894" lon="6.37704">
        <ele>85</ele>
        <time>2019-09-07T16:06:53Z</time>
      </trkpt>
      <trkpt lat="43.34939" lon="6.3773">
        <ele>86</ele>
        <time>2019-09-07T16:07:01Z</time>
      </trkpt>
      <trkpt lat="43.34961" lon="6.37735">
        <ele>87</ele>
        <time>2019-09-07T16:07:05Z</time>
      </trkpt>
      <trkpt lat="43.34998" lon="6.37734">
        <ele>87</ele>
        <time>2019-09-07T16:07:12Z</time>
      </trkpt>
      <trkpt lat="43.35028" lon="6.37725">
        <ele>86</ele>
        <time>2019-09-07T16:07:17Z</time>
      </trkpt>
      <trkpt lat="43.35093" lon="6.37699">
        <ele>83</ele>
        <time>2019-09-07T16:07:29Z</time>
      </trkpt>
      <trkpt lat="43.35153" lon="6.37664">
        <ele>80</ele>
        <time>2019-09-07T16:07:41Z</time>
      </trkpt>
      <trkpt lat="43.3518" lon="6.37652">
        <ele>80</ele>
        <time>2019-09-07T16:07:46Z</time>
      </trkpt>
      <trkpt lat="43.35209" lon="6.37647">
        <ele>79</ele>
        <time>2019-09-07T16:07:51Z</time>
      </trkpt>
      <trkpt lat="43.35265" lon="6.37655">
        <ele>79</ele>
        <time>2019-09-07T16:08:01Z</time>
      </trkpt>
      <trkpt lat="43.35273" lon="6.37658">
        <ele>79</ele>
        <time>2019-09-07T16:08:03Z</time>
      </trkpt>
      <trkpt lat="43.35288" lon="6.37673">
        <ele>79</ele>
        <time>2019-09-07T16:08:06Z</time>
      </trkpt>
      <trkpt lat="43.35299" lon="6.3769">
        <ele>79</ele>
        <time>2019-09-07T16:08:09Z</time>
      </trkpt>
      <trkpt lat="43.35302" lon="6.37686">
        <ele>79</ele>
        <time>2019-09-07T16:08:10Z</time>
      </trkpt>
      <trkpt lat="43.35299" lon="6.3769">
        <ele>79</ele>
        <time>2019-09-07T16:08:10Z</time>
      </trkpt>
      <trkpt lat="43.35305" lon="6.37705">
        <ele>80</ele>
        <time>2019-09-07T16:08:13Z</time>
      </trkpt>
      <trkpt lat="43.35314" lon="6.37812">
        <ele>83</ele>
        <time>2019-09-07T16:08:27Z</time>
      </trkpt>
      <trkpt lat="43.3533" lon="6.3788">
        <ele>82</ele>
        <time>2019-09-07T16:08:36Z</time>
      </trkpt>
      <trkpt lat="43.3534" lon="6.3794">
        <ele>80</ele>
        <time>2019-09-07T16:08:44Z</time>
      </trkpt>
      <trkpt lat="43.35352" lon="6.37956">
        <ele>80</ele>
        <time>2019-09-07T16:08:47Z</time>
      </trkpt>
      <trkpt lat="43.35355" lon="6.37965">
        <ele>79</ele>
        <time>2019-09-07T16:08:48Z</time>
      </trkpt>
      <trkpt lat="43.35355" lon="6.37984">
        <ele>79</ele>
        <time>2019-09-07T16:08:50Z</time>
      </trkpt>
      <trkpt lat="43.35379" lon="6.38199">
        <ele>78</ele>
        <time>2019-09-07T16:09:19Z</time>
      </trkpt>
      <trkpt lat="43.35327" lon="6.38219">
        <ele>79</ele>
        <time>2019-09-07T16:09:28Z</time>
      </trkpt>
      <trkpt lat="43.35322" lon="6.38228">
        <ele>79</ele>
        <time>2019-09-07T16:09:30Z</time>
      </trkpt>
      <trkpt lat="43.35325" lon="6.38253">
        <ele>79</ele>
        <time>2019-09-07T16:09:33Z</time>
      </trkpt>
      <trkpt lat="43.35328" lon="6.38262">
        <ele>79</ele>
        <time>2019-09-07T16:09:34Z</time>
      </trkpt>
      <trkpt lat="43.35358" lon="6.38282">
        <ele>78</ele>
        <time>2019-09-07T16:09:40Z</time>
      </trkpt>
      <trkpt lat="43.35364" lon="6.3829">
        <ele>78</ele>
        <time>2019-09-07T16:09:42Z</time>
      </trkpt>
      <trkpt lat="43.35381" lon="6.38329">
        <ele>78</ele>
        <time>2019-09-07T16:09:48Z</time>
      </trkpt>
      <trkpt lat="43.35441" lon="6.38383">
        <ele>78</ele>
        <time>2019-09-07T16:10:00Z</time>
      </trkpt>
      <trkpt lat="43.3553" lon="6.38527">
        <ele>79</ele>
        <time>2019-09-07T16:10:25Z</time>
      </trkpt>
      <trkpt lat="43.35537" lon="6.38546">
        <ele>78</ele>
        <time>2019-09-07T16:10:27Z</time>
      </trkpt>
      <trkpt lat="43.35559" lon="6.3865">
        <ele>76</ele>
        <time>2019-09-07T16:10:41Z</time>
      </trkpt>
      <trkpt lat="43.3557" lon="6.38718">
        <ele>76</ele>
        <time>2019-09-07T16:10:50Z</time>
      </trkpt>
      <trkpt lat="43.35574" lon="6.38729">
        <ele>76</ele>
        <time>2019-09-07T16:10:52Z</time>
      </trkpt>
      <trkpt lat="43.35598" lon="6.38763">
        <ele>76</ele>
        <time>2019-09-07T16:10:58Z</time>
      </trkpt>
      <trkpt lat="43.35602" lon="6.38774">
        <ele>76</ele>
        <time>2019-09-07T16:11:00Z</time>
      </trkpt>
      <trkpt lat="43.35602" lon="6.38816">
        <ele>77</ele>
        <time>2019-09-07T16:11:05Z</time>
      </trkpt>
      <trkpt lat="43.35595" lon="6.38853">
        <ele>78</ele>
        <time>2019-09-07T16:11:10Z</time>
      </trkpt>
      <trkpt lat="43.35599" lon="6.38894">
        <ele>79</ele>
        <time>2019-09-07T16:11:16Z</time>
      </trkpt>
      <trkpt lat="43.35614" lon="6.38982">
        <ele>78</ele>
        <time>2019-09-07T16:11:27Z</time>
      </trkpt>
      <trkpt lat="43.35616" lon="6.39006">
        <ele>78</ele>
        <time>2019-09-07T16:11:30Z</time>
      </trkpt>
      <trkpt lat="43.35615" lon="6.39075">
        <ele>79</ele>
        <time>2019-09-07T16:11:39Z</time>
      </trkpt>
      <trkpt lat="43.35617" lon="6.3909">
        <ele>78</ele>
        <time>2019-09-07T16:11:41Z</time>
      </trkpt>
      <trkpt lat="43.35622" lon="6.39102">
        <ele>78</ele>
        <time>2019-09-07T16:11:43Z</time>
      </trkpt>
      <trkpt lat="43.35626" lon="6.39136">
        <ele>77</ele>
        <time>2019-09-07T16:11:48Z</time>
      </trkpt>
      <trkpt lat="43.35639" lon="6.39199">
        <ele>75</ele>
        <time>2019-09-07T16:11:56Z</time>
      </trkpt>
      <trkpt lat="43.3564" lon="6.39287">
        <ele>73</ele>
        <time>2019-09-07T16:12:07Z</time>
      </trkpt>
      <trkpt lat="43.35644" lon="6.39294">
        <ele>73</ele>
        <time>2019-09-07T16:12:09Z</time>
      </trkpt>
      <trkpt lat="43.35666" lon="6.39315">
        <ele>72</ele>
        <time>2019-09-07T16:12:13Z</time>
      </trkpt>
      <trkpt lat="43.35705" lon="6.39363">
        <ele>70</ele>
        <time>2019-09-07T16:12:23Z</time>
      </trkpt>
      <trkpt lat="43.3574" lon="6.39387">
        <ele>70</ele>
        <time>2019-09-07T16:12:30Z</time>
      </trkpt>
      <trkpt lat="43.35763" lon="6.3942">
        <ele>70</ele>
        <time>2019-09-07T16:12:35Z</time>
      </trkpt>
      <trkpt lat="43.35768" lon="6.39439">
        <ele>70</ele>
        <time>2019-09-07T16:12:38Z</time>
      </trkpt>
      <trkpt lat="43.35773" lon="6.39445">
        <ele>70</ele>
        <time>2019-09-07T16:12:39Z</time>
      </trkpt>
      <trkpt lat="43.35832" lon="6.39657">
        <ele>69</ele>
        <time>2019-09-07T16:13:09Z</time>
      </trkpt>
      <trkpt lat="43.35848" lon="6.39725">
        <ele>71</ele>
        <time>2019-09-07T16:13:18Z</time>
      </trkpt>
      <trkpt lat="43.35876" lon="6.3987">
        <ele>75</ele>
        <time>2019-09-07T16:13:37Z</time>
      </trkpt>
      <trkpt lat="43.35892" lon="6.39996">
        <ele>80</ele>
        <time>2019-09-07T16:13:54Z</time>
      </trkpt>
      <trkpt lat="43.35883" lon="6.40066">
        <ele>83</ele>
        <time>2019-09-07T16:14:03Z</time>
      </trkpt>
      <trkpt lat="43.35875" lon="6.40104">
        <ele>83</ele>
        <time>2019-09-07T16:14:08Z</time>
      </trkpt>
      <trkpt lat="43.35843" lon="6.40227">
        <ele>84</ele>
        <time>2019-09-07T16:14:25Z</time>
      </trkpt>
      <trkpt lat="43.35807" lon="6.40211">
        <ele>86</ele>
        <time>2019-09-07T16:14:32Z</time>
      </trkpt>
      <trkpt lat="43.35766" lon="6.40188">
        <ele>88</ele>
        <time>2019-09-07T16:14:40Z</time>
      </trkpt>
      <trkpt lat="43.35746" lon="6.4018">
        <ele>89</ele>
        <time>2019-09-07T16:14:43Z</time>
      </trkpt>
      <trkpt lat="43.35734" lon="6.40181">
        <ele>89</ele>
        <time>2019-09-07T16:14:45Z</time>
      </trkpt>
      <trkpt lat="43.35718" lon="6.40194">
        <ele>88</ele>
        <time>2019-09-07T16:14:49Z</time>
      </trkpt>
      <trkpt lat="43.35692" lon="6.40226">
        <ele>88</ele>
        <time>2019-09-07T16:14:55Z</time>
      </trkpt>
      <trkpt lat="43.35666" lon="6.40265">
        <ele>88</ele>
        <time>2019-09-07T16:15:02Z</time>
      </trkpt>
      <trkpt lat="43.35626" lon="6.40346">
        <ele>87</ele>
        <time>2019-09-07T16:15:15Z</time>
      </trkpt>
      <trkpt lat="43.35609" lon="6.40376">
        <ele>87</ele>
        <time>2019-09-07T16:15:19Z</time>
      </trkpt>
      <trkpt lat="43.35598" lon="6.4039">
        <ele>87</ele>
        <time>2019-09-07T16:15:22Z</time>
      </trkpt>
      <trkpt lat="43.35536" lon="6.40415">
        <ele>87</ele>
        <time>2019-09-07T16:15:34Z</time>
      </trkpt>
      <trkpt lat="43.35327" lon="6.40463">
        <ele>90</ele>
        <time>2019-09-07T16:16:11Z</time>
      </trkpt>
      <trkpt lat="43.35168" lon="6.40496">
        <ele>94</ele>
        <time>2019-09-07T16:16:40Z</time>
      </trkpt>
      <trkpt lat="43.35018" lon="6.40501">
        <ele>92</ele>
        <time>2019-09-07T16:17:07Z</time>
      </trkpt>
      <trkpt lat="43.34935" lon="6.40513">
        <ele>94</ele>
        <time>2019-09-07T16:17:21Z</time>
      </trkpt>
      <trkpt lat="43.34859" lon="6.40515">
        <ele>95</ele>
        <time>2019-09-07T16:17:35Z</time>
      </trkpt>
      <trkpt lat="43.34737" lon="6.4053">
        <ele>95</ele>
        <time>2019-09-07T16:17:57Z</time>
      </trkpt>
      <trkpt lat="43.34564" lon="6.40558">
        <ele>98</ele>
        <time>2019-09-07T16:18:28Z</time>
      </trkpt>
      <trkpt lat="43.34541" lon="6.40557">
        <ele>99</ele>
        <time>2019-09-07T16:18:32Z</time>
      </trkpt>
      <trkpt lat="43.34481" lon="6.4054">
        <ele>101</ele>
        <time>2019-09-07T16:18:43Z</time>
      </trkpt>
      <trkpt lat="43.34446" lon="6.4054">
        <ele>100</ele>
        <time>2019-09-07T16:18:49Z</time>
      </trkpt>
      <trkpt lat="43.34458" lon="6.39911">
        <ele>97</ele>
        <time>2019-09-07T16:20:10Z</time>
      </trkpt>
      <trkpt lat="43.34461" lon="6.39897">
        <ele>97</ele>
        <time>2019-09-07T16:20:12Z</time>
      </trkpt>
      <trkpt lat="43.34496" lon="6.39846">
        <ele>98</ele>
        <time>2019-09-07T16:20:21Z</time>
      </trkpt>
      <trkpt lat="43.34504" lon="6.39829">
        <ele>98</ele>
        <time>2019-09-07T16:20:24Z</time>
      </trkpt>
      <trkpt lat="43.34509" lon="6.39816">
        <ele>98</ele>
        <time>2019-09-07T16:20:26Z</time>
      </trkpt>
      <trkpt lat="43.34514" lon="6.39782">
        <ele>98</ele>
        <time>2019-09-07T16:20:30Z</time>
      </trkpt>
      <trkpt lat="43.34521" lon="6.39757">
        <ele>98</ele>
        <time>2019-09-07T16:20:34Z</time>
      </trkpt>
      <trkpt lat="43.3453" lon="6.39733">
        <ele>98</ele>
        <time>2019-09-07T16:20:37Z</time>
      </trkpt>
      <trkpt lat="43.34567" lon="6.3966">
        <ele>96</ele>
        <time>2019-09-07T16:20:49Z</time>
      </trkpt>
      <trkpt lat="43.34605" lon="6.3954">
        <ele>96</ele>
        <time>2019-09-07T16:21:06Z</time>
      </trkpt>
      <trkpt lat="43.34608" lon="6.39515">
        <ele>95</ele>
        <time>2019-09-07T16:21:09Z</time>
      </trkpt>
      <trkpt lat="43.34591" lon="6.39425">
        <ele>91</ele>
        <time>2019-09-07T16:21:21Z</time>
      </trkpt>
      <trkpt lat="43.34591" lon="6.39401">
        <ele>90</ele>
        <time>2019-09-07T16:21:24Z</time>
      </trkpt>
      <trkpt lat="43.34593" lon="6.39377">
        <ele>89</ele>
        <time>2019-09-07T16:21:27Z</time>
      </trkpt>
      <trkpt lat="43.34609" lon="6.39339">
        <ele>88</ele>
        <time>2019-09-07T16:21:33Z</time>
      </trkpt>
      <trkpt lat="43.34612" lon="6.39312">
        <ele>87</ele>
        <time>2019-09-07T16:21:37Z</time>
      </trkpt>
      <trkpt lat="43.34608" lon="6.39296">
        <ele>86</ele>
        <time>2019-09-07T16:21:39Z</time>
      </trkpt>
      <trkpt lat="43.34605" lon="6.39263">
        <ele>85</ele>
        <time>2019-09-07T16:21:43Z</time>
      </trkpt>
      <trkpt lat="43.34608" lon="6.39208">
        <ele>85</ele>
        <time>2019-09-07T16:21:50Z</time>
      </trkpt>
      <trkpt lat="43.34601" lon="6.39168">
        <ele>85</ele>
        <time>2019-09-07T16:21:56Z</time>
      </trkpt>
      <trkpt lat="43.34597" lon="6.39102">
        <ele>85</ele>
        <time>2019-09-07T16:22:04Z</time>
      </trkpt>
      <trkpt lat="43.34586" lon="6.39065">
        <ele>86</ele>
        <time>2019-09-07T16:22:09Z</time>
      </trkpt>
      <trkpt lat="43.34563" lon="6.39023">
        <ele>87</ele>
        <time>2019-09-07T16:22:16Z</time>
      </trkpt>
      <trkpt lat="43.3452" lon="6.3896">
        <ele>89</ele>
        <time>2019-09-07T16:22:27Z</time>
      </trkpt>
      <trkpt lat="43.34486" lon="6.38892">
        <ele>92</ele>
        <time>2019-09-07T16:22:38Z</time>
      </trkpt>
      <trkpt lat="43.34483" lon="6.38846">
        <ele>92</ele>
        <time>2019-09-07T16:22:44Z</time>
      </trkpt>
      <trkpt lat="43.34479" lon="6.38826">
        <ele>91</ele>
        <time>2019-09-07T16:22:47Z</time>
      </trkpt>
      <trkpt lat="43.34478" lon="6.38772">
        <ele>89</ele>
        <time>2019-09-07T16:22:54Z</time>
      </trkpt>
      <trkpt lat="43.34459" lon="6.38685">
        <ele>88</ele>
        <time>2019-09-07T16:23:05Z</time>
      </trkpt>
      <trkpt lat="43.34454" lon="6.38648">
        <ele>88</ele>
        <time>2019-09-07T16:23:10Z</time>
      </trkpt>
      <trkpt lat="43.34438" lon="6.38567">
        <ele>89</ele>
        <time>2019-09-07T16:23:21Z</time>
      </trkpt>
      <trkpt lat="43.34434" lon="6.38532">
        <ele>88</ele>
        <time>2019-09-07T16:23:26Z</time>
      </trkpt>
      <trkpt lat="43.34435" lon="6.38517">
        <ele>88</ele>
        <time>2019-09-07T16:23:28Z</time>
      </trkpt>
      <trkpt lat="43.34445" lon="6.38485">
        <ele>88</ele>
        <time>2019-09-07T16:23:32Z</time>
      </trkpt>
      <trkpt lat="43.34447" lon="6.38464">
        <ele>87</ele>
        <time>2019-09-07T16:23:35Z</time>
      </trkpt>
      <trkpt lat="43.34431" lon="6.38363">
        <ele>86</ele>
        <time>2019-09-07T16:23:48Z</time>
      </trkpt>
      <trkpt lat="43.34429" lon="6.3833">
        <ele>86</ele>
        <time>2019-09-07T16:23:52Z</time>
      </trkpt>
      <trkpt lat="43.34423" lon="6.38305">
        <ele>87</ele>
        <time>2019-09-07T16:23:56Z</time>
      </trkpt>
      <trkpt lat="43.34422" lon="6.38284">
        <ele>88</ele>
        <time>2019-09-07T16:23:59Z</time>
      </trkpt>
      <trkpt lat="43.34432" lon="6.38248">
        <ele>89</ele>
        <time>2019-09-07T16:24:04Z</time>
      </trkpt>
      <trkpt lat="43.34448" lon="6.38204">
        <ele>91</ele>
        <time>2019-09-07T16:24:10Z</time>
      </trkpt>
      <trkpt lat="43.3445" lon="6.38189">
        <ele>91</ele>
        <time>2019-09-07T16:24:12Z</time>
      </trkpt>
      <trkpt lat="43.34449" lon="6.38169">
        <ele>92</ele>
        <time>2019-09-07T16:24:15Z</time>
      </trkpt>
      <trkpt lat="43.34385" lon="6.38086">
        <ele>93</ele>
        <time>2019-09-07T16:24:30Z</time>
      </trkpt>
      <trkpt lat="43.3435" lon="6.38061">
        <ele>95</ele>
        <time>2019-09-07T16:24:37Z</time>
      </trkpt>
      <trkpt lat="43.34337" lon="6.38049">
        <ele>96</ele>
        <time>2019-09-07T16:24:40Z</time>
      </trkpt>
      <trkpt lat="43.34316" lon="6.38017">
        <ele>98</ele>
        <time>2019-09-07T16:24:46Z</time>
      </trkpt>
      <trkpt lat="43.3428" lon="6.38">
        <ele>100</ele>
        <time>2019-09-07T16:24:52Z</time>
      </trkpt>
      <trkpt lat="43.342" lon="6.3798">
        <ele>100</ele>
        <time>2019-09-07T16:25:07Z</time>
      </trkpt>
      <trkpt lat="43.34191" lon="6.37975">
        <ele>100</ele>
        <time>2019-09-07T16:25:09Z</time>
      </trkpt>
      <trkpt lat="43.34177" lon="6.37957">
        <ele>101</ele>
        <time>2019-09-07T16:25:12Z</time>
      </trkpt>
      <trkpt lat="43.34131" lon="6.37886">
        <ele>103</ele>
        <time>2019-09-07T16:25:24Z</time>
      </trkpt>
      <trkpt lat="43.341" lon="6.37854">
        <ele>104</ele>
        <time>2019-09-07T16:25:31Z</time>
      </trkpt>
      <trkpt lat="43.33999" lon="6.37774">
        <ele>106</ele>
        <time>2019-09-07T16:25:52Z</time>
      </trkpt>
      <trkpt lat="43.33978" lon="6.37754">
        <ele>106</ele>
        <time>2019-09-07T16:25:56Z</time>
      </trkpt>
      <trkpt lat="43.33963" lon="6.37739">
        <ele>106</ele>
        <time>2019-09-07T16:26:00Z</time>
      </trkpt>
      <trkpt lat="43.33929" lon="6.37686">
        <ele>103</ele>
        <time>2019-09-07T16:26:09Z</time>
      </trkpt>
      <trkpt lat="43.3392" lon="6.3768">
        <ele>103</ele>
        <time>2019-09-07T16:26:11Z</time>
      </trkpt>
      <trkpt lat="43.33913" lon="6.37678">
        <ele>103</ele>
        <time>2019-09-07T16:26:12Z</time>
      </trkpt>
      <trkpt lat="43.33905" lon="6.37679">
        <ele>102</ele>
        <time>2019-09-07T16:26:13Z</time>
      </trkpt>
      <trkpt lat="43.33881" lon="6.37694">
        <ele>102</ele>
        <time>2019-09-07T16:26:18Z</time>
      </trkpt>
      <trkpt lat="43.33833" lon="6.37733">
        <ele>102</ele>
        <time>2019-09-07T16:26:28Z</time>
      </trkpt>
      <trkpt lat="43.33799" lon="6.37771">
        <ele>103</ele>
        <time>2019-09-07T16:26:36Z</time>
      </trkpt>
      <trkpt lat="43.33787" lon="6.37777">
        <ele>103</ele>
        <time>2019-09-07T16:26:38Z</time>
      </trkpt>
      <trkpt lat="43.3378" lon="6.37774">
        <ele>102</ele>
        <time>2019-09-07T16:26:39Z</time>
      </trkpt>
      <trkpt lat="43.33774" lon="6.37766">
        <ele>102</ele>
        <time>2019-09-07T16:26:41Z</time>
      </trkpt>
      <trkpt lat="43.3377" lon="6.37755">
        <ele>101</ele>
        <time>2019-09-07T16:26:42Z</time>
      </trkpt>
      <trkpt lat="43.33736" lon="6.37627">
        <ele>98</ele>
        <time>2019-09-07T16:27:00Z</time>
      </trkpt>
      <trkpt lat="43.33729" lon="6.37591">
        <ele>98</ele>
        <time>2019-09-07T16:27:05Z</time>
      </trkpt>
      <trkpt lat="43.33723" lon="6.3758">
        <ele>99</ele>
        <time>2019-09-07T16:27:07Z</time>
      </trkpt>
      <trkpt lat="43.33707" lon="6.37569">
        <ele>100</ele>
        <time>2019-09-07T16:27:10Z</time>
      </trkpt>
      <trkpt lat="43.33693" lon="6.37573">
        <ele>100</ele>
        <time>2019-09-07T16:27:12Z</time>
      </trkpt>
      <trkpt lat="43.33689" lon="6.37582">
        <ele>101</ele>
        <time>2019-09-07T16:27:14Z</time>
      </trkpt>
      <trkpt lat="43.33683" lon="6.37617">
        <ele>101</ele>
        <time>2019-09-07T16:27:18Z</time>
      </trkpt>
      <trkpt lat="43.33672" lon="6.37645">
        <ele>102</ele>
        <time>2019-09-07T16:27:23Z</time>
      </trkpt>
      <trkpt lat="43.33665" lon="6.37646">
        <ele>102</ele>
        <time>2019-09-07T16:27:24Z</time>
      </trkpt>
      <trkpt lat="43.33656" lon="6.3764">
        <ele>102</ele>
        <time>2019-09-07T16:27:26Z</time>
      </trkpt>
      <trkpt lat="43.33639" lon="6.37603">
        <ele>103</ele>
        <time>2019-09-07T16:27:31Z</time>
      </trkpt>
      <trkpt lat="43.33621" lon="6.37584">
        <ele>103</ele>
        <time>2019-09-07T16:27:35Z</time>
      </trkpt>
      <trkpt lat="43.33612" lon="6.37579">
        <ele>103</ele>
        <time>2019-09-07T16:27:37Z</time>
      </trkpt>
      <trkpt lat="43.33604" lon="6.37577">
        <ele>103</ele>
        <time>2019-09-07T16:27:38Z</time>
      </trkpt>
      <trkpt lat="43.33594" lon="6.37578">
        <ele>104</ele>
        <time>2019-09-07T16:27:40Z</time>
      </trkpt>
      <trkpt lat="43.33541" lon="6.37592">
        <ele>105</ele>
        <time>2019-09-07T16:27:50Z</time>
      </trkpt>
      <trkpt lat="43.33521" lon="6.37594">
        <ele>105</ele>
        <time>2019-09-07T16:27:53Z</time>
      </trkpt>
      <trkpt lat="43.33452" lon="6.37594">
        <ele>106</ele>
        <time>2019-09-07T16:28:06Z</time>
      </trkpt>
      <trkpt lat="43.33437" lon="6.37591">
        <ele>107</ele>
        <time>2019-09-07T16:28:08Z</time>
      </trkpt>
      <trkpt lat="43.334" lon="6.37578">
        <ele>107</ele>
        <time>2019-09-07T16:28:15Z</time>
      </trkpt>
      <trkpt lat="43.33356" lon="6.37542">
        <ele>109</ele>
        <time>2019-09-07T16:28:24Z</time>
      </trkpt>
      <trkpt lat="43.33327" lon="6.37527">
        <ele>110</ele>
        <time>2019-09-07T16:28:30Z</time>
      </trkpt>
      <trkpt lat="43.33316" lon="6.37526">
        <ele>110</ele>
        <time>2019-09-07T16:28:32Z</time>
      </trkpt>
      <trkpt lat="43.33302" lon="6.37528">
        <ele>110</ele>
        <time>2019-09-07T16:28:34Z</time>
      </trkpt>
      <trkpt lat="43.33281" lon="6.37535">
        <ele>110</ele>
        <time>2019-09-07T16:28:38Z</time>
      </trkpt>
      <trkpt lat="43.33257" lon="6.37546">
        <ele>110</ele>
        <time>2019-09-07T16:28:43Z</time>
      </trkpt>
      <trkpt lat="43.33234" lon="6.37559">
        <ele>111</ele>
        <time>2019-09-07T16:28:47Z</time>
      </trkpt>
      <trkpt lat="43.33197" lon="6.37589">
        <ele>112</ele>
        <time>2019-09-07T16:28:55Z</time>
      </trkpt>
      <trkpt lat="43.33141" lon="6.37616">
        <ele>112</ele>
        <time>2019-09-07T16:29:05Z</time>
      </trkpt>
      <trkpt lat="43.33116" lon="6.37624">
        <ele>112</ele>
        <time>2019-09-07T16:29:10Z</time>
      </trkpt>
      <trkpt lat="43.33106" lon="6.37631">
        <ele>113</ele>
        <time>2019-09-07T16:29:12Z</time>
      </trkpt>
      <trkpt lat="43.33078" lon="6.37661">
        <ele>114</ele>
        <time>2019-09-07T16:29:18Z</time>
      </trkpt>
      <trkpt lat="43.33051" lon="6.37709">
        <ele>114</ele>
        <time>2019-09-07T16:29:26Z</time>
      </trkpt>
      <trkpt lat="43.33021" lon="6.37734">
        <ele>114</ele>
        <time>2019-09-07T16:29:32Z</time>
      </trkpt>
      <trkpt lat="43.33014" lon="6.37743">
        <ele>115</ele>
        <time>2019-09-07T16:29:34Z</time>
      </trkpt>
      <trkpt lat="43.32957" lon="6.37829">
        <ele>116</ele>
        <time>2019-09-07T16:29:49Z</time>
      </trkpt>
      <trkpt lat="43.32839" lon="6.37937">
        <ele>117</ele>
        <time>2019-09-07T16:30:14Z</time>
      </trkpt>
      <trkpt lat="43.32777" lon="6.38001">
        <ele>120</ele>
        <time>2019-09-07T16:30:28Z</time>
      </trkpt>
      <trkpt lat="43.32761" lon="6.3801">
        <ele>120</ele>
        <time>2019-09-07T16:30:31Z</time>
      </trkpt>
      <trkpt lat="43.32724" lon="6.38012">
        <ele>122</ele>
        <time>2019-09-07T16:30:38Z</time>
      </trkpt>
      <trkpt lat="43.32691" lon="6.38019">
        <ele>122</ele>
        <time>2019-09-07T16:30:44Z</time>
      </trkpt>
      <trkpt lat="43.32657" lon="6.38021">
        <ele>123</ele>
        <time>2019-09-07T16:30:50Z</time>
      </trkpt>
      <trkpt lat="43.32649" lon="6.38024">
        <ele>123</ele>
        <time>2019-09-07T16:30:51Z</time>
      </trkpt>
      <trkpt lat="43.32602" lon="6.38074">
        <ele>125</ele>
        <time>2019-09-07T16:31:02Z</time>
      </trkpt>
      <trkpt lat="43.32576" lon="6.38121">
        <ele>127</ele>
        <time>2019-09-07T16:31:09Z</time>
      </trkpt>
      <trkpt lat="43.32553" lon="6.38147">
        <ele>130</ele>
        <time>2019-09-07T16:31:15Z</time>
      </trkpt>
      <trkpt lat="43.32521" lon="6.38174">
        <ele>134</ele>
        <time>2019-09-07T16:31:21Z</time>
      </trkpt>
      <trkpt lat="43.32511" lon="6.38177">
        <ele>135</ele>
        <time>2019-09-07T16:31:23Z</time>
      </trkpt>
      <trkpt lat="43.32485" lon="6.38196">
        <ele>137</ele>
        <time>2019-09-07T16:31:28Z</time>
      </trkpt>
      <trkpt lat="43.32466" lon="6.38206">
        <ele>138</ele>
        <time>2019-09-07T16:31:32Z</time>
      </trkpt>
      <trkpt lat="43.3247" lon="6.38204">
        <ele>137</ele>
        <time>2019-09-07T16:31:33Z</time>
      </trkpt>
      <trkpt lat="43.32475" lon="6.38224">
        <ele>138</ele>
        <time>2019-09-07T16:31:35Z</time>
      </trkpt>
      <trkpt lat="43.32516" lon="6.38423">
        <ele>136</ele>
        <time>2019-09-07T16:32:02Z</time>
      </trkpt>
      <trkpt lat="43.32592" lon="6.38628">
        <ele>138</ele>
        <time>2019-09-07T16:32:32Z</time>
      </trkpt>
      <trkpt lat="43.32614" lon="6.38738">
        <ele>136</ele>
        <time>2019-09-07T16:32:47Z</time>
      </trkpt>
      <trkpt lat="43.32661" lon="6.38885">
        <ele>130</ele>
        <time>2019-09-07T16:33:08Z</time>
      </trkpt>
      <trkpt lat="43.32667" lon="6.38915">
        <ele>129</ele>
        <time>2019-09-07T16:33:12Z</time>
      </trkpt>
      <trkpt lat="43.32673" lon="6.38997">
        <ele>129</ele>
        <time>2019-09-07T16:33:22Z</time>
      </trkpt>
      <trkpt lat="43.32678" lon="6.39273">
        <ele>136</ele>
        <time>2019-09-07T16:33:58Z</time>
      </trkpt>
      <trkpt lat="43.32662" lon="6.39488">
        <ele>138</ele>
        <time>2019-09-07T16:34:26Z</time>
      </trkpt>
      <trkpt lat="43.32603" lon="6.39491">
        <ele>142</ele>
        <time>2019-09-07T16:34:36Z</time>
      </trkpt>
      <trkpt lat="43.32557" lon="6.39477">
        <ele>146</ele>
        <time>2019-09-07T16:34:45Z</time>
      </trkpt>
      <trkpt lat="43.32391" lon="6.394">
        <ele>161</ele>
        <time>2019-09-07T16:35:16Z</time>
      </trkpt>
      <trkpt lat="43.32358" lon="6.39387">
        <ele>165</ele>
        <time>2019-09-07T16:35:22Z</time>
      </trkpt>
      <trkpt lat="43.32324" lon="6.39387">
        <ele>169</ele>
        <time>2019-09-07T16:35:28Z</time>
      </trkpt>
      <trkpt lat="43.32301" lon="6.3938">
        <ele>172</ele>
        <time>2019-09-07T16:35:32Z</time>
      </trkpt>
      <trkpt lat="43.32258" lon="6.39356">
        <ele>179</ele>
        <time>2019-09-07T16:35:41Z</time>
      </trkpt>
      <trkpt lat="43.3223" lon="6.39333">
        <ele>183</ele>
        <time>2019-09-07T16:35:46Z</time>
      </trkpt>
      <trkpt lat="43.32213" lon="6.39325">
        <ele>185</ele>
        <time>2019-09-07T16:35:50Z</time>
      </trkpt>
      <trkpt lat="43.32193" lon="6.39321">
        <ele>187</ele>
        <time>2019-09-07T16:35:53Z</time>
      </trkpt>
      <trkpt lat="43.32178" lon="6.39328">
        <ele>188</ele>
        <time>2019-09-07T16:35:56Z</time>
      </trkpt>
      <trkpt lat="43.32161" lon="6.39345">
        <ele>190</ele>
        <time>2019-09-07T16:36:00Z</time>
      </trkpt>
      <trkpt lat="43.32142" lon="6.39385">
        <ele>195</ele>
        <time>2019-09-07T16:36:06Z</time>
      </trkpt>
      <trkpt lat="43.32129" lon="6.39419">
        <ele>199</ele>
        <time>2019-09-07T16:36:11Z</time>
      </trkpt>
      <trkpt lat="43.3212" lon="6.39432">
        <ele>201</ele>
        <time>2019-09-07T16:36:13Z</time>
      </trkpt>
      <trkpt lat="43.32094" lon="6.3954">
        <ele>204</ele>
        <time>2019-09-07T16:36:28Z</time>
      </trkpt>
      <trkpt lat="43.32077" lon="6.39578">
        <ele>205</ele>
        <time>2019-09-07T16:36:34Z</time>
      </trkpt>
      <trkpt lat="43.32072" lon="6.39583">
        <ele>206</ele>
        <time>2019-09-07T16:36:35Z</time>
      </trkpt>
      <trkpt lat="43.32052" lon="6.39587">
        <ele>211</ele>
        <time>2019-09-07T16:36:38Z</time>
      </trkpt>
      <trkpt lat="43.32029" lon="6.39585">
        <ele>218</ele>
        <time>2019-09-07T16:36:43Z</time>
      </trkpt>
      <trkpt lat="43.32033" lon="6.39599">
        <ele>216</ele>
        <time>2019-09-07T16:36:45Z</time>
      </trkpt>
      <trkpt lat="43.32034" lon="6.39616">
        <ele>215</ele>
        <time>2019-09-07T16:36:47Z</time>
      </trkpt>
      <trkpt lat="43.32027" lon="6.39648">
        <ele>217</ele>
        <time>2019-09-07T16:36:51Z</time>
      </trkpt>
      <trkpt lat="43.3202" lon="6.39665">
        <ele>219</ele>
        <time>2019-09-07T16:36:54Z</time>
      </trkpt>
      <trkpt lat="43.32015" lon="6.3972">
        <ele>215</ele>
        <time>2019-09-07T16:37:01Z</time>
      </trkpt>
      <trkpt lat="43.3201" lon="6.39727">
        <ele>217</ele>
        <time>2019-09-07T16:37:02Z</time>
      </trkpt>
      <trkpt lat="43.31961" lon="6.39745">
        <ele>235</ele>
        <time>2019-09-07T16:37:11Z</time>
      </trkpt>
      <trkpt lat="43.31954" lon="6.39752">
        <ele>238</ele>
        <time>2019-09-07T16:37:13Z</time>
      </trkpt>
      <trkpt lat="43.31965" lon="6.39824">
        <ele>230</ele>
        <time>2019-09-07T16:37:22Z</time>
      </trkpt>
      <trkpt lat="43.31964" lon="6.39837">
        <ele>230</ele>
        <time>2019-09-07T16:37:24Z</time>
      </trkpt>
      <trkpt lat="43.31949" lon="6.3986">
        <ele>238</ele>
        <time>2019-09-07T16:37:28Z</time>
      </trkpt>
      <trkpt lat="43.31946" lon="6.39875">
        <ele>240</ele>
        <time>2019-09-07T16:37:30Z</time>
      </trkpt>
      <trkpt lat="43.31946" lon="6.39914">
        <ele>241</ele>
        <time>2019-09-07T16:37:35Z</time>
      </trkpt>
      <trkpt lat="43.31953" lon="6.39953">
        <ele>239</ele>
        <time>2019-09-07T16:37:40Z</time>
      </trkpt>
      <trkpt lat="43.3194" lon="6.40043">
        <ele>247</ele>
        <time>2019-09-07T16:37:52Z</time>
      </trkpt>
      <trkpt lat="43.31943" lon="6.40079">
        <ele>245</ele>
        <time>2019-09-07T16:37:57Z</time>
      </trkpt>
      <trkpt lat="43.31916" lon="6.40223">
        <ele>256</ele>
        <time>2019-09-07T16:38:16Z</time>
      </trkpt>
      <trkpt lat="43.31913" lon="6.40287">
        <ele>252</ele>
        <time>2019-09-07T16:38:24Z</time>
      </trkpt>
      <trkpt lat="43.31906" lon="6.40308">
        <ele>250</ele>
        <time>2019-09-07T16:38:27Z</time>
      </trkpt>
      <trkpt lat="43.31872" lon="6.40371">
        <ele>244</ele>
        <time>2019-09-07T16:38:37Z</time>
      </trkpt>
      <trkpt lat="43.31861" lon="6.40376">
        <ele>243</ele>
        <time>2019-09-07T16:38:39Z</time>
      </trkpt>
      <trkpt lat="43.31852" lon="6.40373">
        <ele>244</ele>
        <time>2019-09-07T16:38:41Z</time>
      </trkpt>
      <trkpt lat="43.31846" lon="6.40369">
        <ele>246</ele>
        <time>2019-09-07T16:38:42Z</time>
      </trkpt>
      <trkpt lat="43.31839" lon="6.40352">
        <ele>251</ele>
        <time>2019-09-07T16:38:45Z</time>
      </trkpt>
      <trkpt lat="43.31823" lon="6.40307">
        <ele>258</ele>
        <time>2019-09-07T16:38:51Z</time>
      </trkpt>
      <trkpt lat="43.31815" lon="6.4025">
        <ele>266</ele>
        <time>2019-09-07T16:38:59Z</time>
      </trkpt>
      <trkpt lat="43.31798" lon="6.40192">
        <ele>268</ele>
        <time>2019-09-07T16:39:07Z</time>
      </trkpt>
      <trkpt lat="43.31787" lon="6.40139">
        <ele>272</ele>
        <time>2019-09-07T16:39:14Z</time>
      </trkpt>
      <trkpt lat="43.31777" lon="6.40118">
        <ele>273</ele>
        <time>2019-09-07T16:39:17Z</time>
      </trkpt>
      <trkpt lat="43.3176" lon="6.40056">
        <ele>279</ele>
        <time>2019-09-07T16:39:26Z</time>
      </trkpt>
      <trkpt lat="43.31733" lon="6.40003">
        <ele>289</ele>
        <time>2019-09-07T16:39:34Z</time>
      </trkpt>
      <trkpt lat="43.31711" lon="6.39953">
        <ele>301</ele>
        <time>2019-09-07T16:39:42Z</time>
      </trkpt>
      <trkpt lat="43.31705" lon="6.39953">
        <ele>302</ele>
        <time>2019-09-07T16:39:43Z</time>
      </trkpt>
      <trkpt lat="43.31701" lon="6.39957">
        <ele>301</ele>
        <time>2019-09-07T16:39:44Z</time>
      </trkpt>
      <trkpt lat="43.31689" lon="6.39975">
        <ele>299</ele>
        <time>2019-09-07T16:39:47Z</time>
      </trkpt>
      <trkpt lat="43.3168" lon="6.39997">
        <ele>297</ele>
        <time>2019-09-07T16:39:50Z</time>
      </trkpt>
      <trkpt lat="43.31667" lon="6.40013">
        <ele>296</ele>
        <time>2019-09-07T16:39:53Z</time>
      </trkpt>
      <trkpt lat="43.3165" lon="6.4004">
        <ele>296</ele>
        <time>2019-09-07T16:39:58Z</time>
      </trkpt>
      <trkpt lat="43.31622" lon="6.40077">
        <ele>297</ele>
        <time>2019-09-07T16:40:05Z</time>
      </trkpt>
      <trkpt lat="43.31584" lon="6.40121">
        <ele>295</ele>
        <time>2019-09-07T16:40:14Z</time>
      </trkpt>
      <trkpt lat="43.31571" lon="6.4013">
        <ele>291</ele>
        <time>2019-09-07T16:40:16Z</time>
      </trkpt>
      <trkpt lat="43.31544" lon="6.40134">
        <ele>288</ele>
        <time>2019-09-07T16:40:21Z</time>
      </trkpt>
      <trkpt lat="43.31528" lon="6.40128">
        <ele>288</ele>
        <time>2019-09-07T16:40:24Z</time>
      </trkpt>
      <trkpt lat="43.31519" lon="6.40117">
        <ele>290</ele>
        <time>2019-09-07T16:40:26Z</time>
      </trkpt>
      <trkpt lat="43.31503" lon="6.40077">
        <ele>298</ele>
        <time>2019-09-07T16:40:32Z</time>
      </trkpt>
      <trkpt lat="43.31477" lon="6.40028">
        <ele>299</ele>
        <time>2019-09-07T16:40:40Z</time>
      </trkpt>
      <trkpt lat="43.31477" lon="6.40007">
        <ele>303</ele>
        <time>2019-09-07T16:40:43Z</time>
      </trkpt>
      <trkpt lat="43.31483" lon="6.39997">
        <ele>307</ele>
        <time>2019-09-07T16:40:44Z</time>
      </trkpt>
      <trkpt lat="43.31495" lon="6.39987">
        <ele>312</ele>
        <time>2019-09-07T16:40:47Z</time>
      </trkpt>
      <trkpt lat="43.31497" lon="6.39982">
        <ele>313</ele>
        <time>2019-09-07T16:40:48Z</time>
      </trkpt>
      <trkpt lat="43.31495" lon="6.39957">
        <ele>315</ele>
        <time>2019-09-07T16:40:51Z</time>
      </trkpt>
      <trkpt lat="43.3148" lon="6.39927">
        <ele>311</ele>
        <time>2019-09-07T16:40:56Z</time>
      </trkpt>
      <trkpt lat="43.31485" lon="6.39901">
        <ele>317</ele>
        <time>2019-09-07T16:40:59Z</time>
      </trkpt>
      <trkpt lat="43.31483" lon="6.39895">
        <ele>317</ele>
        <time>2019-09-07T16:41:00Z</time>
      </trkpt>
      <trkpt lat="43.3145" lon="6.39825">
        <ele>321</ele>
        <time>2019-09-07T16:41:11Z</time>
      </trkpt>
      <trkpt lat="43.31444" lon="6.39817">
        <ele>322</ele>
        <time>2019-09-07T16:41:12Z</time>
      </trkpt>
      <trkpt lat="43.3143" lon="6.39808">
        <ele>320</ele>
        <time>2019-09-07T16:41:15Z</time>
      </trkpt>
      <trkpt lat="43.31425" lon="6.39802">
        <ele>321</ele>
        <time>2019-09-07T16:41:16Z</time>
      </trkpt>
      <trkpt lat="43.31413" lon="6.39778">
        <ele>324</ele>
        <time>2019-09-07T16:41:20Z</time>
      </trkpt>
      <trkpt lat="43.31404" lon="6.39769">
        <ele>323</ele>
        <time>2019-09-07T16:41:22Z</time>
      </trkpt>
      <trkpt lat="43.3139" lon="6.39761">
        <ele>319</ele>
        <time>2019-09-07T16:41:25Z</time>
      </trkpt>
      <trkpt lat="43.31383" lon="6.39746">
        <ele>321</ele>
        <time>2019-09-07T16:41:27Z</time>
      </trkpt>
      <trkpt lat="43.31372" lon="6.39689">
        <ele>330</ele>
        <time>2019-09-07T16:41:34Z</time>
      </trkpt>
      <trkpt lat="43.3137" lon="6.39662">
        <ele>335</ele>
        <time>2019-09-07T16:41:38Z</time>
      </trkpt>
      <trkpt lat="43.31363" lon="6.39632">
        <ele>339</ele>
        <time>2019-09-07T16:41:42Z</time>
      </trkpt>
      <trkpt lat="43.31335" lon="6.39569">
        <ele>343</ele>
        <time>2019-09-07T16:41:52Z</time>
      </trkpt>
      <trkpt lat="43.31322" lon="6.39523">
        <ele>356</ele>
        <time>2019-09-07T16:41:58Z</time>
      </trkpt>
      <trkpt lat="43.3131" lon="6.39517">
        <ele>358</ele>
        <time>2019-09-07T16:42:00Z</time>
      </trkpt>
      <trkpt lat="43.31304" lon="6.39517">
        <ele>358</ele>
        <time>2019-09-07T16:42:01Z</time>
      </trkpt>
      <trkpt lat="43.31298" lon="6.3952">
        <ele>357</ele>
        <time>2019-09-07T16:42:02Z</time>
      </trkpt>
      <trkpt lat="43.31267" lon="6.39561">
        <ele>344</ele>
        <time>2019-09-07T16:42:10Z</time>
      </trkpt>
      <trkpt lat="43.31261" lon="6.39566">
        <ele>342</ele>
        <time>2019-09-07T16:42:11Z</time>
      </trkpt>
      <trkpt lat="43.31248" lon="6.3957">
        <ele>341</ele>
        <time>2019-09-07T16:42:14Z</time>
      </trkpt>
      <trkpt lat="43.31239" lon="6.39568">
        <ele>344</ele>
        <time>2019-09-07T16:42:15Z</time>
      </trkpt>
      <trkpt lat="43.31215" lon="6.39551">
        <ele>356</ele>
        <time>2019-09-07T16:42:20Z</time>
      </trkpt>
      <trkpt lat="43.31209" lon="6.39548">
        <ele>359</ele>
        <time>2019-09-07T16:42:21Z</time>
      </trkpt>
      <trkpt lat="43.31203" lon="6.3955">
        <ele>360</ele>
        <time>2019-09-07T16:42:22Z</time>
      </trkpt>
      <trkpt lat="43.31198" lon="6.39555">
        <ele>359</ele>
        <time>2019-09-07T16:42:23Z</time>
      </trkpt>
      <trkpt lat="43.31173" lon="6.39598">
        <ele>348</ele>
        <time>2019-09-07T16:42:31Z</time>
      </trkpt>
      <trkpt lat="43.31166" lon="6.396">
        <ele>349</ele>
        <time>2019-09-07T16:42:32Z</time>
      </trkpt>
      <trkpt lat="43.31104" lon="6.39584">
        <ele>370</ele>
        <time>2019-09-07T16:42:43Z</time>
      </trkpt>
      <trkpt lat="43.31095" lon="6.39583">
        <ele>373</ele>
        <time>2019-09-07T16:42:45Z</time>
      </trkpt>
      <trkpt lat="43.31087" lon="6.39586">
        <ele>374</ele>
        <time>2019-09-07T16:42:46Z</time>
      </trkpt>
      <trkpt lat="43.3108" lon="6.39642">
        <ele>364</ele>
        <time>2019-09-07T16:42:54Z</time>
      </trkpt>
      <trkpt lat="43.31069" lon="6.39667">
        <ele>361</ele>
        <time>2019-09-07T16:42:57Z</time>
      </trkpt>
      <trkpt lat="43.31051" lon="6.3968">
        <ele>362</ele>
        <time>2019-09-07T16:43:01Z</time>
      </trkpt>
      <trkpt lat="43.31039" lon="6.39683">
        <ele>364</ele>
        <time>2019-09-07T16:43:03Z</time>
      </trkpt>
      <trkpt lat="43.31" lon="6.39676">
        <ele>375</ele>
        <time>2019-09-07T16:43:10Z</time>
      </trkpt>
      <trkpt lat="43.30992" lon="6.3968">
        <ele>376</ele>
        <time>2019-09-07T16:43:12Z</time>
      </trkpt>
      <trkpt lat="43.3096" lon="6.39709">
        <ele>371</ele>
        <time>2019-09-07T16:43:18Z</time>
      </trkpt>
      <trkpt lat="43.30936" lon="6.39719">
        <ele>371</ele>
        <time>2019-09-07T16:43:23Z</time>
      </trkpt>
      <trkpt lat="43.30915" lon="6.39722">
        <ele>374</ele>
        <time>2019-09-07T16:43:27Z</time>
      </trkpt>
      <trkpt lat="43.30891" lon="6.39718">
        <ele>385</ele>
        <time>2019-09-07T16:43:31Z</time>
      </trkpt>
      <trkpt lat="43.30865" lon="6.39721">
        <ele>393</ele>
        <time>2019-09-07T16:43:36Z</time>
      </trkpt>
      <trkpt lat="43.30843" lon="6.39734">
        <ele>394</ele>
        <time>2019-09-07T16:43:40Z</time>
      </trkpt>
      <trkpt lat="43.30826" lon="6.39755">
        <ele>391</ele>
        <time>2019-09-07T16:43:44Z</time>
      </trkpt>
      <trkpt lat="43.30811" lon="6.39789">
        <ele>384</ele>
        <time>2019-09-07T16:43:49Z</time>
      </trkpt>
      <trkpt lat="43.30803" lon="6.39819">
        <ele>376</ele>
        <time>2019-09-07T16:43:53Z</time>
      </trkpt>
      <trkpt lat="43.30796" lon="6.39827">
        <ele>375</ele>
        <time>2019-09-07T16:43:55Z</time>
      </trkpt>
      <trkpt lat="43.30774" lon="6.39823">
        <ele>381</ele>
        <time>2019-09-07T16:43:59Z</time>
      </trkpt>
      <trkpt lat="43.30717" lon="6.39793">
        <ele>400</ele>
        <time>2019-09-07T16:44:10Z</time>
      </trkpt>
      <trkpt lat="43.30706" lon="6.39796">
        <ele>400</ele>
        <time>2019-09-07T16:44:12Z</time>
      </trkpt>
      <trkpt lat="43.30649" lon="6.39855">
        <ele>392</ele>
        <time>2019-09-07T16:44:24Z</time>
      </trkpt>
      <trkpt lat="43.30641" lon="6.39866">
        <ele>389</ele>
        <time>2019-09-07T16:44:26Z</time>
      </trkpt>
      <trkpt lat="43.3062" lon="6.39897">
        <ele>386</ele>
        <time>2019-09-07T16:44:32Z</time>
      </trkpt>
      <trkpt lat="43.30579" lon="6.40019">
        <ele>399</ele>
        <time>2019-09-07T16:44:49Z</time>
      </trkpt>
      <trkpt lat="43.30564" lon="6.40099">
        <ele>406</ele>
        <time>2019-09-07T16:45:00Z</time>
      </trkpt>
      <trkpt lat="43.3055" lon="6.40206">
        <ele>414</ele>
        <time>2019-09-07T16:45:14Z</time>
      </trkpt>
      <trkpt lat="43.30541" lon="6.40254">
        <ele>420</ele>
        <time>2019-09-07T16:45:20Z</time>
      </trkpt>
      <trkpt lat="43.30517" lon="6.40326">
        <ele>436</ele>
        <time>2019-09-07T16:45:31Z</time>
      </trkpt>
      <trkpt lat="43.30518" lon="6.4034">
        <ele>437</ele>
        <time>2019-09-07T16:45:33Z</time>
      </trkpt>
      <trkpt lat="43.30535" lon="6.40364">
        <ele>437</ele>
        <time>2019-09-07T16:45:37Z</time>
      </trkpt>
      <trkpt lat="43.30541" lon="6.40401">
        <ele>444</ele>
        <time>2019-09-07T16:45:42Z</time>
      </trkpt>
      <trkpt lat="43.30555" lon="6.40419">
        <ele>444</ele>
        <time>2019-09-07T16:45:45Z</time>
      </trkpt>
      <trkpt lat="43.30601" lon="6.40437">
        <ele>433</ele>
        <time>2019-09-07T16:45:54Z</time>
      </trkpt>
      <trkpt lat="43.30615" lon="6.40445">
        <ele>430</ele>
        <time>2019-09-07T16:45:56Z</time>
      </trkpt>
      <trkpt lat="43.30621" lon="6.40453">
        <ele>429</ele>
        <time>2019-09-07T16:45:58Z</time>
      </trkpt>
      <trkpt lat="43.30625" lon="6.40467">
        <ele>429</ele>
        <time>2019-09-07T16:46:00Z</time>
      </trkpt>
      <trkpt lat="43.30619" lon="6.40494">
        <ele>435</ele>
        <time>2019-09-07T16:46:03Z</time>
      </trkpt>
      <trkpt lat="43.30605" lon="6.40524">
        <ele>440</ele>
        <time>2019-09-07T16:46:08Z</time>
      </trkpt>
      <trkpt lat="43.30589" lon="6.40553">
        <ele>445</ele>
        <time>2019-09-07T16:46:13Z</time>
      </trkpt>
      <trkpt lat="43.3056" lon="6.40585">
        <ele>451</ele>
        <time>2019-09-07T16:46:19Z</time>
      </trkpt>
      <trkpt lat="43.30531" lon="6.40608">
        <ele>453</ele>
        <time>2019-09-07T16:46:25Z</time>
      </trkpt>
      <trkpt lat="43.30501" lon="6.40628">
        <ele>455</ele>
        <time>2019-09-07T16:46:31Z</time>
      </trkpt>
      <trkpt lat="43.30481" lon="6.40635">
        <ele>454</ele>
        <time>2019-09-07T16:46:35Z</time>
      </trkpt>
      <trkpt lat="43.30469" lon="6.40636">
        <ele>453</ele>
        <time>2019-09-07T16:46:37Z</time>
      </trkpt>
      <trkpt lat="43.30456" lon="6.40634">
        <ele>454</ele>
        <time>2019-09-07T16:46:39Z</time>
      </trkpt>
      <trkpt lat="43.30448" lon="6.40626">
        <ele>457</ele>
        <time>2019-09-07T16:46:41Z</time>
      </trkpt>
      <trkpt lat="43.30416" lon="6.4058">
        <ele>474</ele>
        <time>2019-09-07T16:46:49Z</time>
      </trkpt>
      <trkpt lat="43.30385" lon="6.40574">
        <ele>475</ele>
        <time>2019-09-07T16:46:55Z</time>
      </trkpt>
      <trkpt lat="43.30342" lon="6.40576">
        <ele>475</ele>
        <time>2019-09-07T16:47:03Z</time>
      </trkpt>
      <trkpt lat="43.30318" lon="6.40571">
        <ele>479</ele>
        <time>2019-09-07T16:47:07Z</time>
      </trkpt>
      <trkpt lat="43.30302" lon="6.40564">
        <ele>483</ele>
        <time>2019-09-07T16:47:10Z</time>
      </trkpt>
      <trkpt lat="43.30287" lon="6.40554">
        <ele>489</ele>
        <time>2019-09-07T16:47:13Z</time>
      </trkpt>
      <trkpt lat="43.30256" lon="6.40559">
        <ele>491</ele>
        <time>2019-09-07T16:47:19Z</time>
      </trkpt>
      <trkpt lat="43.30233" lon="6.40572">
        <ele>494</ele>
        <time>2019-09-07T16:47:23Z</time>
      </trkpt>
      <trkpt lat="43.30215" lon="6.40608">
        <ele>490</ele>
        <time>2019-09-07T16:47:29Z</time>
      </trkpt>
      <trkpt lat="43.302" lon="6.40629">
        <ele>490</ele>
        <time>2019-09-07T16:47:32Z</time>
      </trkpt>
      <trkpt lat="43.3018" lon="6.4065">
        <ele>490</ele>
        <time>2019-09-07T16:47:37Z</time>
      </trkpt>
      <trkpt lat="43.3016" lon="6.40666">
        <ele>492</ele>
        <time>2019-09-07T16:47:41Z</time>
      </trkpt>
      <trkpt lat="43.30137" lon="6.40674">
        <ele>495</ele>
        <time>2019-09-07T16:47:45Z</time>
      </trkpt>
      <trkpt lat="43.30082" lon="6.40686">
        <ele>507</ele>
        <time>2019-09-07T16:47:55Z</time>
      </trkpt>
      <trkpt lat="43.3007" lon="6.40686">
        <ele>511</ele>
        <time>2019-09-07T16:47:57Z</time>
      </trkpt>
      <trkpt lat="43.30061" lon="6.40691">
        <ele>513</ele>
        <time>2019-09-07T16:47:59Z</time>
      </trkpt>
      <trkpt lat="43.30048" lon="6.40715">
        <ele>513</ele>
        <time>2019-09-07T16:48:03Z</time>
      </trkpt>
      <trkpt lat="43.30032" lon="6.40726">
        <ele>516</ele>
        <time>2019-09-07T16:48:06Z</time>
      </trkpt>
      <trkpt lat="43.30024" lon="6.40735">
        <ele>518</ele>
        <time>2019-09-07T16:48:08Z</time>
      </trkpt>
      <trkpt lat="43.30019" lon="6.40743">
        <ele>519</ele>
        <time>2019-09-07T16:48:09Z</time>
      </trkpt>
      <trkpt lat="43.30019" lon="6.4076">
        <ele>519</ele>
        <time>2019-09-07T16:48:11Z</time>
      </trkpt>
      <trkpt lat="43.30033" lon="6.40784">
        <ele>516</ele>
        <time>2019-09-07T16:48:15Z</time>
      </trkpt>
      <trkpt lat="43.30054" lon="6.40799">
        <ele>509</ele>
        <time>2019-09-07T16:48:20Z</time>
      </trkpt>
      <trkpt lat="43.30064" lon="6.40865">
        <ele>507</ele>
        <time>2019-09-07T16:48:28Z</time>
      </trkpt>
      <trkpt lat="43.3006" lon="6.40882">
        <ele>509</ele>
        <time>2019-09-07T16:48:31Z</time>
      </trkpt>
      <trkpt lat="43.30037" lon="6.40927">
        <ele>519</ele>
        <time>2019-09-07T16:48:38Z</time>
      </trkpt>
      <trkpt lat="43.30019" lon="6.40941">
        <ele>528</ele>
        <time>2019-09-07T16:48:41Z</time>
      </trkpt>
      <trkpt lat="43.30013" lon="6.40949">
        <ele>531</ele>
        <time>2019-09-07T16:48:43Z</time>
      </trkpt>
      <trkpt lat="43.30018" lon="6.41028">
        <ele>527</ele>
        <time>2019-09-07T16:48:53Z</time>
      </trkpt>
      <trkpt lat="43.30015" lon="6.41044">
        <ele>529</ele>
        <time>2019-09-07T16:48:55Z</time>
      </trkpt>
      <trkpt lat="43.29999" lon="6.41072">
        <ele>536</ele>
        <time>2019-09-07T16:49:00Z</time>
      </trkpt>
      <trkpt lat="43.30003" lon="6.4115">
        <ele>537</ele>
        <time>2019-09-07T16:49:10Z</time>
      </trkpt>
      <trkpt lat="43.3" lon="6.41167">
        <ele>539</ele>
        <time>2019-09-07T16:49:12Z</time>
      </trkpt>
      <trkpt lat="43.29987" lon="6.41201">
        <ele>548</ele>
        <time>2019-09-07T16:49:17Z</time>
      </trkpt>
      <trkpt lat="43.29986" lon="6.41219">
        <ele>550</ele>
        <time>2019-09-07T16:49:20Z</time>
      </trkpt>
      <trkpt lat="43.29994" lon="6.41255">
        <ele>553</ele>
        <time>2019-09-07T16:49:25Z</time>
      </trkpt>
      <trkpt lat="43.30007" lon="6.4129">
        <ele>554</ele>
        <time>2019-09-07T16:49:30Z</time>
      </trkpt>
      <trkpt lat="43.30061" lon="6.41477">
        <ele>579</ele>
        <time>2019-09-07T16:49:56Z</time>
      </trkpt>
      <trkpt lat="43.30065" lon="6.4148">
        <ele>579</ele>
        <time>2019-09-07T16:49:57Z</time>
      </trkpt>
      <trkpt lat="43.30074" lon="6.41479">
        <ele>578</ele>
        <time>2019-09-07T16:49:58Z</time>
      </trkpt>
      <trkpt lat="43.30085" lon="6.41464">
        <ele>575</ele>
        <time>2019-09-07T16:50:01Z</time>
      </trkpt>
      <trkpt lat="43.30096" lon="6.41444">
        <ele>575</ele>
        <time>2019-09-07T16:50:04Z</time>
      </trkpt>
      <trkpt lat="43.30104" lon="6.41421">
        <ele>574</ele>
        <time>2019-09-07T16:50:07Z</time>
      </trkpt>
      <trkpt lat="43.30137" lon="6.4137">
        <ele>575</ele>
        <time>2019-09-07T16:50:16Z</time>
      </trkpt>
      <trkpt lat="43.30172" lon="6.41325">
        <ele>576</ele>
        <time>2019-09-07T16:50:25Z</time>
      </trkpt>
      <trkpt lat="43.30176" lon="6.41324">
        <ele>576</ele>
        <time>2019-09-07T16:50:26Z</time>
      </trkpt>
      <trkpt lat="43.30179" lon="6.41326">
        <ele>577</ele>
        <time>2019-09-07T16:50:26Z</time>
      </trkpt>
      <trkpt lat="43.30179" lon="6.41335">
        <ele>579</ele>
        <time>2019-09-07T16:50:27Z</time>
      </trkpt>
      <trkpt lat="43.30165" lon="6.41355">
        <ele>582</ele>
        <time>2019-09-07T16:50:31Z</time>
      </trkpt>
      <trkpt lat="43.30131" lon="6.4142">
        <ele>583</ele>
        <time>2019-09-07T16:50:41Z</time>
      </trkpt>
      <trkpt lat="43.30124" lon="6.41443">
        <ele>584</ele>
        <time>2019-09-07T16:50:44Z</time>
      </trkpt>
      <trkpt lat="43.30117" lon="6.41496">
        <ele>589</ele>
        <time>2019-09-07T16:50:51Z</time>
      </trkpt>
      <trkpt lat="43.30105" lon="6.41529">
        <ele>589</ele>
        <time>2019-09-07T16:50:56Z</time>
      </trkpt>
      <trkpt lat="43.30088" lon="6.41546">
        <ele>587</ele>
        <time>2019-09-07T16:51:00Z</time>
      </trkpt>
      <trkpt lat="43.30065" lon="6.41557">
        <ele>586</ele>
        <time>2019-09-07T16:51:04Z</time>
      </trkpt>
      <trkpt lat="43.30048" lon="6.4157">
        <ele>586</ele>
        <time>2019-09-07T16:51:08Z</time>
      </trkpt>
      <trkpt lat="43.30042" lon="6.41581">
        <ele>586</ele>
        <time>2019-09-07T16:51:10Z</time>
      </trkpt>
      <trkpt lat="43.3004" lon="6.41601">
        <ele>584</ele>
        <time>2019-09-07T16:51:12Z</time>
      </trkpt>
      <trkpt lat="43.30048" lon="6.41628">
        <ele>582</ele>
        <time>2019-09-07T16:51:16Z</time>
      </trkpt>
      <trkpt lat="43.30071" lon="6.41672">
        <ele>583</ele>
        <time>2019-09-07T16:51:23Z</time>
      </trkpt>
      <trkpt lat="43.30084" lon="6.41706">
        <ele>581</ele>
        <time>2019-09-07T16:51:28Z</time>
      </trkpt>
      <trkpt lat="43.30085" lon="6.41727">
        <ele>578</ele>
        <time>2019-09-07T16:51:31Z</time>
      </trkpt>
      <trkpt lat="43.30079" lon="6.41736">
        <ele>575</ele>
        <time>2019-09-07T16:51:32Z</time>
      </trkpt>
      <trkpt lat="43.30101" lon="6.41801">
        <ele>571</ele>
        <time>2019-09-07T16:51:41Z</time>
      </trkpt>
      <trkpt lat="43.30136" lon="6.41849">
        <ele>575</ele>
        <time>2019-09-07T16:51:50Z</time>
      </trkpt>
      <trkpt lat="43.30183" lon="6.41895">
        <ele>583</ele>
        <time>2019-09-07T16:52:01Z</time>
      </trkpt>
      <trkpt lat="43.30186" lon="6.41905">
        <ele>582</ele>
        <time>2019-09-07T16:52:02Z</time>
      </trkpt>
      <trkpt lat="43.30185" lon="6.41914">
        <ele>580</ele>
        <time>2019-09-07T16:52:03Z</time>
      </trkpt>
      <trkpt lat="43.30182" lon="6.41919">
        <ele>578</ele>
        <time>2019-09-07T16:52:04Z</time>
      </trkpt>
      <trkpt lat="43.30163" lon="6.41937">
        <ele>570</ele>
        <time>2019-09-07T16:52:08Z</time>
      </trkpt>
      <trkpt lat="43.30162" lon="6.41984">
        <ele>565</ele>
        <time>2019-09-07T16:52:14Z</time>
      </trkpt>
      <trkpt lat="43.30167" lon="6.42003">
        <ele>566</ele>
        <time>2019-09-07T16:52:17Z</time>
      </trkpt>
      <trkpt lat="43.30182" lon="6.42036">
        <ele>568</ele>
        <time>2019-09-07T16:52:22Z</time>
      </trkpt>
      <trkpt lat="43.30186" lon="6.42054">
        <ele>567</ele>
        <time>2019-09-07T16:52:24Z</time>
      </trkpt>
      <trkpt lat="43.30188" lon="6.42089">
        <ele>563</ele>
        <time>2019-09-07T16:52:29Z</time>
      </trkpt>
      <trkpt lat="43.30199" lon="6.42135">
        <ele>560</ele>
        <time>2019-09-07T16:52:35Z</time>
      </trkpt>
      <trkpt lat="43.30232" lon="6.42207">
        <ele>559</ele>
        <time>2019-09-07T16:52:46Z</time>
      </trkpt>
      <trkpt lat="43.30236" lon="6.42231">
        <ele>559</ele>
        <time>2019-09-07T16:52:49Z</time>
      </trkpt>
      <trkpt lat="43.30237" lon="6.42332">
        <ele>563</ele>
        <time>2019-09-07T16:53:02Z</time>
      </trkpt>
      <trkpt lat="43.30215" lon="6.42439">
        <ele>568</ele>
        <time>2019-09-07T16:53:17Z</time>
      </trkpt>
      <trkpt lat="43.30216" lon="6.42475">
        <ele>571</ele>
        <time>2019-09-07T16:53:21Z</time>
      </trkpt>
      <trkpt lat="43.30226" lon="6.42523">
        <ele>573</ele>
        <time>2019-09-07T16:53:28Z</time>
      </trkpt>
      <trkpt lat="43.30242" lon="6.42565">
        <ele>575</ele>
        <time>2019-09-07T16:53:34Z</time>
      </trkpt>
      <trkpt lat="43.30244" lon="6.42588">
        <ele>576</ele>
        <time>2019-09-07T16:53:37Z</time>
      </trkpt>
      <trkpt lat="43.30241" lon="6.4263">
        <ele>577</ele>
        <time>2019-09-07T16:53:42Z</time>
      </trkpt>
      <trkpt lat="43.30227" lon="6.42729">
        <ele>578</ele>
        <time>2019-09-07T16:53:56Z</time>
      </trkpt>
      <trkpt lat="43.3023" lon="6.42745">
        <ele>577</ele>
        <time>2019-09-07T16:53:58Z</time>
      </trkpt>
      <trkpt lat="43.3025" lon="6.42787">
        <ele>578</ele>
        <time>2019-09-07T16:54:04Z</time>
      </trkpt>
      <trkpt lat="43.30261" lon="6.42862">
        <ele>578</ele>
        <time>2019-09-07T16:54:14Z</time>
      </trkpt>
      <trkpt lat="43.3027" lon="6.42894">
        <ele>577</ele>
        <time>2019-09-07T16:54:19Z</time>
      </trkpt>
      <trkpt lat="43.30292" lon="6.42937">
        <ele>572</ele>
        <time>2019-09-07T16:54:25Z</time>
      </trkpt>
      <trkpt lat="43.30308" lon="6.42957">
        <ele>567</ele>
        <time>2019-09-07T16:54:29Z</time>
      </trkpt>
      <trkpt lat="43.3031" lon="6.42982">
        <ele>565</ele>
        <time>2019-09-07T16:54:32Z</time>
      </trkpt>
      <trkpt lat="43.30305" lon="6.42993">
        <ele>566</ele>
        <time>2019-09-07T16:54:34Z</time>
      </trkpt>
      <trkpt lat="43.30294" lon="6.43008">
        <ele>567</ele>
        <time>2019-09-07T16:54:37Z</time>
      </trkpt>
      <trkpt lat="43.3023" lon="6.4308">
        <ele>563</ele>
        <time>2019-09-07T16:54:52Z</time>
      </trkpt>
      <trkpt lat="43.30222" lon="6.43093">
        <ele>562</ele>
        <time>2019-09-07T16:54:54Z</time>
      </trkpt>
      <trkpt lat="43.30206" lon="6.43139">
        <ele>556</ele>
        <time>2019-09-07T16:55:00Z</time>
      </trkpt>
      <trkpt lat="43.30198" lon="6.43153">
        <ele>555</ele>
        <time>2019-09-07T16:55:03Z</time>
      </trkpt>
      <trkpt lat="43.3017" lon="6.43184">
        <ele>560</ele>
        <time>2019-09-07T16:55:09Z</time>
      </trkpt>
      <trkpt lat="43.30155" lon="6.43197">
        <ele>556</ele>
        <time>2019-09-07T16:55:12Z</time>
      </trkpt>
      <trkpt lat="43.30146" lon="6.43209">
        <ele>553</ele>
        <time>2019-09-07T16:55:15Z</time>
      </trkpt>
      <trkpt lat="43.30138" lon="6.43233">
        <ele>549</ele>
        <time>2019-09-07T16:55:18Z</time>
      </trkpt>
      <trkpt lat="43.30135" lon="6.43281">
        <ele>544</ele>
        <time>2019-09-07T16:55:24Z</time>
      </trkpt>
      <trkpt lat="43.30111" lon="6.43332">
        <ele>542</ele>
        <time>2019-09-07T16:55:32Z</time>
      </trkpt>
      <trkpt lat="43.30105" lon="6.43385">
        <ele>542</ele>
        <time>2019-09-07T16:55:39Z</time>
      </trkpt>
      <trkpt lat="43.30083" lon="6.43435">
        <ele>547</ele>
        <time>2019-09-07T16:55:47Z</time>
      </trkpt>
      <trkpt lat="43.30075" lon="6.43462">
        <ele>545</ele>
        <time>2019-09-07T16:55:50Z</time>
      </trkpt>
      <trkpt lat="43.30046" lon="6.43628">
        <ele>532</ele>
        <time>2019-09-07T16:56:12Z</time>
      </trkpt>
      <trkpt lat="43.30049" lon="6.43626">
        <ele>533</ele>
        <time>2019-09-07T16:56:13Z</time>
      </trkpt>
      <trkpt lat="43.30046" lon="6.43628">
        <ele>532</ele>
        <time>2019-09-07T16:56:14Z</time>
      </trkpt>
      <trkpt lat="43.30024" lon="6.43738">
        <ele>536</ele>
        <time>2019-09-07T16:56:28Z</time>
      </trkpt>
      <trkpt lat="43.30023" lon="6.43777">
        <ele>542</ele>
        <time>2019-09-07T16:56:33Z</time>
      </trkpt>
      <trkpt lat="43.3001" lon="6.4381">
        <ele>546</ele>
        <time>2019-09-07T16:56:38Z</time>
      </trkpt>
      <trkpt lat="43.29997" lon="6.43901">
        <ele>560</ele>
        <time>2019-09-07T16:56:50Z</time>
      </trkpt>
      <trkpt lat="43.29943" lon="6.44049">
        <ele>567</ele>
        <time>2019-09-07T16:57:12Z</time>
      </trkpt>
      <trkpt lat="43.29922" lon="6.44099">
        <ele>570</ele>
        <time>2019-09-07T16:57:19Z</time>
      </trkpt>
      <trkpt lat="43.29912" lon="6.44136">
        <ele>571</ele>
        <time>2019-09-07T16:57:24Z</time>
      </trkpt>
      <trkpt lat="43.29911" lon="6.44154">
        <ele>573</ele>
        <time>2019-09-07T16:57:27Z</time>
      </trkpt>
      <trkpt lat="43.29914" lon="6.44174">
        <ele>575</ele>
        <time>2019-09-07T16:57:29Z</time>
      </trkpt>
      <trkpt lat="43.29924" lon="6.44199">
        <ele>576</ele>
        <time>2019-09-07T16:57:33Z</time>
      </trkpt>
      <trkpt lat="43.2993" lon="6.44227">
        <ele>576</ele>
        <time>2019-09-07T16:57:37Z</time>
      </trkpt>
      <trkpt lat="43.2993" lon="6.44425">
        <ele>566</ele>
        <time>2019-09-07T16:58:02Z</time>
      </trkpt>
      <trkpt lat="43.29911" lon="6.44491">
        <ele>564</ele>
        <time>2019-09-07T16:58:12Z</time>
      </trkpt>
      <trkpt lat="43.29911" lon="6.44532">
        <ele>566</ele>
        <time>2019-09-07T16:58:17Z</time>
      </trkpt>
      <trkpt lat="43.29905" lon="6.44583">
        <ele>566</ele>
        <time>2019-09-07T16:58:24Z</time>
      </trkpt>
      <trkpt lat="43.29892" lon="6.44617">
        <ele>562</ele>
        <time>2019-09-07T16:58:29Z</time>
      </trkpt>
      <trkpt lat="43.29913" lon="6.44648">
        <ele>569</ele>
        <time>2019-09-07T16:58:34Z</time>
      </trkpt>
      <trkpt lat="43.29925" lon="6.44684">
        <ele>569</ele>
        <time>2019-09-07T16:58:39Z</time>
      </trkpt>
      <trkpt lat="43.29939" lon="6.44753">
        <ele>571</ele>
        <time>2019-09-07T16:58:48Z</time>
      </trkpt>
      <trkpt lat="43.2994" lon="6.4479">
        <ele>570</ele>
        <time>2019-09-07T16:58:53Z</time>
      </trkpt>
      <trkpt lat="43.29937" lon="6.44815">
        <ele>570</ele>
        <time>2019-09-07T16:58:57Z</time>
      </trkpt>
      <trkpt lat="43.29943" lon="6.44869">
        <ele>566</ele>
        <time>2019-09-07T16:59:04Z</time>
      </trkpt>
      <trkpt lat="43.29937" lon="6.44902">
        <ele>564</ele>
        <time>2019-09-07T16:59:08Z</time>
      </trkpt>
      <trkpt lat="43.29928" lon="6.44932">
        <ele>564</ele>
        <time>2019-09-07T16:59:12Z</time>
      </trkpt>
      <trkpt lat="43.29921" lon="6.44998">
        <ele>562</ele>
        <time>2019-09-07T16:59:21Z</time>
      </trkpt>
      <trkpt lat="43.29922" lon="6.45005">
        <ele>563</ele>
        <time>2019-09-07T16:59:22Z</time>
      </trkpt>
      <trkpt lat="43.29939" lon="6.4504">
        <ele>564</ele>
        <time>2019-09-07T16:59:27Z</time>
      </trkpt>
      <trkpt lat="43.29962" lon="6.45073">
        <ele>564</ele>
        <time>2019-09-07T16:59:33Z</time>
      </trkpt>
      <trkpt lat="43.29972" lon="6.45082">
        <ele>563</ele>
        <time>2019-09-07T16:59:35Z</time>
      </trkpt>
      <trkpt lat="43.29979" lon="6.45086">
        <ele>563</ele>
        <time>2019-09-07T16:59:37Z</time>
      </trkpt>
      <trkpt lat="43.29999" lon="6.45091">
        <ele>560</ele>
        <time>2019-09-07T16:59:40Z</time>
      </trkpt>
      <trkpt lat="43.3001" lon="6.45097">
        <ele>560</ele>
        <time>2019-09-07T16:59:42Z</time>
      </trkpt>
      <trkpt lat="43.30029" lon="6.45128">
        <ele>564</ele>
        <time>2019-09-07T16:59:48Z</time>
      </trkpt>
      <trkpt lat="43.30038" lon="6.45129">
        <ele>563</ele>
        <time>2019-09-07T16:59:49Z</time>
      </trkpt>
      <trkpt lat="43.30062" lon="6.45122">
        <ele>555</ele>
        <time>2019-09-07T16:59:54Z</time>
      </trkpt>
      <trkpt lat="43.3007" lon="6.45126">
        <ele>555</ele>
        <time>2019-09-07T16:59:55Z</time>
      </trkpt>
      <trkpt lat="43.30089" lon="6.45157">
        <ele>560</ele>
        <time>2019-09-07T17:00:00Z</time>
      </trkpt>
      <trkpt lat="43.30101" lon="6.45168">
        <ele>560</ele>
        <time>2019-09-07T17:00:03Z</time>
      </trkpt>
      <trkpt lat="43.30125" lon="6.45171">
        <ele>554</ele>
        <time>2019-09-07T17:00:07Z</time>
      </trkpt>
      <trkpt lat="43.30137" lon="6.45175">
        <ele>551</ele>
        <time>2019-09-07T17:00:09Z</time>
      </trkpt>
      <trkpt lat="43.30146" lon="6.45183">
        <ele>550</ele>
        <time>2019-09-07T17:00:11Z</time>
      </trkpt>
      <trkpt lat="43.30166" lon="6.45226">
        <ele>554</ele>
        <time>2019-09-07T17:00:18Z</time>
      </trkpt>
      <trkpt lat="43.30212" lon="6.45278">
        <ele>552</ele>
        <time>2019-09-07T17:00:28Z</time>
      </trkpt>
      <trkpt lat="43.30221" lon="6.45284">
        <ele>551</ele>
        <time>2019-09-07T17:00:30Z</time>
      </trkpt>
      <trkpt lat="43.30255" lon="6.45291">
        <ele>542</ele>
        <time>2019-09-07T17:00:36Z</time>
      </trkpt>
      <trkpt lat="43.30266" lon="6.45298">
        <ele>540</ele>
        <time>2019-09-07T17:00:39Z</time>
      </trkpt>
      <trkpt lat="43.30272" lon="6.45307">
        <ele>539</ele>
        <time>2019-09-07T17:00:40Z</time>
      </trkpt>
      <trkpt lat="43.30276" lon="6.4533">
        <ele>542</ele>
        <time>2019-09-07T17:00:43Z</time>
      </trkpt>
      <trkpt lat="43.30274" lon="6.45354">
        <ele>546</ele>
        <time>2019-09-07T17:00:46Z</time>
      </trkpt>
      <trkpt lat="43.30262" lon="6.45386">
        <ele>553</ele>
        <time>2019-09-07T17:00:51Z</time>
      </trkpt>
      <trkpt lat="43.30261" lon="6.45398">
        <ele>554</ele>
        <time>2019-09-07T17:00:53Z</time>
      </trkpt>
      <trkpt lat="43.30264" lon="6.45405">
        <ele>554</ele>
        <time>2019-09-07T17:00:54Z</time>
      </trkpt>
      <trkpt lat="43.30294" lon="6.45443">
        <ele>556</ele>
        <time>2019-09-07T17:01:01Z</time>
      </trkpt>
      <trkpt lat="43.30305" lon="6.45448">
        <ele>555</ele>
        <time>2019-09-07T17:01:03Z</time>
      </trkpt>
      <trkpt lat="43.30315" lon="6.45443">
        <ele>552</ele>
        <time>2019-09-07T17:01:05Z</time>
      </trkpt>
      <trkpt lat="43.30346" lon="6.45414">
        <ele>542</ele>
        <time>2019-09-07T17:01:11Z</time>
      </trkpt>
      <trkpt lat="43.30361" lon="6.45404">
        <ele>541</ele>
        <time>2019-09-07T17:01:14Z</time>
      </trkpt>
      <trkpt lat="43.30394" lon="6.45394">
        <ele>541</ele>
        <time>2019-09-07T17:01:20Z</time>
      </trkpt>
      <trkpt lat="43.30405" lon="6.45385">
        <ele>539</ele>
        <time>2019-09-07T17:01:23Z</time>
      </trkpt>
      <trkpt lat="43.30415" lon="6.45372">
        <ele>536</ele>
        <time>2019-09-07T17:01:25Z</time>
      </trkpt>
      <trkpt lat="43.30427" lon="6.4534">
        <ele>530</ele>
        <time>2019-09-07T17:01:30Z</time>
      </trkpt>
      <trkpt lat="43.30464" lon="6.45287">
        <ele>527</ele>
        <time>2019-09-07T17:01:39Z</time>
      </trkpt>
      <trkpt lat="43.30489" lon="6.45257">
        <ele>527</ele>
        <time>2019-09-07T17:01:45Z</time>
      </trkpt>
      <trkpt lat="43.30513" lon="6.45211">
        <ele>527</ele>
        <time>2019-09-07T17:01:53Z</time>
      </trkpt>
      <trkpt lat="43.30517" lon="6.452">
        <ele>526</ele>
        <time>2019-09-07T17:01:54Z</time>
      </trkpt>
      <trkpt lat="43.3052" lon="6.45159">
        <ele>521</ele>
        <time>2019-09-07T17:02:00Z</time>
      </trkpt>
      <trkpt lat="43.30524" lon="6.45151">
        <ele>520</ele>
        <time>2019-09-07T17:02:01Z</time>
      </trkpt>
      <trkpt lat="43.3059" lon="6.45083">
        <ele>521</ele>
        <time>2019-09-07T17:02:15Z</time>
      </trkpt>
      <trkpt lat="43.30619" lon="6.45033">
        <ele>510</ele>
        <time>2019-09-07T17:02:24Z</time>
      </trkpt>
      <trkpt lat="43.30625" lon="6.45029">
        <ele>510</ele>
        <time>2019-09-07T17:02:25Z</time>
      </trkpt>
      <trkpt lat="43.30644" lon="6.45028">
        <ele>510</ele>
        <time>2019-09-07T17:02:28Z</time>
      </trkpt>
      <trkpt lat="43.30698" lon="6.45032">
        <ele>514</ele>
        <time>2019-09-07T17:02:38Z</time>
      </trkpt>
      <trkpt lat="43.30703" lon="6.4503">
        <ele>514</ele>
        <time>2019-09-07T17:02:39Z</time>
      </trkpt>
      <trkpt lat="43.30725" lon="6.45007">
        <ele>509</ele>
        <time>2019-09-07T17:02:44Z</time>
      </trkpt>
      <trkpt lat="43.30739" lon="6.44997">
        <ele>507</ele>
        <time>2019-09-07T17:02:47Z</time>
      </trkpt>
      <trkpt lat="43.30768" lon="6.44983">
        <ele>503</ele>
        <time>2019-09-07T17:02:52Z</time>
      </trkpt>
      <trkpt lat="43.30792" lon="6.44976">
        <ele>502</ele>
        <time>2019-09-07T17:02:56Z</time>
      </trkpt>
      <trkpt lat="43.30812" lon="6.44977">
        <ele>503</ele>
        <time>2019-09-07T17:03:00Z</time>
      </trkpt>
      <trkpt lat="43.30821" lon="6.4498">
        <ele>503</ele>
        <time>2019-09-07T17:03:02Z</time>
      </trkpt>
      <trkpt lat="43.30828" lon="6.4499">
        <ele>505</ele>
        <time>2019-09-07T17:03:03Z</time>
      </trkpt>
      <trkpt lat="43.30832" lon="6.45022">
        <ele>506</ele>
        <time>2019-09-07T17:03:08Z</time>
      </trkpt>
      <trkpt lat="43.3083" lon="6.45037">
        <ele>506</ele>
        <time>2019-09-07T17:03:10Z</time>
      </trkpt>
      <trkpt lat="43.30835" lon="6.4503">
        <ele>505</ele>
        <time>2019-09-07T17:03:11Z</time>
      </trkpt>
      <trkpt lat="43.30839" lon="6.45015">
        <ele>505</ele>
        <time>2019-09-07T17:03:13Z</time>
      </trkpt>
      <trkpt lat="43.30838" lon="6.44989">
        <ele>504</ele>
        <time>2019-09-07T17:03:16Z</time>
      </trkpt>
      <trkpt lat="43.30834" lon="6.4498">
        <ele>504</ele>
        <time>2019-09-07T17:03:18Z</time>
      </trkpt>
      <trkpt lat="43.30838" lon="6.44989">
        <ele>504</ele>
        <time>2019-09-07T17:03:19Z</time>
      </trkpt>
      <trkpt lat="43.30839" lon="6.45015">
        <ele>505</ele>
        <time>2019-09-07T17:03:22Z</time>
      </trkpt>
      <trkpt lat="43.30835" lon="6.4503">
        <ele>505</ele>
        <time>2019-09-07T17:03:24Z</time>
      </trkpt>
      <trkpt lat="43.30787" lon="6.45112">
        <ele>516</ele>
        <time>2019-09-07T17:03:38Z</time>
      </trkpt>
      <trkpt lat="43.30783" lon="6.45125">
        <ele>517</ele>
        <time>2019-09-07T17:03:40Z</time>
      </trkpt>
      <trkpt lat="43.30778" lon="6.45182">
        <ele>516</ele>
        <time>2019-09-07T17:03:47Z</time>
      </trkpt>
      <trkpt lat="43.30773" lon="6.45205">
        <ele>516</ele>
        <time>2019-09-07T17:03:50Z</time>
      </trkpt>
      <trkpt lat="43.30766" lon="6.45262">
        <ele>512</ele>
        <time>2019-09-07T17:03:58Z</time>
      </trkpt>
      <trkpt lat="43.30758" lon="6.45273">
        <ele>513</ele>
        <time>2019-09-07T17:04:00Z</time>
      </trkpt>
      <trkpt lat="43.30737" lon="6.45284">
        <ele>519</ele>
        <time>2019-09-07T17:04:04Z</time>
      </trkpt>
      <trkpt lat="43.30727" lon="6.45293">
        <ele>520</ele>
        <time>2019-09-07T17:04:06Z</time>
      </trkpt>
      <trkpt lat="43.30714" lon="6.45318">
        <ele>521</ele>
        <time>2019-09-07T17:04:10Z</time>
      </trkpt>
      <trkpt lat="43.30705" lon="6.45347">
        <ele>520</ele>
        <time>2019-09-07T17:04:14Z</time>
      </trkpt>
      <trkpt lat="43.30682" lon="6.45388">
        <ele>523</ele>
        <time>2019-09-07T17:04:21Z</time>
      </trkpt>
      <trkpt lat="43.30676" lon="6.45461">
        <ele>516</ele>
        <time>2019-09-07T17:04:30Z</time>
      </trkpt>
      <trkpt lat="43.3067" lon="6.45485">
        <ele>516</ele>
        <time>2019-09-07T17:04:34Z</time>
      </trkpt>
      <trkpt lat="43.30641" lon="6.45544">
        <ele>519</ele>
        <time>2019-09-07T17:04:43Z</time>
      </trkpt>
      <trkpt lat="43.30606" lon="6.45636">
        <ele>523</ele>
        <time>2019-09-07T17:04:56Z</time>
      </trkpt>
      <trkpt lat="43.30593" lon="6.45691">
        <ele>521</ele>
        <time>2019-09-07T17:05:04Z</time>
      </trkpt>
      <trkpt lat="43.30576" lon="6.45736">
        <ele>521</ele>
        <time>2019-09-07T17:05:10Z</time>
      </trkpt>
      <trkpt lat="43.30561" lon="6.45802">
        <ele>515</ele>
        <time>2019-09-07T17:05:19Z</time>
      </trkpt>
      <trkpt lat="43.30555" lon="6.45808">
        <ele>516</ele>
        <time>2019-09-07T17:05:21Z</time>
      </trkpt>
      <trkpt lat="43.30534" lon="6.45815">
        <ele>521</ele>
        <time>2019-09-07T17:05:24Z</time>
      </trkpt>
      <trkpt lat="43.30516" lon="6.4583">
        <ele>523</ele>
        <time>2019-09-07T17:05:28Z</time>
      </trkpt>
      <trkpt lat="43.3051" lon="6.45839">
        <ele>524</ele>
        <time>2019-09-07T17:05:30Z</time>
      </trkpt>
      <trkpt lat="43.3051" lon="6.45852">
        <ele>524</ele>
        <time>2019-09-07T17:05:31Z</time>
      </trkpt>
      <trkpt lat="43.30513" lon="6.4586">
        <ele>523</ele>
        <time>2019-09-07T17:05:33Z</time>
      </trkpt>
      <trkpt lat="43.3053" lon="6.4589">
        <ele>517</ele>
        <time>2019-09-07T17:05:38Z</time>
      </trkpt>
      <trkpt lat="43.30537" lon="6.45914">
        <ele>513</ele>
        <time>2019-09-07T17:05:41Z</time>
      </trkpt>
      <trkpt lat="43.30539" lon="6.45934">
        <ele>512</ele>
        <time>2019-09-07T17:05:44Z</time>
      </trkpt>
      <trkpt lat="43.30537" lon="6.45952">
        <ele>513</ele>
        <time>2019-09-07T17:05:46Z</time>
      </trkpt>
      <trkpt lat="43.30525" lon="6.45982">
        <ele>517</ele>
        <time>2019-09-07T17:05:50Z</time>
      </trkpt>
      <trkpt lat="43.3052" lon="6.46039">
        <ele>521</ele>
        <time>2019-09-07T17:05:58Z</time>
      </trkpt>
      <trkpt lat="43.30541" lon="6.46043">
        <ele>517</ele>
        <time>2019-09-07T17:06:02Z</time>
      </trkpt>
      <trkpt lat="43.30571" lon="6.46041">
        <ele>510</ele>
        <time>2019-09-07T17:06:07Z</time>
      </trkpt>
      <trkpt lat="43.30583" lon="6.46044">
        <ele>508</ele>
        <time>2019-09-07T17:06:09Z</time>
      </trkpt>
      <trkpt lat="43.30626" lon="6.46081">
        <ele>507</ele>
        <time>2019-09-07T17:06:18Z</time>
      </trkpt>
      <trkpt lat="43.30642" lon="6.4612">
        <ele>512</ele>
        <time>2019-09-07T17:06:24Z</time>
      </trkpt>
      <trkpt lat="43.30647" lon="6.46125">
        <ele>513</ele>
        <time>2019-09-07T17:06:25Z</time>
      </trkpt>
      <trkpt lat="43.30654" lon="6.46128">
        <ele>512</ele>
        <time>2019-09-07T17:06:26Z</time>
      </trkpt>
      <trkpt lat="43.30673" lon="6.46126">
        <ele>508</ele>
        <time>2019-09-07T17:06:30Z</time>
      </trkpt>
      <trkpt lat="43.30686" lon="6.46121">
        <ele>504</ele>
        <time>2019-09-07T17:06:32Z</time>
      </trkpt>
      <trkpt lat="43.30694" lon="6.46121">
        <ele>503</ele>
        <time>2019-09-07T17:06:34Z</time>
      </trkpt>
      <trkpt lat="43.30699" lon="6.46124">
        <ele>502</ele>
        <time>2019-09-07T17:06:34Z</time>
      </trkpt>
      <trkpt lat="43.30705" lon="6.46135">
        <ele>503</ele>
        <time>2019-09-07T17:06:36Z</time>
      </trkpt>
      <trkpt lat="43.30728" lon="6.46216">
        <ele>507</ele>
        <time>2019-09-07T17:06:48Z</time>
      </trkpt>
      <trkpt lat="43.30741" lon="6.46241">
        <ele>507</ele>
        <time>2019-09-07T17:06:51Z</time>
      </trkpt>
      <trkpt lat="43.30781" lon="6.46302">
        <ele>501</ele>
        <time>2019-09-07T17:07:02Z</time>
      </trkpt>
      <trkpt lat="43.30816" lon="6.46339">
        <ele>497</ele>
        <time>2019-09-07T17:07:10Z</time>
      </trkpt>
      <trkpt lat="43.30839" lon="6.46368">
        <ele>493</ele>
        <time>2019-09-07T17:07:16Z</time>
      </trkpt>
      <trkpt lat="43.30868" lon="6.46362">
        <ele>489</ele>
        <time>2019-09-07T17:07:21Z</time>
      </trkpt>
      <trkpt lat="43.30878" lon="6.46365">
        <ele>489</ele>
        <time>2019-09-07T17:07:23Z</time>
      </trkpt>
      <trkpt lat="43.30937" lon="6.46415">
        <ele>491</ele>
        <time>2019-09-07T17:07:35Z</time>
      </trkpt>
      <trkpt lat="43.30959" lon="6.4644">
        <ele>490</ele>
        <time>2019-09-07T17:07:40Z</time>
      </trkpt>
      <trkpt lat="43.30976" lon="6.46446">
        <ele>489</ele>
        <time>2019-09-07T17:07:43Z</time>
      </trkpt>
      <trkpt lat="43.30988" lon="6.46446">
        <ele>489</ele>
        <time>2019-09-07T17:07:45Z</time>
      </trkpt>
      <trkpt lat="43.31005" lon="6.4644">
        <ele>486</ele>
        <time>2019-09-07T17:07:48Z</time>
      </trkpt>
      <trkpt lat="43.31016" lon="6.46444">
        <ele>485</ele>
        <time>2019-09-07T17:07:50Z</time>
      </trkpt>
      <trkpt lat="43.31056" lon="6.46484">
        <ele>488</ele>
        <time>2019-09-07T17:07:59Z</time>
      </trkpt>
      <trkpt lat="43.31074" lon="6.46492">
        <ele>487</ele>
        <time>2019-09-07T17:08:03Z</time>
      </trkpt>
      <trkpt lat="43.31097" lon="6.46494">
        <ele>486</ele>
        <time>2019-09-07T17:08:07Z</time>
      </trkpt>
      <trkpt lat="43.3112" lon="6.4649">
        <ele>487</ele>
        <time>2019-09-07T17:08:11Z</time>
      </trkpt>
      <trkpt lat="43.31145" lon="6.46478">
        <ele>486</ele>
        <time>2019-09-07T17:08:15Z</time>
      </trkpt>
      <trkpt lat="43.31206" lon="6.46389">
        <ele>476</ele>
        <time>2019-09-07T17:08:31Z</time>
      </trkpt>
      <trkpt lat="43.31214" lon="6.46364">
        <ele>471</ele>
        <time>2019-09-07T17:08:35Z</time>
      </trkpt>
      <trkpt lat="43.31216" lon="6.46325">
        <ele>462</ele>
        <time>2019-09-07T17:08:40Z</time>
      </trkpt>
      <trkpt lat="43.31218" lon="6.46322">
        <ele>462</ele>
        <time>2019-09-07T17:08:40Z</time>
      </trkpt>
      <trkpt lat="43.31241" lon="6.46311">
        <ele>462</ele>
        <time>2019-09-07T17:08:45Z</time>
      </trkpt>
      <trkpt lat="43.31255" lon="6.46314">
        <ele>463</ele>
        <time>2019-09-07T17:08:47Z</time>
      </trkpt>
      <trkpt lat="43.31327" lon="6.46371">
        <ele>466</ele>
        <time>2019-09-07T17:09:02Z</time>
      </trkpt>
      <trkpt lat="43.31343" lon="6.46382">
        <ele>467</ele>
        <time>2019-09-07T17:09:05Z</time>
      </trkpt>
      <trkpt lat="43.31356" lon="6.46387">
        <ele>467</ele>
        <time>2019-09-07T17:09:08Z</time>
      </trkpt>
      <trkpt lat="43.3137" lon="6.46382">
        <ele>465</ele>
        <time>2019-09-07T17:09:10Z</time>
      </trkpt>
      <trkpt lat="43.31391" lon="6.46362">
        <ele>458</ele>
        <time>2019-09-07T17:09:15Z</time>
      </trkpt>
      <trkpt lat="43.31401" lon="6.46359">
        <ele>456</ele>
        <time>2019-09-07T17:09:17Z</time>
      </trkpt>
      <trkpt lat="43.31427" lon="6.46357">
        <ele>454</ele>
        <time>2019-09-07T17:09:21Z</time>
      </trkpt>
      <trkpt lat="43.31456" lon="6.46336">
        <ele>449</ele>
        <time>2019-09-07T17:09:27Z</time>
      </trkpt>
      <trkpt lat="43.31466" lon="6.46332">
        <ele>448</ele>
        <time>2019-09-07T17:09:29Z</time>
      </trkpt>
      <trkpt lat="43.3151" lon="6.46325">
        <ele>445</ele>
        <time>2019-09-07T17:09:37Z</time>
      </trkpt>
      <trkpt lat="43.31529" lon="6.46318">
        <ele>439</ele>
        <time>2019-09-07T17:09:40Z</time>
      </trkpt>
      <trkpt lat="43.3154" lon="6.46318">
        <ele>438</ele>
        <time>2019-09-07T17:09:42Z</time>
      </trkpt>
      <trkpt lat="43.31547" lon="6.46322">
        <ele>438</ele>
        <time>2019-09-07T17:09:44Z</time>
      </trkpt>
      <trkpt lat="43.31589" lon="6.46409">
        <ele>446</ele>
        <time>2019-09-07T17:09:57Z</time>
      </trkpt>
      <trkpt lat="43.31634" lon="6.46491">
        <ele>438</ele>
        <time>2019-09-07T17:10:10Z</time>
      </trkpt>
      <trkpt lat="43.31636" lon="6.465">
        <ele>439</ele>
        <time>2019-09-07T17:10:12Z</time>
      </trkpt>
      <trkpt lat="43.31635" lon="6.46514">
        <ele>436</ele>
        <time>2019-09-07T17:10:13Z</time>
      </trkpt>
      <trkpt lat="43.31628" lon="6.46525">
        <ele>435</ele>
        <time>2019-09-07T17:10:15Z</time>
      </trkpt>
      <trkpt lat="43.31604" lon="6.46545">
        <ele>436</ele>
        <time>2019-09-07T17:10:20Z</time>
      </trkpt>
      <trkpt lat="43.31576" lon="6.46558">
        <ele>440</ele>
        <time>2019-09-07T17:10:26Z</time>
      </trkpt>
      <trkpt lat="43.31558" lon="6.46603">
        <ele>436</ele>
        <time>2019-09-07T17:10:32Z</time>
      </trkpt>
      <trkpt lat="43.31525" lon="6.4665">
        <ele>433</ele>
        <time>2019-09-07T17:10:41Z</time>
      </trkpt>
      <trkpt lat="43.3149" lon="6.46664">
        <ele>437</ele>
        <time>2019-09-07T17:10:47Z</time>
      </trkpt>
      <trkpt lat="43.31459" lon="6.46683">
        <ele>436</ele>
        <time>2019-09-07T17:10:53Z</time>
      </trkpt>
      <trkpt lat="43.31431" lon="6.46709">
        <ele>433</ele>
        <time>2019-09-07T17:10:59Z</time>
      </trkpt>
      <trkpt lat="43.31412" lon="6.46714">
        <ele>434</ele>
        <time>2019-09-07T17:11:03Z</time>
      </trkpt>
      <trkpt lat="43.31403" lon="6.46721">
        <ele>434</ele>
        <time>2019-09-07T17:11:05Z</time>
      </trkpt>
      <trkpt lat="43.31355" lon="6.46774">
        <ele>427</ele>
        <time>2019-09-07T17:11:15Z</time>
      </trkpt>
      <trkpt lat="43.31321" lon="6.46802">
        <ele>422</ele>
        <time>2019-09-07T17:11:23Z</time>
      </trkpt>
      <trkpt lat="43.31328" lon="6.46802">
        <ele>421</ele>
        <time>2019-09-07T17:11:24Z</time>
      </trkpt>
      <trkpt lat="43.31364" lon="6.46789">
        <ele>420</ele>
        <time>2019-09-07T17:11:30Z</time>
      </trkpt>
      <trkpt lat="43.31425" lon="6.46774">
        <ele>414</ele>
        <time>2019-09-07T17:11:41Z</time>
      </trkpt>
      <trkpt lat="43.31434" lon="6.46778">
        <ele>412</ele>
        <time>2019-09-07T17:11:43Z</time>
      </trkpt>
      <trkpt lat="43.31436" lon="6.46784">
        <ele>410</ele>
        <time>2019-09-07T17:11:44Z</time>
      </trkpt>
      <trkpt lat="43.31433" lon="6.46795">
        <ele>407</ele>
        <time>2019-09-07T17:11:45Z</time>
      </trkpt>
      <trkpt lat="43.31401" lon="6.46811">
        <ele>407</ele>
        <time>2019-09-07T17:11:52Z</time>
      </trkpt>
      <trkpt lat="43.31389" lon="6.46821">
        <ele>406</ele>
        <time>2019-09-07T17:11:54Z</time>
      </trkpt>
      <trkpt lat="43.31369" lon="6.46852">
        <ele>401</ele>
        <time>2019-09-07T17:11:59Z</time>
      </trkpt>
      <trkpt lat="43.3135" lon="6.46867">
        <ele>400</ele>
        <time>2019-09-07T17:12:03Z</time>
      </trkpt>
      <trkpt lat="43.31346" lon="6.46877">
        <ele>398</ele>
        <time>2019-09-07T17:12:05Z</time>
      </trkpt>
      <trkpt lat="43.31347" lon="6.46884">
        <ele>396</ele>
        <time>2019-09-07T17:12:06Z</time>
      </trkpt>
      <trkpt lat="43.31369" lon="6.46873">
        <ele>396</ele>
        <time>2019-09-07T17:12:10Z</time>
      </trkpt>
      <trkpt lat="43.31389" lon="6.46869">
        <ele>395</ele>
        <time>2019-09-07T17:12:13Z</time>
      </trkpt>
      <trkpt lat="43.31452" lon="6.46887">
        <ele>385</ele>
        <time>2019-09-07T17:12:25Z</time>
      </trkpt>
      <trkpt lat="43.31482" lon="6.46893">
        <ele>380</ele>
        <time>2019-09-07T17:12:30Z</time>
      </trkpt>
      <trkpt lat="43.31497" lon="6.46893">
        <ele>379</ele>
        <time>2019-09-07T17:12:33Z</time>
      </trkpt>
      <trkpt lat="43.31493" lon="6.46942">
        <ele>371</ele>
        <time>2019-09-07T17:12:39Z</time>
      </trkpt>
      <trkpt lat="43.31484" lon="6.4698">
        <ele>366</ele>
        <time>2019-09-07T17:12:45Z</time>
      </trkpt>
      <trkpt lat="43.31472" lon="6.47015">
        <ele>362</ele>
        <time>2019-09-07T17:12:50Z</time>
      </trkpt>
      <trkpt lat="43.31473" lon="6.47044">
        <ele>359</ele>
        <time>2019-09-07T17:12:53Z</time>
      </trkpt>
      <trkpt lat="43.31452" lon="6.47084">
        <ele>355</ele>
        <time>2019-09-07T17:13:00Z</time>
      </trkpt>
      <trkpt lat="43.3145" lon="6.47098">
        <ele>354</ele>
        <time>2019-09-07T17:13:02Z</time>
      </trkpt>
      <trkpt lat="43.31451" lon="6.47115">
        <ele>352</ele>
        <time>2019-09-07T17:13:04Z</time>
      </trkpt>
      <trkpt lat="43.31502" lon="6.471">
        <ele>351</ele>
        <time>2019-09-07T17:13:13Z</time>
      </trkpt>
      <trkpt lat="43.3132" lon="6.4715">
        <ele>352</ele>
        <time>2019-09-07T17:13:46Z</time>
      </trkpt>
      <trkpt lat="43.31311" lon="6.47148">
        <ele>351</ele>
        <time>2019-09-07T17:13:48Z</time>
      </trkpt>
      <trkpt lat="43.3124" lon="6.4711">
        <ele>349</ele>
        <time>2019-09-07T17:14:01Z</time>
      </trkpt>
      <trkpt lat="43.3124" lon="6.471">
        <ele>350</ele>
        <time>2019-09-07T17:14:03Z</time>
      </trkpt>
      <trkpt lat="43.31234" lon="6.47094">
        <ele>349</ele>
        <time>2019-09-07T17:14:04Z</time>
      </trkpt>
      <trkpt lat="43.31165" lon="6.47045">
        <ele>351</ele>
        <time>2019-09-07T17:14:18Z</time>
      </trkpt>
      <trkpt lat="43.31126" lon="6.47011">
        <ele>356</ele>
        <time>2019-09-07T17:14:26Z</time>
      </trkpt>
      <trkpt lat="43.31105" lon="6.46998">
        <ele>357</ele>
        <time>2019-09-07T17:14:30Z</time>
      </trkpt>
      <trkpt lat="43.31104" lon="6.46993">
        <ele>358</ele>
        <time>2019-09-07T17:14:31Z</time>
      </trkpt>
      <trkpt lat="43.31092" lon="6.46985">
        <ele>360</ele>
        <time>2019-09-07T17:14:33Z</time>
      </trkpt>
      <trkpt lat="43.31104" lon="6.46993">
        <ele>358</ele>
        <time>2019-09-07T17:14:35Z</time>
      </trkpt>
      <trkpt lat="43.31105" lon="6.46998">
        <ele>357</ele>
        <time>2019-09-07T17:14:36Z</time>
      </trkpt>
      <trkpt lat="43.30997" lon="6.46964">
        <ele>357</ele>
        <time>2019-09-07T17:14:56Z</time>
      </trkpt>
      <trkpt lat="43.30985" lon="6.46962">
        <ele>356</ele>
        <time>2019-09-07T17:14:58Z</time>
      </trkpt>
      <trkpt lat="43.30947" lon="6.46962">
        <ele>350</ele>
        <time>2019-09-07T17:15:05Z</time>
      </trkpt>
      <trkpt lat="43.30917" lon="6.46948">
        <ele>349</ele>
        <time>2019-09-07T17:15:10Z</time>
      </trkpt>
      <trkpt lat="43.30904" lon="6.46936">
        <ele>349</ele>
        <time>2019-09-07T17:15:13Z</time>
      </trkpt>
      <trkpt lat="43.30883" lon="6.46909">
        <ele>350</ele>
        <time>2019-09-07T17:15:18Z</time>
      </trkpt>
      <trkpt lat="43.3083" lon="6.46804">
        <ele>360</ele>
        <time>2019-09-07T17:15:35Z</time>
      </trkpt>
      <trkpt lat="43.30773" lon="6.4674">
        <ele>363</ele>
        <time>2019-09-07T17:15:48Z</time>
      </trkpt>
      <trkpt lat="43.30778" lon="6.46737">
        <ele>365</ele>
        <time>2019-09-07T17:15:49Z</time>
      </trkpt>
      <trkpt lat="43.30773" lon="6.4674">
        <ele>363</ele>
        <time>2019-09-07T17:15:50Z</time>
      </trkpt>
      <trkpt lat="43.30771" lon="6.46737">
        <ele>363</ele>
        <time>2019-09-07T17:15:50Z</time>
      </trkpt>
      <trkpt lat="43.30744" lon="6.46728">
        <ele>361</ele>
        <time>2019-09-07T17:15:55Z</time>
      </trkpt>
      <trkpt lat="43.30718" lon="6.46714">
        <ele>363</ele>
        <time>2019-09-07T17:16:00Z</time>
      </trkpt>
      <trkpt lat="43.3071" lon="6.46704">
        <ele>366</ele>
        <time>2019-09-07T17:16:02Z</time>
      </trkpt>
      <trkpt lat="43.30698" lon="6.46695">
        <ele>368</ele>
        <time>2019-09-07T17:16:05Z</time>
      </trkpt>
      <trkpt lat="43.30684" lon="6.46693">
        <ele>367</ele>
        <time>2019-09-07T17:16:07Z</time>
      </trkpt>
      <trkpt lat="43.30662" lon="6.46684">
        <ele>368</ele>
        <time>2019-09-07T17:16:11Z</time>
      </trkpt>
      <trkpt lat="43.3065" lon="6.46684">
        <ele>370</ele>
        <time>2019-09-07T17:16:13Z</time>
      </trkpt>
      <trkpt lat="43.30635" lon="6.46691">
        <ele>370</ele>
        <time>2019-09-07T17:16:16Z</time>
      </trkpt>
      <trkpt lat="43.30611" lon="6.46708">
        <ele>368</ele>
        <time>2019-09-07T17:16:21Z</time>
      </trkpt>
      <trkpt lat="43.30588" lon="6.46733">
        <ele>364</ele>
        <time>2019-09-07T17:16:26Z</time>
      </trkpt>
      <trkpt lat="43.3058" lon="6.46735">
        <ele>364</ele>
        <time>2019-09-07T17:16:28Z</time>
      </trkpt>
      <trkpt lat="43.30491" lon="6.46711">
        <ele>377</ele>
        <time>2019-09-07T17:16:44Z</time>
      </trkpt>
      <trkpt lat="43.30455" lon="6.46707">
        <ele>379</ele>
        <time>2019-09-07T17:16:50Z</time>
      </trkpt>
      <trkpt lat="43.30427" lon="6.46699">
        <ele>382</ele>
        <time>2019-09-07T17:16:55Z</time>
      </trkpt>
      <trkpt lat="43.30302" lon="6.46752">
        <ele>379</ele>
        <time>2019-09-07T17:17:19Z</time>
      </trkpt>
      <trkpt lat="43.30292" lon="6.46751">
        <ele>379</ele>
        <time>2019-09-07T17:17:20Z</time>
      </trkpt>
      <trkpt lat="43.30281" lon="6.46746">
        <ele>381</ele>
        <time>2019-09-07T17:17:22Z</time>
      </trkpt>
      <trkpt lat="43.30228" lon="6.46711">
        <ele>394</ele>
        <time>2019-09-07T17:17:33Z</time>
      </trkpt>
      <trkpt lat="43.30215" lon="6.46711">
        <ele>396</ele>
        <time>2019-09-07T17:17:35Z</time>
      </trkpt>
      <trkpt lat="43.30185" lon="6.46738">
        <ele>391</ele>
        <time>2019-09-07T17:17:42Z</time>
      </trkpt>
      <trkpt lat="43.30179" lon="6.46741">
        <ele>391</ele>
        <time>2019-09-07T17:17:43Z</time>
      </trkpt>
      <trkpt lat="43.30145" lon="6.46734">
        <ele>399</ele>
        <time>2019-09-07T17:17:49Z</time>
      </trkpt>
      <trkpt lat="43.30111" lon="6.46755">
        <ele>402</ele>
        <time>2019-09-07T17:17:55Z</time>
      </trkpt>
      <trkpt lat="43.30102" lon="6.46765">
        <ele>404</ele>
        <time>2019-09-07T17:17:58Z</time>
      </trkpt>
      <trkpt lat="43.30095" lon="6.4678">
        <ele>404</ele>
        <time>2019-09-07T17:18:00Z</time>
      </trkpt>
      <trkpt lat="43.30073" lon="6.46852">
        <ele>404</ele>
        <time>2019-09-07T17:18:10Z</time>
      </trkpt>
      <trkpt lat="43.30066" lon="6.46864">
        <ele>404</ele>
        <time>2019-09-07T17:18:12Z</time>
      </trkpt>
      <trkpt lat="43.30057" lon="6.46871">
        <ele>405</ele>
        <time>2019-09-07T17:18:14Z</time>
      </trkpt>
      <trkpt lat="43.30046" lon="6.46872">
        <ele>405</ele>
        <time>2019-09-07T17:18:16Z</time>
      </trkpt>
      <trkpt lat="43.3" lon="6.46855">
        <ele>410</ele>
        <time>2019-09-07T17:18:24Z</time>
      </trkpt>
      <trkpt lat="43.2998" lon="6.46835">
        <ele>407</ele>
        <time>2019-09-07T17:18:29Z</time>
      </trkpt>
      <trkpt lat="43.29972" lon="6.46821">
        <ele>406</ele>
        <time>2019-09-07T17:18:31Z</time>
      </trkpt>
      <trkpt lat="43.29962" lon="6.46788">
        <ele>406</ele>
        <time>2019-09-07T17:18:36Z</time>
      </trkpt>
      <trkpt lat="43.29955" lon="6.46746">
        <ele>407</ele>
        <time>2019-09-07T17:18:41Z</time>
      </trkpt>
      <trkpt lat="43.29958" lon="6.46712">
        <ele>411</ele>
        <time>2019-09-07T17:18:46Z</time>
      </trkpt>
      <trkpt lat="43.29958" lon="6.46691">
        <ele>413</ele>
        <time>2019-09-07T17:18:48Z</time>
      </trkpt>
      <trkpt lat="43.29954" lon="6.46691">
        <ele>412</ele>
        <time>2019-09-07T17:18:49Z</time>
      </trkpt>
      <trkpt lat="43.29958" lon="6.46691">
        <ele>413</ele>
        <time>2019-09-07T17:18:50Z</time>
      </trkpt>
      <trkpt lat="43.29956" lon="6.46678">
        <ele>414</ele>
        <time>2019-09-07T17:18:51Z</time>
      </trkpt>
      <trkpt lat="43.29907" lon="6.4659">
        <ele>416</ele>
        <time>2019-09-07T17:19:06Z</time>
      </trkpt>
      <trkpt lat="43.29877" lon="6.46542">
        <ele>417</ele>
        <time>2019-09-07T17:19:14Z</time>
      </trkpt>
      <trkpt lat="43.29862" lon="6.46526">
        <ele>415</ele>
        <time>2019-09-07T17:19:17Z</time>
      </trkpt>
      <trkpt lat="43.29842" lon="6.46496">
        <ele>414</ele>
        <time>2019-09-07T17:19:23Z</time>
      </trkpt>
      <trkpt lat="43.29822" lon="6.46455">
        <ele>412</ele>
        <time>2019-09-07T17:19:29Z</time>
      </trkpt>
      <trkpt lat="43.29816" lon="6.46431">
        <ele>413</ele>
        <time>2019-09-07T17:19:32Z</time>
      </trkpt>
      <trkpt lat="43.29813" lon="6.46382">
        <ele>416</ele>
        <time>2019-09-07T17:19:39Z</time>
      </trkpt>
      <trkpt lat="43.29833" lon="6.46329">
        <ele>426</ele>
        <time>2019-09-07T17:19:46Z</time>
      </trkpt>
      <trkpt lat="43.29842" lon="6.46308">
        <ele>429</ele>
        <time>2019-09-07T17:19:50Z</time>
      </trkpt>
      <trkpt lat="43.29869" lon="6.46267">
        <ele>437</ele>
        <time>2019-09-07T17:19:57Z</time>
      </trkpt>
      <trkpt lat="43.29884" lon="6.46255">
        <ele>441</ele>
        <time>2019-09-07T17:20:00Z</time>
      </trkpt>
      <trkpt lat="43.29906" lon="6.46242">
        <ele>449</ele>
        <time>2019-09-07T17:20:04Z</time>
      </trkpt>
      <trkpt lat="43.2991" lon="6.46228">
        <ele>452</ele>
        <time>2019-09-07T17:20:06Z</time>
      </trkpt>
      <trkpt lat="43.29906" lon="6.46217">
        <ele>453</ele>
        <time>2019-09-07T17:20:08Z</time>
      </trkpt>
      <trkpt lat="43.2988" lon="6.46182">
        <ele>452</ele>
        <time>2019-09-07T17:20:14Z</time>
      </trkpt>
      <trkpt lat="43.29874" lon="6.46158">
        <ele>457</ele>
        <time>2019-09-07T17:20:17Z</time>
      </trkpt>
      <trkpt lat="43.29868" lon="6.46153">
        <ele>457</ele>
        <time>2019-09-07T17:20:19Z</time>
      </trkpt>
      <trkpt lat="43.29849" lon="6.46149">
        <ele>453</ele>
        <time>2019-09-07T17:20:22Z</time>
      </trkpt>
      <trkpt lat="43.2984" lon="6.46144">
        <ele>453</ele>
        <time>2019-09-07T17:20:24Z</time>
      </trkpt>
      <trkpt lat="43.29827" lon="6.46126">
        <ele>457</ele>
        <time>2019-09-07T17:20:27Z</time>
      </trkpt>
      <trkpt lat="43.29816" lon="6.46116">
        <ele>462</ele>
        <time>2019-09-07T17:20:29Z</time>
      </trkpt>
      <trkpt lat="43.29809" lon="6.46116">
        <ele>462</ele>
        <time>2019-09-07T17:20:31Z</time>
      </trkpt>
      <trkpt lat="43.29806" lon="6.46119">
        <ele>462</ele>
        <time>2019-09-07T17:20:31Z</time>
      </trkpt>
      <trkpt lat="43.29787" lon="6.46147">
        <ele>455</ele>
        <time>2019-09-07T17:20:36Z</time>
      </trkpt>
      <trkpt lat="43.29776" lon="6.46154">
        <ele>455</ele>
        <time>2019-09-07T17:20:38Z</time>
      </trkpt>
      <trkpt lat="43.29745" lon="6.46167">
        <ele>453</ele>
        <time>2019-09-07T17:20:44Z</time>
      </trkpt>
      <trkpt lat="43.29727" lon="6.4617">
        <ele>449</ele>
        <time>2019-09-07T17:20:47Z</time>
      </trkpt>
      <trkpt lat="43.2972" lon="6.46169">
        <ele>448</ele>
        <time>2019-09-07T17:20:49Z</time>
      </trkpt>
      <trkpt lat="43.29708" lon="6.46159">
        <ele>449</ele>
        <time>2019-09-07T17:20:51Z</time>
      </trkpt>
      <trkpt lat="43.29698" lon="6.46138">
        <ele>453</ele>
        <time>2019-09-07T17:20:54Z</time>
      </trkpt>
      <trkpt lat="43.29691" lon="6.46101">
        <ele>461</ele>
        <time>2019-09-07T17:20:59Z</time>
      </trkpt>
      <trkpt lat="43.29689" lon="6.46059">
        <ele>468</ele>
        <time>2019-09-07T17:21:05Z</time>
      </trkpt>
      <trkpt lat="43.29695" lon="6.4601">
        <ele>475</ele>
        <time>2019-09-07T17:21:11Z</time>
      </trkpt>
      <trkpt lat="43.29695" lon="6.45977">
        <ele>480</ele>
        <time>2019-09-07T17:21:15Z</time>
      </trkpt>
      <trkpt lat="43.29684" lon="6.45907">
        <ele>485</ele>
        <time>2019-09-07T17:21:25Z</time>
      </trkpt>
      <trkpt lat="43.29686" lon="6.45878">
        <ele>489</ele>
        <time>2019-09-07T17:21:29Z</time>
      </trkpt>
      <trkpt lat="43.29691" lon="6.45852">
        <ele>493</ele>
        <time>2019-09-07T17:21:32Z</time>
      </trkpt>
      <trkpt lat="43.29698" lon="6.45849">
        <ele>495</ele>
        <time>2019-09-07T17:21:33Z</time>
      </trkpt>
      <trkpt lat="43.29709" lon="6.45831">
        <ele>501</ele>
        <time>2019-09-07T17:21:36Z</time>
      </trkpt>
      <trkpt lat="43.29712" lon="6.45819">
        <ele>503</ele>
        <time>2019-09-07T17:21:38Z</time>
      </trkpt>
      <trkpt lat="43.29714" lon="6.45807">
        <ele>506</ele>
        <time>2019-09-07T17:21:40Z</time>
      </trkpt>
      <trkpt lat="43.29712" lon="6.45791">
        <ele>508</ele>
        <time>2019-09-07T17:21:42Z</time>
      </trkpt>
      <trkpt lat="43.29686" lon="6.45787">
        <ele>503</ele>
        <time>2019-09-07T17:21:46Z</time>
      </trkpt>
      <trkpt lat="43.29658" lon="6.45768">
        <ele>502</ele>
        <time>2019-09-07T17:21:52Z</time>
      </trkpt>
      <trkpt lat="43.29619" lon="6.45753">
        <ele>505</ele>
        <time>2019-09-07T17:21:59Z</time>
      </trkpt>
      <trkpt lat="43.29596" lon="6.45734">
        <ele>508</ele>
        <time>2019-09-07T17:22:04Z</time>
      </trkpt>
      <trkpt lat="43.29581" lon="6.45716">
        <ele>510</ele>
        <time>2019-09-07T17:22:07Z</time>
      </trkpt>
      <trkpt lat="43.29558" lon="6.45676">
        <ele>516</ele>
        <time>2019-09-07T17:22:14Z</time>
      </trkpt>
      <trkpt lat="43.29553" lon="6.45654">
        <ele>517</ele>
        <time>2019-09-07T17:22:17Z</time>
      </trkpt>
      <trkpt lat="43.29549" lon="6.45607">
        <ele>517</ele>
        <time>2019-09-07T17:22:23Z</time>
      </trkpt>
      <trkpt lat="43.29539" lon="6.45564">
        <ele>514</ele>
        <time>2019-09-07T17:22:29Z</time>
      </trkpt>
      <trkpt lat="43.29531" lon="6.45544">
        <ele>512</ele>
        <time>2019-09-07T17:22:32Z</time>
      </trkpt>
      <trkpt lat="43.29514" lon="6.45519">
        <ele>508</ele>
        <time>2019-09-07T17:22:36Z</time>
      </trkpt>
      <trkpt lat="43.29453" lon="6.45456">
        <ele>502</ele>
        <time>2019-09-07T17:22:50Z</time>
      </trkpt>
      <trkpt lat="43.2944" lon="6.45439">
        <ele>501</ele>
        <time>2019-09-07T17:22:53Z</time>
      </trkpt>
      <trkpt lat="43.29447" lon="6.45434">
        <ele>500</ele>
        <time>2019-09-07T17:22:55Z</time>
      </trkpt>
      <trkpt lat="43.2947" lon="6.45443">
        <ele>500</ele>
        <time>2019-09-07T17:22:59Z</time>
      </trkpt>
      <trkpt lat="43.29509" lon="6.45447">
        <ele>499</ele>
        <time>2019-09-07T17:23:06Z</time>
      </trkpt>
      <trkpt lat="43.29533" lon="6.45466">
        <ele>502</ele>
        <time>2019-09-07T17:23:11Z</time>
      </trkpt>
      <trkpt lat="43.29537" lon="6.45465">
        <ele>502</ele>
        <time>2019-09-07T17:23:11Z</time>
      </trkpt>
      <trkpt lat="43.29547" lon="6.45443">
        <ele>500</ele>
        <time>2019-09-07T17:23:15Z</time>
      </trkpt>
      <trkpt lat="43.2957" lon="6.45406">
        <ele>494</ele>
        <time>2019-09-07T17:23:21Z</time>
      </trkpt>
      <trkpt lat="43.29616" lon="6.45354">
        <ele>489</ele>
        <time>2019-09-07T17:23:32Z</time>
      </trkpt>
      <trkpt lat="43.29645" lon="6.45332">
        <ele>489</ele>
        <time>2019-09-07T17:23:38Z</time>
      </trkpt>
      <trkpt lat="43.29659" lon="6.45312">
        <ele>490</ele>
        <time>2019-09-07T17:23:41Z</time>
      </trkpt>
      <trkpt lat="43.29668" lon="6.45285">
        <ele>489</ele>
        <time>2019-09-07T17:23:45Z</time>
      </trkpt>
      <trkpt lat="43.29669" lon="6.45271">
        <ele>489</ele>
        <time>2019-09-07T17:23:47Z</time>
      </trkpt>
      <trkpt lat="43.29665" lon="6.45263">
        <ele>487</ele>
        <time>2019-09-07T17:23:48Z</time>
      </trkpt>
      <trkpt lat="43.29661" lon="6.45241">
        <ele>484</ele>
        <time>2019-09-07T17:23:51Z</time>
      </trkpt>
      <trkpt lat="43.29645" lon="6.45192">
        <ele>479</ele>
        <time>2019-09-07T17:23:58Z</time>
      </trkpt>
      <trkpt lat="43.29645" lon="6.4515">
        <ele>477</ele>
        <time>2019-09-07T17:24:03Z</time>
      </trkpt>
      <trkpt lat="43.29648" lon="6.45136">
        <ele>477</ele>
        <time>2019-09-07T17:24:05Z</time>
      </trkpt>
      <trkpt lat="43.29645" lon="6.45085">
        <ele>473</ele>
        <time>2019-09-07T17:24:12Z</time>
      </trkpt>
      <trkpt lat="43.29646" lon="6.45036">
        <ele>468</ele>
        <time>2019-09-07T17:24:18Z</time>
      </trkpt>
      <trkpt lat="43.29651" lon="6.44998">
        <ele>465</ele>
        <time>2019-09-07T17:24:23Z</time>
      </trkpt>
      <trkpt lat="43.29659" lon="6.44973">
        <ele>465</ele>
        <time>2019-09-07T17:24:27Z</time>
      </trkpt>
      <trkpt lat="43.29669" lon="6.44956">
        <ele>466</ele>
        <time>2019-09-07T17:24:30Z</time>
      </trkpt>
      <trkpt lat="43.29691" lon="6.44932">
        <ele>471</ele>
        <time>2019-09-07T17:24:35Z</time>
      </trkpt>
      <trkpt lat="43.29694" lon="6.44923">
        <ele>471</ele>
        <time>2019-09-07T17:24:36Z</time>
      </trkpt>
      <trkpt lat="43.29683" lon="6.44859">
        <ele>465</ele>
        <time>2019-09-07T17:24:44Z</time>
      </trkpt>
      <trkpt lat="43.29664" lon="6.44797">
        <ele>458</ele>
        <time>2019-09-07T17:24:53Z</time>
      </trkpt>
      <trkpt lat="43.2965" lon="6.44776">
        <ele>456</ele>
        <time>2019-09-07T17:24:57Z</time>
      </trkpt>
      <trkpt lat="43.29643" lon="6.44761">
        <ele>454</ele>
        <time>2019-09-07T17:24:59Z</time>
      </trkpt>
      <trkpt lat="43.29633" lon="6.44751">
        <ele>452</ele>
        <time>2019-09-07T17:25:01Z</time>
      </trkpt>
      <trkpt lat="43.29629" lon="6.44721">
        <ele>451</ele>
        <time>2019-09-07T17:25:05Z</time>
      </trkpt>
      <trkpt lat="43.29629" lon="6.44686">
        <ele>452</ele>
        <time>2019-09-07T17:25:10Z</time>
      </trkpt>
      <trkpt lat="43.29632" lon="6.44677">
        <ele>453</ele>
        <time>2019-09-07T17:25:11Z</time>
      </trkpt>
      <trkpt lat="43.29614" lon="6.44628">
        <ele>446</ele>
        <time>2019-09-07T17:25:18Z</time>
      </trkpt>
      <trkpt lat="43.29615" lon="6.44617">
        <ele>446</ele>
        <time>2019-09-07T17:25:20Z</time>
      </trkpt>
      <trkpt lat="43.29625" lon="6.44584">
        <ele>447</ele>
        <time>2019-09-07T17:25:24Z</time>
      </trkpt>
      <trkpt lat="43.29634" lon="6.44517">
        <ele>447</ele>
        <time>2019-09-07T17:25:33Z</time>
      </trkpt>
      <trkpt lat="43.2963" lon="6.44479">
        <ele>443</ele>
        <time>2019-09-07T17:25:38Z</time>
      </trkpt>
      <trkpt lat="43.29631" lon="6.44458">
        <ele>442</ele>
        <time>2019-09-07T17:25:41Z</time>
      </trkpt>
      <trkpt lat="43.29643" lon="6.44393">
        <ele>444</ele>
        <time>2019-09-07T17:25:50Z</time>
      </trkpt>
      <trkpt lat="43.29643" lon="6.44369">
        <ele>445</ele>
        <time>2019-09-07T17:25:53Z</time>
      </trkpt>
      <trkpt lat="43.2962" lon="6.44334">
        <ele>441</ele>
        <time>2019-09-07T17:25:59Z</time>
      </trkpt>
      <trkpt lat="43.29588" lon="6.44326">
        <ele>434</ele>
        <time>2019-09-07T17:26:05Z</time>
      </trkpt>
      <trkpt lat="43.29579" lon="6.44319">
        <ele>432</ele>
        <time>2019-09-07T17:26:06Z</time>
      </trkpt>
      <trkpt lat="43.29551" lon="6.4426">
        <ele>432</ele>
        <time>2019-09-07T17:26:15Z</time>
      </trkpt>
      <trkpt lat="43.2955" lon="6.44248">
        <ele>432</ele>
        <time>2019-09-07T17:26:17Z</time>
      </trkpt>
      <trkpt lat="43.29553" lon="6.44215">
        <ele>433</ele>
        <time>2019-09-07T17:26:21Z</time>
      </trkpt>
      <trkpt lat="43.29551" lon="6.44189">
        <ele>433</ele>
        <time>2019-09-07T17:26:25Z</time>
      </trkpt>
      <trkpt lat="43.29538" lon="6.44156">
        <ele>431</ele>
        <time>2019-09-07T17:26:30Z</time>
      </trkpt>
      <trkpt lat="43.29529" lon="6.44147">
        <ele>430</ele>
        <time>2019-09-07T17:26:32Z</time>
      </trkpt>
      <trkpt lat="43.29497" lon="6.44132">
        <ele>424</ele>
        <time>2019-09-07T17:26:38Z</time>
      </trkpt>
      <trkpt lat="43.29485" lon="6.44121">
        <ele>423</ele>
        <time>2019-09-07T17:26:40Z</time>
      </trkpt>
      <trkpt lat="43.29472" lon="6.44094">
        <ele>422</ele>
        <time>2019-09-07T17:26:44Z</time>
      </trkpt>
      <trkpt lat="43.29471" lon="6.43981">
        <ele>419</ele>
        <time>2019-09-07T17:26:59Z</time>
      </trkpt>
      <trkpt lat="43.29477" lon="6.43908">
        <ele>418</ele>
        <time>2019-09-07T17:27:08Z</time>
      </trkpt>
      <trkpt lat="43.29488" lon="6.43845">
        <ele>415</ele>
        <time>2019-09-07T17:27:17Z</time>
      </trkpt>
      <trkpt lat="43.29501" lon="6.43803">
        <ele>414</ele>
        <time>2019-09-07T17:27:23Z</time>
      </trkpt>
      <trkpt lat="43.29542" lon="6.43711">
        <ele>411</ele>
        <time>2019-09-07T17:27:37Z</time>
      </trkpt>
      <trkpt lat="43.29567" lon="6.43647">
        <ele>407</ele>
        <time>2019-09-07T17:27:46Z</time>
      </trkpt>
      <trkpt lat="43.29576" lon="6.43634">
        <ele>407</ele>
        <time>2019-09-07T17:27:48Z</time>
      </trkpt>
      <trkpt lat="43.29586" lon="6.43627">
        <ele>407</ele>
        <time>2019-09-07T17:27:50Z</time>
      </trkpt>
      <trkpt lat="43.29598" lon="6.43626">
        <ele>407</ele>
        <time>2019-09-07T17:27:53Z</time>
      </trkpt>
      <trkpt lat="43.29606" lon="6.43628">
        <ele>407</ele>
        <time>2019-09-07T17:27:54Z</time>
      </trkpt>
      <trkpt lat="43.29624" lon="6.43642">
        <ele>409</ele>
        <time>2019-09-07T17:27:58Z</time>
      </trkpt>
      <trkpt lat="43.2963" lon="6.43644">
        <ele>410</ele>
        <time>2019-09-07T17:27:59Z</time>
      </trkpt>
      <trkpt lat="43.29664" lon="6.43646">
        <ele>411</ele>
        <time>2019-09-07T17:28:05Z</time>
      </trkpt>
      <trkpt lat="43.29725" lon="6.43614">
        <ele>407</ele>
        <time>2019-09-07T17:28:17Z</time>
      </trkpt>
      <trkpt lat="43.29748" lon="6.43605">
        <ele>406</ele>
        <time>2019-09-07T17:28:21Z</time>
      </trkpt>
      <trkpt lat="43.29759" lon="6.43605">
        <ele>408</ele>
        <time>2019-09-07T17:28:23Z</time>
      </trkpt>
      <trkpt lat="43.29786" lon="6.43612">
        <ele>418</ele>
        <time>2019-09-07T17:28:28Z</time>
      </trkpt>
      <trkpt lat="43.29795" lon="6.43603">
        <ele>418</ele>
        <time>2019-09-07T17:28:30Z</time>
      </trkpt>
      <trkpt lat="43.29798" lon="6.43596">
        <ele>418</ele>
        <time>2019-09-07T17:28:31Z</time>
      </trkpt>
      <trkpt lat="43.298" lon="6.4356">
        <ele>416</ele>
        <time>2019-09-07T17:28:35Z</time>
      </trkpt>
      <trkpt lat="43.29781" lon="6.43531">
        <ele>411</ele>
        <time>2019-09-07T17:28:40Z</time>
      </trkpt>
      <trkpt lat="43.29754" lon="6.43502">
        <ele>401</ele>
        <time>2019-09-07T17:28:46Z</time>
      </trkpt>
      <trkpt lat="43.29725" lon="6.43454">
        <ele>397</ele>
        <time>2019-09-07T17:28:55Z</time>
      </trkpt>
      <trkpt lat="43.2972" lon="6.43439">
        <ele>397</ele>
        <time>2019-09-07T17:28:57Z</time>
      </trkpt>
      <trkpt lat="43.29715" lon="6.434">
        <ele>395</ele>
        <time>2019-09-07T17:29:02Z</time>
      </trkpt>
      <trkpt lat="43.29731" lon="6.43301">
        <ele>392</ele>
        <time>2019-09-07T17:29:15Z</time>
      </trkpt>
      <trkpt lat="43.29736" lon="6.43283">
        <ele>392</ele>
        <time>2019-09-07T17:29:17Z</time>
      </trkpt>
      <trkpt lat="43.29742" lon="6.43265">
        <ele>391</ele>
        <time>2019-09-07T17:29:20Z</time>
      </trkpt>
      <trkpt lat="43.29754" lon="6.43241">
        <ele>392</ele>
        <time>2019-09-07T17:29:24Z</time>
      </trkpt>
      <trkpt lat="43.29777" lon="6.43206">
        <ele>398</ele>
        <time>2019-09-07T17:29:30Z</time>
      </trkpt>
      <trkpt lat="43.29777" lon="6.43202">
        <ele>398</ele>
        <time>2019-09-07T17:29:30Z</time>
      </trkpt>
      <trkpt lat="43.2974" lon="6.43177">
        <ele>387</ele>
        <time>2019-09-07T17:29:38Z</time>
      </trkpt>
      <trkpt lat="43.29736" lon="6.43167">
        <ele>386</ele>
        <time>2019-09-07T17:29:39Z</time>
      </trkpt>
      <trkpt lat="43.29734" lon="6.43155">
        <ele>385</ele>
        <time>2019-09-07T17:29:41Z</time>
      </trkpt>
      <trkpt lat="43.29738" lon="6.43114">
        <ele>383</ele>
        <time>2019-09-07T17:29:46Z</time>
      </trkpt>
      <trkpt lat="43.29743" lon="6.4309">
        <ele>382</ele>
        <time>2019-09-07T17:29:49Z</time>
      </trkpt>
      <trkpt lat="43.29756" lon="6.43058">
        <ele>381</ele>
        <time>2019-09-07T17:29:54Z</time>
      </trkpt>
      <trkpt lat="43.29797" lon="6.43012">
        <ele>387</ele>
        <time>2019-09-07T17:30:04Z</time>
      </trkpt>
      <trkpt lat="43.29804" lon="6.42999">
        <ele>388</ele>
        <time>2019-09-07T17:30:06Z</time>
      </trkpt>
      <trkpt lat="43.29803" lon="6.42988">
        <ele>387</ele>
        <time>2019-09-07T17:30:07Z</time>
      </trkpt>
      <trkpt lat="43.29779" lon="6.42968">
        <ele>380</ele>
        <time>2019-09-07T17:30:12Z</time>
      </trkpt>
      <trkpt lat="43.29777" lon="6.42928">
        <ele>378</ele>
        <time>2019-09-07T17:30:17Z</time>
      </trkpt>
      <trkpt lat="43.29782" lon="6.4292">
        <ele>379</ele>
        <time>2019-09-07T17:30:19Z</time>
      </trkpt>
      <trkpt lat="43.29799" lon="6.42913">
        <ele>384</ele>
        <time>2019-09-07T17:30:22Z</time>
      </trkpt>
      <trkpt lat="43.29804" lon="6.42909">
        <ele>386</ele>
        <time>2019-09-07T17:30:23Z</time>
      </trkpt>
      <trkpt lat="43.29805" lon="6.42905">
        <ele>387</ele>
        <time>2019-09-07T17:30:23Z</time>
      </trkpt>
      <trkpt lat="43.2978" lon="6.42861">
        <ele>382</ele>
        <time>2019-09-07T17:30:31Z</time>
      </trkpt>
      <trkpt lat="43.29765" lon="6.42841">
        <ele>378</ele>
        <time>2019-09-07T17:30:34Z</time>
      </trkpt>
      <trkpt lat="43.29763" lon="6.42832">
        <ele>378</ele>
        <time>2019-09-07T17:30:36Z</time>
      </trkpt>
      <trkpt lat="43.29768" lon="6.42762">
        <ele>380</ele>
        <time>2019-09-07T17:30:45Z</time>
      </trkpt>
      <trkpt lat="43.29785" lon="6.42675">
        <ele>388</ele>
        <time>2019-09-07T17:30:56Z</time>
      </trkpt>
      <trkpt lat="43.29788" lon="6.4264">
        <ele>395</ele>
        <time>2019-09-07T17:31:01Z</time>
      </trkpt>
      <trkpt lat="43.29785" lon="6.42624">
        <ele>398</ele>
        <time>2019-09-07T17:31:03Z</time>
      </trkpt>
      <trkpt lat="43.29783" lon="6.42623">
        <ele>398</ele>
        <time>2019-09-07T17:31:03Z</time>
      </trkpt>
      <trkpt lat="43.29769" lon="6.42648">
        <ele>391</ele>
        <time>2019-09-07T17:31:08Z</time>
      </trkpt>
      <trkpt lat="43.29679" lon="6.42718">
        <ele>383</ele>
        <time>2019-09-07T17:31:26Z</time>
      </trkpt>
      <trkpt lat="43.29631" lon="6.42803">
        <ele>370</ele>
        <time>2019-09-07T17:31:40Z</time>
      </trkpt>
      <trkpt lat="43.29611" lon="6.42825">
        <ele>368</ele>
        <time>2019-09-07T17:31:44Z</time>
      </trkpt>
      <trkpt lat="43.29599" lon="6.42828">
        <ele>368</ele>
        <time>2019-09-07T17:31:47Z</time>
      </trkpt>
      <trkpt lat="43.29585" lon="6.42826">
        <ele>370</ele>
        <time>2019-09-07T17:31:49Z</time>
      </trkpt>
      <trkpt lat="43.29576" lon="6.4282">
        <ele>371</ele>
        <time>2019-09-07T17:31:51Z</time>
      </trkpt>
      <trkpt lat="43.29556" lon="6.42779">
        <ele>379</ele>
        <time>2019-09-07T17:31:57Z</time>
      </trkpt>
      <trkpt lat="43.29552" lon="6.42774">
        <ele>380</ele>
        <time>2019-09-07T17:31:58Z</time>
      </trkpt>
      <trkpt lat="43.29547" lon="6.42773">
        <ele>380</ele>
        <time>2019-09-07T17:31:59Z</time>
      </trkpt>
      <trkpt lat="43.29537" lon="6.42778">
        <ele>379</ele>
        <time>2019-09-07T17:32:01Z</time>
      </trkpt>
      <trkpt lat="43.29531" lon="6.42787">
        <ele>377</ele>
        <time>2019-09-07T17:32:03Z</time>
      </trkpt>
      <trkpt lat="43.29508" lon="6.42806">
        <ele>374</ele>
        <time>2019-09-07T17:32:07Z</time>
      </trkpt>
      <trkpt lat="43.29499" lon="6.42822">
        <ele>371</ele>
        <time>2019-09-07T17:32:10Z</time>
      </trkpt>
      <trkpt lat="43.29491" lon="6.42828">
        <ele>370</ele>
        <time>2019-09-07T17:32:12Z</time>
      </trkpt>
      <trkpt lat="43.29469" lon="6.4283">
        <ele>367</ele>
        <time>2019-09-07T17:32:16Z</time>
      </trkpt>
      <trkpt lat="43.29463" lon="6.42826">
        <ele>366</ele>
        <time>2019-09-07T17:32:17Z</time>
      </trkpt>
      <trkpt lat="43.29453" lon="6.4281">
        <ele>366</ele>
        <time>2019-09-07T17:32:19Z</time>
      </trkpt>
      <trkpt lat="43.29443" lon="6.42759">
        <ele>369</ele>
        <time>2019-09-07T17:32:26Z</time>
      </trkpt>
      <trkpt lat="43.29445" lon="6.42717">
        <ele>371</ele>
        <time>2019-09-07T17:32:32Z</time>
      </trkpt>
      <trkpt lat="43.29454" lon="6.42661">
        <ele>375</ele>
        <time>2019-09-07T17:32:39Z</time>
      </trkpt>
      <trkpt lat="43.2945" lon="6.42607">
        <ele>381</ele>
        <time>2019-09-07T17:32:46Z</time>
      </trkpt>
      <trkpt lat="43.29448" lon="6.42604">
        <ele>381</ele>
        <time>2019-09-07T17:32:47Z</time>
      </trkpt>
      <trkpt lat="43.29426" lon="6.4261">
        <ele>376</ele>
        <time>2019-09-07T17:32:51Z</time>
      </trkpt>
      <trkpt lat="43.2941" lon="6.42601">
        <ele>376</ele>
        <time>2019-09-07T17:32:54Z</time>
      </trkpt>
      <trkpt lat="43.29399" lon="6.42585">
        <ele>378</ele>
        <time>2019-09-07T17:32:57Z</time>
      </trkpt>
      <trkpt lat="43.29392" lon="6.42584">
        <ele>378</ele>
        <time>2019-09-07T17:32:58Z</time>
      </trkpt>
      <trkpt lat="43.29387" lon="6.42587">
        <ele>377</ele>
        <time>2019-09-07T17:32:59Z</time>
      </trkpt>
      <trkpt lat="43.29375" lon="6.4261">
        <ele>371</ele>
        <time>2019-09-07T17:33:03Z</time>
      </trkpt>
      <trkpt lat="43.29363" lon="6.42621">
        <ele>368</ele>
        <time>2019-09-07T17:33:05Z</time>
      </trkpt>
      <trkpt lat="43.29343" lon="6.42629">
        <ele>364</ele>
        <time>2019-09-07T17:33:09Z</time>
      </trkpt>
      <trkpt lat="43.29337" lon="6.42628">
        <ele>364</ele>
        <time>2019-09-07T17:33:10Z</time>
      </trkpt>
      <trkpt lat="43.29292" lon="6.42595">
        <ele>363</ele>
        <time>2019-09-07T17:33:19Z</time>
      </trkpt>
      <trkpt lat="43.29279" lon="6.42584">
        <ele>363</ele>
        <time>2019-09-07T17:33:22Z</time>
      </trkpt>
      <trkpt lat="43.29257" lon="6.42557">
        <ele>367</ele>
        <time>2019-09-07T17:33:27Z</time>
      </trkpt>
      <trkpt lat="43.29204" lon="6.42517">
        <ele>370</ele>
        <time>2019-09-07T17:33:38Z</time>
      </trkpt>
      <trkpt lat="43.29176" lon="6.42513">
        <ele>367</ele>
        <time>2019-09-07T17:33:43Z</time>
      </trkpt>
      <trkpt lat="43.29143" lon="6.42502">
        <ele>370</ele>
        <time>2019-09-07T17:33:49Z</time>
      </trkpt>
      <trkpt lat="43.29131" lon="6.42501">
        <ele>370</ele>
        <time>2019-09-07T17:33:51Z</time>
      </trkpt>
      <trkpt lat="43.29116" lon="6.42503">
        <ele>369</ele>
        <time>2019-09-07T17:33:54Z</time>
      </trkpt>
      <trkpt lat="43.29045" lon="6.42524">
        <ele>352</ele>
        <time>2019-09-07T17:34:06Z</time>
      </trkpt>
      <trkpt lat="43.2902" lon="6.42511">
        <ele>353</ele>
        <time>2019-09-07T17:34:11Z</time>
      </trkpt>
      <trkpt lat="43.29001" lon="6.42496">
        <ele>355</ele>
        <time>2019-09-07T17:34:15Z</time>
      </trkpt>
      <trkpt lat="43.28987" lon="6.42478">
        <ele>358</ele>
        <time>2019-09-07T17:34:19Z</time>
      </trkpt>
      <trkpt lat="43.28952" lon="6.42445">
        <ele>359</ele>
        <time>2019-09-07T17:34:26Z</time>
      </trkpt>
      <trkpt lat="43.28941" lon="6.42425">
        <ele>361</ele>
        <time>2019-09-07T17:34:29Z</time>
      </trkpt>
      <trkpt lat="43.28939" lon="6.42413">
        <ele>362</ele>
        <time>2019-09-07T17:34:31Z</time>
      </trkpt>
      <trkpt lat="43.28941" lon="6.42399">
        <ele>362</ele>
        <time>2019-09-07T17:34:33Z</time>
      </trkpt>
      <trkpt lat="43.28963" lon="6.42314">
        <ele>368</ele>
        <time>2019-09-07T17:34:44Z</time>
      </trkpt>
      <trkpt lat="43.28963" lon="6.42277">
        <ele>367</ele>
        <time>2019-09-07T17:34:49Z</time>
      </trkpt>
      <trkpt lat="43.28959" lon="6.42244">
        <ele>366</ele>
        <time>2019-09-07T17:34:54Z</time>
      </trkpt>
      <trkpt lat="43.28954" lon="6.42225">
        <ele>366</ele>
        <time>2019-09-07T17:34:56Z</time>
      </trkpt>
      <trkpt lat="43.2889" lon="6.42122">
        <ele>353</ele>
        <time>2019-09-07T17:35:14Z</time>
      </trkpt>
      <trkpt lat="43.28877" lon="6.42091">
        <ele>352</ele>
        <time>2019-09-07T17:35:18Z</time>
      </trkpt>
      <trkpt lat="43.28875" lon="6.42081">
        <ele>352</ele>
        <time>2019-09-07T17:35:20Z</time>
      </trkpt>
      <trkpt lat="43.28876" lon="6.42069">
        <ele>352</ele>
        <time>2019-09-07T17:35:21Z</time>
      </trkpt>
      <trkpt lat="43.28883" lon="6.42036">
        <ele>355</ele>
        <time>2019-09-07T17:35:26Z</time>
      </trkpt>
      <trkpt lat="43.28881" lon="6.41972">
        <ele>353</ele>
        <time>2019-09-07T17:35:34Z</time>
      </trkpt>
      <trkpt lat="43.28886" lon="6.41961">
        <ele>353</ele>
        <time>2019-09-07T17:35:36Z</time>
      </trkpt>
      <trkpt lat="43.28884" lon="6.41959">
        <ele>353</ele>
        <time>2019-09-07T17:35:36Z</time>
      </trkpt>
      <trkpt lat="43.28886" lon="6.41961">
        <ele>353</ele>
        <time>2019-09-07T17:35:37Z</time>
      </trkpt>
      <trkpt lat="43.28887" lon="6.41993">
        <ele>355</ele>
        <time>2019-09-07T17:35:41Z</time>
      </trkpt>
      <trkpt lat="43.28897" lon="6.42031">
        <ele>360</ele>
        <time>2019-09-07T17:35:46Z</time>
      </trkpt>
      <trkpt lat="43.28901" lon="6.42086">
        <ele>363</ele>
        <time>2019-09-07T17:35:53Z</time>
      </trkpt>
      <trkpt lat="43.28904" lon="6.42099">
        <ele>362</ele>
        <time>2019-09-07T17:35:55Z</time>
      </trkpt>
      <trkpt lat="43.2893" lon="6.42121">
        <ele>369</ele>
        <time>2019-09-07T17:36:00Z</time>
      </trkpt>
      <trkpt lat="43.29007" lon="6.42206">
        <ele>390</ele>
        <time>2019-09-07T17:36:18Z</time>
      </trkpt>
      <trkpt lat="43.29014" lon="6.42217">
        <ele>392</ele>
        <time>2019-09-07T17:36:20Z</time>
      </trkpt>
      <trkpt lat="43.29016" lon="6.42231">
        <ele>391</ele>
        <time>2019-09-07T17:36:22Z</time>
      </trkpt>
      <trkpt lat="43.29015" lon="6.42263">
        <ele>389</ele>
        <time>2019-09-07T17:36:26Z</time>
      </trkpt>
      <trkpt lat="43.29022" lon="6.42305">
        <ele>391</ele>
        <time>2019-09-07T17:36:31Z</time>
      </trkpt>
      <trkpt lat="43.2905" lon="6.42397">
        <ele>393</ele>
        <time>2019-09-07T17:36:44Z</time>
      </trkpt>
      <trkpt lat="43.2906" lon="6.42422">
        <ele>391</ele>
        <time>2019-09-07T17:36:48Z</time>
      </trkpt>
      <trkpt lat="43.29073" lon="6.42433">
        <ele>391</ele>
        <time>2019-09-07T17:36:51Z</time>
      </trkpt>
      <trkpt lat="43.29091" lon="6.42431">
        <ele>395</ele>
        <time>2019-09-07T17:36:54Z</time>
      </trkpt>
      <trkpt lat="43.2913" lon="6.42418">
        <ele>404</ele>
        <time>2019-09-07T17:37:01Z</time>
      </trkpt>
      <trkpt lat="43.29212" lon="6.42435">
        <ele>403</ele>
        <time>2019-09-07T17:37:16Z</time>
      </trkpt>
      <trkpt lat="43.29254" lon="6.4243">
        <ele>407</ele>
        <time>2019-09-07T17:37:23Z</time>
      </trkpt>
      <trkpt lat="43.2929" lon="6.42434">
        <ele>411</ele>
        <time>2019-09-07T17:37:30Z</time>
      </trkpt>
      <trkpt lat="43.29326" lon="6.42432">
        <ele>417</ele>
        <time>2019-09-07T17:37:36Z</time>
      </trkpt>
      <trkpt lat="43.29347" lon="6.42438">
        <ele>417</ele>
        <time>2019-09-07T17:37:40Z</time>
      </trkpt>
      <trkpt lat="43.29399" lon="6.42424">
        <ele>423</ele>
        <time>2019-09-07T17:37:49Z</time>
      </trkpt>
      <trkpt lat="43.29411" lon="6.42425">
        <ele>423</ele>
        <time>2019-09-07T17:37:52Z</time>
      </trkpt>
      <trkpt lat="43.29421" lon="6.4243">
        <ele>421</ele>
        <time>2019-09-07T17:37:53Z</time>
      </trkpt>
      <trkpt lat="43.29432" lon="6.42431">
        <ele>421</ele>
        <time>2019-09-07T17:37:55Z</time>
      </trkpt>
      <trkpt lat="43.29466" lon="6.42402">
        <ele>429</ele>
        <time>2019-09-07T17:38:02Z</time>
      </trkpt>
      <trkpt lat="43.29474" lon="6.42384">
        <ele>433</ele>
        <time>2019-09-07T17:38:05Z</time>
      </trkpt>
      <trkpt lat="43.29477" lon="6.42371">
        <ele>437</ele>
        <time>2019-09-07T17:38:07Z</time>
      </trkpt>
      <trkpt lat="43.29504" lon="6.42363">
        <ele>441</ele>
        <time>2019-09-07T17:38:12Z</time>
      </trkpt>
      <trkpt lat="43.29567" lon="6.42391">
        <ele>445</ele>
        <time>2019-09-07T17:38:24Z</time>
      </trkpt>
      <trkpt lat="43.29606" lon="6.42391">
        <ele>454</ele>
        <time>2019-09-07T17:38:31Z</time>
      </trkpt>
      <trkpt lat="43.29612" lon="6.42397">
        <ele>454</ele>
        <time>2019-09-07T17:38:32Z</time>
      </trkpt>
      <trkpt lat="43.29622" lon="6.42418">
        <ele>451</ele>
        <time>2019-09-07T17:38:35Z</time>
      </trkpt>
      <trkpt lat="43.29631" lon="6.42425">
        <ele>452</ele>
        <time>2019-09-07T17:38:37Z</time>
      </trkpt>
      <trkpt lat="43.29647" lon="6.42445">
        <ele>452</ele>
        <time>2019-09-07T17:38:41Z</time>
      </trkpt>
      <trkpt lat="43.29662" lon="6.42469">
        <ele>451</ele>
        <time>2019-09-07T17:38:45Z</time>
      </trkpt>
      <trkpt lat="43.29693" lon="6.42498">
        <ele>445</ele>
        <time>2019-09-07T17:38:52Z</time>
      </trkpt>
      <trkpt lat="43.29705" lon="6.42496">
        <ele>445</ele>
        <time>2019-09-07T17:38:54Z</time>
      </trkpt>
      <trkpt lat="43.29705" lon="6.42486">
        <ele>447</ele>
        <time>2019-09-07T17:38:55Z</time>
      </trkpt>
      <trkpt lat="43.29688" lon="6.42472">
        <ele>451</ele>
        <time>2019-09-07T17:38:59Z</time>
      </trkpt>
      <trkpt lat="43.29681" lon="6.42461">
        <ele>454</ele>
        <time>2019-09-07T17:39:01Z</time>
      </trkpt>
      <trkpt lat="43.29643" lon="6.42373">
        <ele>469</ele>
        <time>2019-09-07T17:39:14Z</time>
      </trkpt>
      <trkpt lat="43.29631" lon="6.42353">
        <ele>472</ele>
        <time>2019-09-07T17:39:17Z</time>
      </trkpt>
      <trkpt lat="43.29621" lon="6.42339">
        <ele>473</ele>
        <time>2019-09-07T17:39:20Z</time>
      </trkpt>
      <trkpt lat="43.29585" lon="6.42306">
        <ele>473</ele>
        <time>2019-09-07T17:39:27Z</time>
      </trkpt>
      <trkpt lat="43.29576" lon="6.42293">
        <ele>475</ele>
        <time>2019-09-07T17:39:30Z</time>
      </trkpt>
      <trkpt lat="43.29512" lon="6.42224">
        <ele>477</ele>
        <time>2019-09-07T17:39:44Z</time>
      </trkpt>
      <trkpt lat="43.29469" lon="6.42156">
        <ele>476</ele>
        <time>2019-09-07T17:39:56Z</time>
      </trkpt>
      <trkpt lat="43.29467" lon="6.42147">
        <ele>476</ele>
        <time>2019-09-07T17:39:57Z</time>
      </trkpt>
      <trkpt lat="43.29468" lon="6.42137">
        <ele>476</ele>
        <time>2019-09-07T17:39:58Z</time>
      </trkpt>
      <trkpt lat="43.29471" lon="6.42124">
        <ele>477</ele>
        <time>2019-09-07T17:40:00Z</time>
      </trkpt>
      <trkpt lat="43.2948" lon="6.42112">
        <ele>479</ele>
        <time>2019-09-07T17:40:02Z</time>
      </trkpt>
      <trkpt lat="43.29504" lon="6.42094">
        <ele>485</ele>
        <time>2019-09-07T17:40:07Z</time>
      </trkpt>
      <trkpt lat="43.29511" lon="6.42085">
        <ele>486</ele>
        <time>2019-09-07T17:40:09Z</time>
      </trkpt>
      <trkpt lat="43.29518" lon="6.42062">
        <ele>482</ele>
        <time>2019-09-07T17:40:12Z</time>
      </trkpt>
      <trkpt lat="43.29524" lon="6.42058">
        <ele>481</ele>
        <time>2019-09-07T17:40:13Z</time>
      </trkpt>
      <trkpt lat="43.29536" lon="6.42062">
        <ele>483</ele>
        <time>2019-09-07T17:40:16Z</time>
      </trkpt>
      <trkpt lat="43.29555" lon="6.42085">
        <ele>490</ele>
        <time>2019-09-07T17:40:20Z</time>
      </trkpt>
      <trkpt lat="43.29577" lon="6.42097">
        <ele>493</ele>
        <time>2019-09-07T17:40:24Z</time>
      </trkpt>
      <trkpt lat="43.29624" lon="6.42137">
        <ele>502</ele>
        <time>2019-09-07T17:40:34Z</time>
      </trkpt>
      <trkpt lat="43.29642" lon="6.42143">
        <ele>505</ele>
        <time>2019-09-07T17:40:37Z</time>
      </trkpt>
      <trkpt lat="43.29663" lon="6.42144">
        <ele>508</ele>
        <time>2019-09-07T17:40:41Z</time>
      </trkpt>
      <trkpt lat="43.2971" lon="6.42117">
        <ele>515</ele>
        <time>2019-09-07T17:40:50Z</time>
      </trkpt>
      <trkpt lat="43.29726" lon="6.4205">
        <ele>516</ele>
        <time>2019-09-07T17:40:59Z</time>
      </trkpt>
      <trkpt lat="43.29769" lon="6.41921">
        <ele>523</ele>
        <time>2019-09-07T17:41:18Z</time>
      </trkpt>
      <trkpt lat="43.29774" lon="6.41894">
        <ele>524</ele>
        <time>2019-09-07T17:41:21Z</time>
      </trkpt>
      <trkpt lat="43.29775" lon="6.41849">
        <ele>523</ele>
        <time>2019-09-07T17:41:27Z</time>
      </trkpt>
      <trkpt lat="43.29772" lon="6.41831">
        <ele>521</ele>
        <time>2019-09-07T17:41:30Z</time>
      </trkpt>
      <trkpt lat="43.29773" lon="6.41809">
        <ele>520</ele>
        <time>2019-09-07T17:41:32Z</time>
      </trkpt>
      <trkpt lat="43.29797" lon="6.41773">
        <ele>527</ele>
        <time>2019-09-07T17:41:39Z</time>
      </trkpt>
      <trkpt lat="43.29827" lon="6.41712">
        <ele>536</ele>
        <time>2019-09-07T17:41:48Z</time>
      </trkpt>
      <trkpt lat="43.29847" lon="6.41681">
        <ele>540</ele>
        <time>2019-09-07T17:41:54Z</time>
      </trkpt>
      <trkpt lat="43.2986" lon="6.41667">
        <ele>543</ele>
        <time>2019-09-07T17:41:57Z</time>
      </trkpt>
      <trkpt lat="43.29871" lon="6.41646">
        <ele>545</ele>
        <time>2019-09-07T17:42:00Z</time>
      </trkpt>
      <trkpt lat="43.2988" lon="6.41618">
        <ele>548</ele>
        <time>2019-09-07T17:42:04Z</time>
      </trkpt>
      <trkpt lat="43.29885" lon="6.41598">
        <ele>550</ele>
        <time>2019-09-07T17:42:07Z</time>
      </trkpt>
      <trkpt lat="43.2989" lon="6.41558">
        <ele>553</ele>
        <time>2019-09-07T17:42:12Z</time>
      </trkpt>
      <trkpt lat="43.29884" lon="6.41469">
        <ele>554</ele>
        <time>2019-09-07T17:42:23Z</time>
      </trkpt>
      <trkpt lat="43.29882" lon="6.41351">
        <ele>557</ele>
        <time>2019-09-07T17:42:39Z</time>
      </trkpt>
      <trkpt lat="43.29891" lon="6.41293">
        <ele>562</ele>
        <time>2019-09-07T17:42:46Z</time>
      </trkpt>
      <trkpt lat="43.299" lon="6.41273">
        <ele>565</ele>
        <time>2019-09-07T17:42:49Z</time>
      </trkpt>
      <trkpt lat="43.29905" lon="6.41255">
        <ele>566</ele>
        <time>2019-09-07T17:42:52Z</time>
      </trkpt>
      <trkpt lat="43.29906" lon="6.41238">
        <ele>567</ele>
        <time>2019-09-07T17:42:54Z</time>
      </trkpt>
      <trkpt lat="43.29918" lon="6.41213">
        <ele>570</ele>
        <time>2019-09-07T17:42:58Z</time>
      </trkpt>
      <trkpt lat="43.2992" lon="6.41194">
        <ele>569</ele>
        <time>2019-09-07T17:43:00Z</time>
      </trkpt>
      <trkpt lat="43.29933" lon="6.41145">
        <ele>566</ele>
        <time>2019-09-07T17:43:07Z</time>
      </trkpt>
      <trkpt lat="43.29935" lon="6.4112">
        <ele>566</ele>
        <time>2019-09-07T17:43:11Z</time>
      </trkpt>
      <trkpt lat="43.29924" lon="6.41076">
        <ele>574</ele>
        <time>2019-09-07T17:43:17Z</time>
      </trkpt>
      <trkpt lat="43.29923" lon="6.41011">
        <ele>577</ele>
        <time>2019-09-07T17:43:25Z</time>
      </trkpt>
      <trkpt lat="43.29916" lon="6.40951">
        <ele>580</ele>
        <time>2019-09-07T17:43:33Z</time>
      </trkpt>
      <trkpt lat="43.29916" lon="6.40899">
        <ele>577</ele>
        <time>2019-09-07T17:43:40Z</time>
      </trkpt>
      <trkpt lat="43.29912" lon="6.40887">
        <ele>577</ele>
        <time>2019-09-07T17:43:41Z</time>
      </trkpt>
      <trkpt lat="43.29904" lon="6.4088">
        <ele>579</ele>
        <time>2019-09-07T17:43:43Z</time>
      </trkpt>
      <trkpt lat="43.29894" lon="6.40873">
        <ele>582</ele>
        <time>2019-09-07T17:43:45Z</time>
      </trkpt>
      <trkpt lat="43.29863" lon="6.40863">
        <ele>592</ele>
        <time>2019-09-07T17:43:51Z</time>
      </trkpt>
      <trkpt lat="43.29855" lon="6.40853">
        <ele>594</ele>
        <time>2019-09-07T17:43:53Z</time>
      </trkpt>
      <trkpt lat="43.29854" lon="6.40834">
        <ele>592</ele>
        <time>2019-09-07T17:43:55Z</time>
      </trkpt>
      <trkpt lat="43.29862" lon="6.40795">
        <ele>587</ele>
        <time>2019-09-07T17:44:00Z</time>
      </trkpt>
      <trkpt lat="43.29864" lon="6.40766">
        <ele>585</ele>
        <time>2019-09-07T17:44:04Z</time>
      </trkpt>
      <trkpt lat="43.29863" lon="6.40742">
        <ele>585</ele>
        <time>2019-09-07T17:44:07Z</time>
      </trkpt>
      <trkpt lat="43.29856" lon="6.40698">
        <ele>587</ele>
        <time>2019-09-07T17:44:13Z</time>
      </trkpt>
      <trkpt lat="43.29851" lon="6.40642">
        <ele>588</ele>
        <time>2019-09-07T17:44:20Z</time>
      </trkpt>
      <trkpt lat="43.29852" lon="6.40618">
        <ele>588</ele>
        <time>2019-09-07T17:44:23Z</time>
      </trkpt>
      <trkpt lat="43.2986" lon="6.4059">
        <ele>588</ele>
        <time>2019-09-07T17:44:27Z</time>
      </trkpt>
      <trkpt lat="43.29915" lon="6.405">
        <ele>596</ele>
        <time>2019-09-07T17:44:43Z</time>
      </trkpt>
      <trkpt lat="43.29921" lon="6.40485">
        <ele>597</ele>
        <time>2019-09-07T17:44:45Z</time>
      </trkpt>
      <trkpt lat="43.29924" lon="6.40467">
        <ele>600</ele>
        <time>2019-09-07T17:44:47Z</time>
      </trkpt>
      <trkpt lat="43.29925" lon="6.40434">
        <ele>603</ele>
        <time>2019-09-07T17:44:51Z</time>
      </trkpt>
      <trkpt lat="43.29916" lon="6.40402">
        <ele>607</ele>
        <time>2019-09-07T17:44:56Z</time>
      </trkpt>
      <trkpt lat="43.29908" lon="6.4039">
        <ele>608</ele>
        <time>2019-09-07T17:44:58Z</time>
      </trkpt>
      <trkpt lat="43.29894" lon="6.40376">
        <ele>608</ele>
        <time>2019-09-07T17:45:01Z</time>
      </trkpt>
      <trkpt lat="43.29879" lon="6.40365">
        <ele>608</ele>
        <time>2019-09-07T17:45:04Z</time>
      </trkpt>
      <trkpt lat="43.29844" lon="6.40352">
        <ele>605</ele>
        <time>2019-09-07T17:45:10Z</time>
      </trkpt>
      <trkpt lat="43.29825" lon="6.40337">
        <ele>605</ele>
        <time>2019-09-07T17:45:14Z</time>
      </trkpt>
      <trkpt lat="43.2981" lon="6.40304">
        <ele>606</ele>
        <time>2019-09-07T17:45:19Z</time>
      </trkpt>
      <trkpt lat="43.29774" lon="6.40165">
        <ele>618</ele>
        <time>2019-09-07T17:45:39Z</time>
      </trkpt>
      <trkpt lat="43.29767" lon="6.40147">
        <ele>618</ele>
        <time>2019-09-07T17:45:41Z</time>
      </trkpt>
      <trkpt lat="43.2975" lon="6.40125">
        <ele>618</ele>
        <time>2019-09-07T17:45:45Z</time>
      </trkpt>
      <trkpt lat="43.29726" lon="6.40108">
        <ele>620</ele>
        <time>2019-09-07T17:45:50Z</time>
      </trkpt>
      <trkpt lat="43.29703" lon="6.40102">
        <ele>622</ele>
        <time>2019-09-07T17:45:54Z</time>
      </trkpt>
      <trkpt lat="43.29671" lon="6.40098">
        <ele>624</ele>
        <time>2019-09-07T17:46:00Z</time>
      </trkpt>
      <trkpt lat="43.29645" lon="6.4009">
        <ele>621</ele>
        <time>2019-09-07T17:46:05Z</time>
      </trkpt>
      <trkpt lat="43.29623" lon="6.4008">
        <ele>619</ele>
        <time>2019-09-07T17:46:09Z</time>
      </trkpt>
      <trkpt lat="43.29606" lon="6.40067">
        <ele>618</ele>
        <time>2019-09-07T17:46:12Z</time>
      </trkpt>
      <trkpt lat="43.29585" lon="6.40029">
        <ele>624</ele>
        <time>2019-09-07T17:46:19Z</time>
      </trkpt>
      <trkpt lat="43.29569" lon="6.40013">
        <ele>625</ele>
        <time>2019-09-07T17:46:22Z</time>
      </trkpt>
      <trkpt lat="43.29522" lon="6.39979">
        <ele>626</ele>
        <time>2019-09-07T17:46:31Z</time>
      </trkpt>
      <trkpt lat="43.29499" lon="6.39958">
        <ele>628</ele>
        <time>2019-09-07T17:46:36Z</time>
      </trkpt>
      <trkpt lat="43.29482" lon="6.39934">
        <ele>629</ele>
        <time>2019-09-07T17:46:41Z</time>
      </trkpt>
      <trkpt lat="43.29469" lon="6.39903">
        <ele>631</ele>
        <time>2019-09-07T17:46:45Z</time>
      </trkpt>
      <trkpt lat="43.29464" lon="6.39829">
        <ele>633</ele>
        <time>2019-09-07T17:46:55Z</time>
      </trkpt>
      <trkpt lat="43.29428" lon="6.39747">
        <ele>634</ele>
        <time>2019-09-07T17:47:07Z</time>
      </trkpt>
      <trkpt lat="43.2942" lon="6.39711">
        <ele>634</ele>
        <time>2019-09-07T17:47:12Z</time>
      </trkpt>
      <trkpt lat="43.2941" lon="6.39612">
        <ele>634</ele>
        <time>2019-09-07T17:47:25Z</time>
      </trkpt>
      <trkpt lat="43.29395" lon="6.3956">
        <ele>636</ele>
        <time>2019-09-07T17:47:32Z</time>
      </trkpt>
      <trkpt lat="43.29398" lon="6.39495">
        <ele>635</ele>
        <time>2019-09-07T17:47:41Z</time>
      </trkpt>
      <trkpt lat="43.29397" lon="6.39467">
        <ele>636</ele>
        <time>2019-09-07T17:47:45Z</time>
      </trkpt>
      <trkpt lat="43.29388" lon="6.39419">
        <ele>638</ele>
        <time>2019-09-07T17:47:51Z</time>
      </trkpt>
      <trkpt lat="43.29386" lon="6.39346">
        <ele>634</ele>
        <time>2019-09-07T17:48:00Z</time>
      </trkpt>
      <trkpt lat="43.29382" lon="6.39333">
        <ele>633</ele>
        <time>2019-09-07T17:48:02Z</time>
      </trkpt>
      <trkpt lat="43.29362" lon="6.39317">
        <ele>633</ele>
        <time>2019-09-07T17:48:06Z</time>
      </trkpt>
      <trkpt lat="43.29314" lon="6.39307">
        <ele>637</ele>
        <time>2019-09-07T17:48:15Z</time>
      </trkpt>
      <trkpt lat="43.29296" lon="6.39299">
        <ele>638</ele>
        <time>2019-09-07T17:48:18Z</time>
      </trkpt>
      <trkpt lat="43.29285" lon="6.39287">
        <ele>637</ele>
        <time>2019-09-07T17:48:21Z</time>
      </trkpt>
      <trkpt lat="43.29277" lon="6.39271">
        <ele>636</ele>
        <time>2019-09-07T17:48:23Z</time>
      </trkpt>
      <trkpt lat="43.2927" lon="6.39244">
        <ele>632</ele>
        <time>2019-09-07T17:48:27Z</time>
      </trkpt>
      <trkpt lat="43.29255" lon="6.39206">
        <ele>630</ele>
        <time>2019-09-07T17:48:33Z</time>
      </trkpt>
      <trkpt lat="43.29247" lon="6.39192">
        <ele>629</ele>
        <time>2019-09-07T17:48:35Z</time>
      </trkpt>
      <trkpt lat="43.29229" lon="6.3918">
        <ele>628</ele>
        <time>2019-09-07T17:48:39Z</time>
      </trkpt>
      <trkpt lat="43.29199" lon="6.39169">
        <ele>628</ele>
        <time>2019-09-07T17:48:44Z</time>
      </trkpt>
      <trkpt lat="43.29139" lon="6.39155">
        <ele>629</ele>
        <time>2019-09-07T17:48:55Z</time>
      </trkpt>
      <trkpt lat="43.29123" lon="6.39155">
        <ele>630</ele>
        <time>2019-09-07T17:48:58Z</time>
      </trkpt>
      <trkpt lat="43.29067" lon="6.39163">
        <ele>629</ele>
        <time>2019-09-07T17:49:08Z</time>
      </trkpt>
      <trkpt lat="43.29047" lon="6.39153">
        <ele>630</ele>
        <time>2019-09-07T17:49:12Z</time>
      </trkpt>
      <trkpt lat="43.29021" lon="6.39127">
        <ele>633</ele>
        <time>2019-09-07T17:49:17Z</time>
      </trkpt>
      <trkpt lat="43.29001" lon="6.39101">
        <ele>638</ele>
        <time>2019-09-07T17:49:22Z</time>
      </trkpt>
      <trkpt lat="43.28989" lon="6.39078">
        <ele>640</ele>
        <time>2019-09-07T17:49:26Z</time>
      </trkpt>
      <trkpt lat="43.28982" lon="6.39049">
        <ele>640</ele>
        <time>2019-09-07T17:49:30Z</time>
      </trkpt>
      <trkpt lat="43.28967" lon="6.38952">
        <ele>644</ele>
        <time>2019-09-07T17:49:43Z</time>
      </trkpt>
      <trkpt lat="43.28956" lon="6.38917">
        <ele>645</ele>
        <time>2019-09-07T17:49:48Z</time>
      </trkpt>
      <trkpt lat="43.28941" lon="6.38889">
        <ele>648</ele>
        <time>2019-09-07T17:49:52Z</time>
      </trkpt>
      <trkpt lat="43.28928" lon="6.38873">
        <ele>649</ele>
        <time>2019-09-07T17:49:55Z</time>
      </trkpt>
      <trkpt lat="43.2885" lon="6.38814">
        <ele>651</ele>
        <time>2019-09-07T17:50:11Z</time>
      </trkpt>
      <trkpt lat="43.28836" lon="6.38793">
        <ele>652</ele>
        <time>2019-09-07T17:50:15Z</time>
      </trkpt>
      <trkpt lat="43.28825" lon="6.38759">
        <ele>653</ele>
        <time>2019-09-07T17:50:20Z</time>
      </trkpt>
      <trkpt lat="43.28821" lon="6.38722">
        <ele>653</ele>
        <time>2019-09-07T17:50:24Z</time>
      </trkpt>
      <trkpt lat="43.28825" lon="6.38688">
        <ele>653</ele>
        <time>2019-09-07T17:50:29Z</time>
      </trkpt>
      <trkpt lat="43.28842" lon="6.38619">
        <ele>651</ele>
        <time>2019-09-07T17:50:38Z</time>
      </trkpt>
      <trkpt lat="43.28852" lon="6.38593">
        <ele>650</ele>
        <time>2019-09-07T17:50:42Z</time>
      </trkpt>
      <trkpt lat="43.28866" lon="6.38574">
        <ele>650</ele>
        <time>2019-09-07T17:50:46Z</time>
      </trkpt>
      <trkpt lat="43.28883" lon="6.38556">
        <ele>651</ele>
        <time>2019-09-07T17:50:49Z</time>
      </trkpt>
      <trkpt lat="43.28928" lon="6.38522">
        <ele>652</ele>
        <time>2019-09-07T17:50:59Z</time>
      </trkpt>
      <trkpt lat="43.28948" lon="6.38501">
        <ele>651</ele>
        <time>2019-09-07T17:51:03Z</time>
      </trkpt>
      <trkpt lat="43.28958" lon="6.38475">
        <ele>652</ele>
        <time>2019-09-07T17:51:07Z</time>
      </trkpt>
      <trkpt lat="43.28964" lon="6.38427">
        <ele>653</ele>
        <time>2019-09-07T17:51:13Z</time>
      </trkpt>
      <trkpt lat="43.28966" lon="6.38363">
        <ele>654</ele>
        <time>2019-09-07T17:51:21Z</time>
      </trkpt>
      <trkpt lat="43.28975" lon="6.38318">
        <ele>656</ele>
        <time>2019-09-07T17:51:27Z</time>
      </trkpt>
      <trkpt lat="43.28993" lon="6.38258">
        <ele>655</ele>
        <time>2019-09-07T17:51:36Z</time>
      </trkpt>
      <trkpt lat="43.28996" lon="6.38232">
        <ele>655</ele>
        <time>2019-09-07T17:51:39Z</time>
      </trkpt>
      <trkpt lat="43.28995" lon="6.38215">
        <ele>655</ele>
        <time>2019-09-07T17:51:42Z</time>
      </trkpt>
      <trkpt lat="43.28979" lon="6.38107">
        <ele>652</ele>
        <time>2019-09-07T17:51:56Z</time>
      </trkpt>
      <trkpt lat="43.28974" lon="6.38084">
        <ele>652</ele>
        <time>2019-09-07T17:51:59Z</time>
      </trkpt>
      <trkpt lat="43.28966" lon="6.38062">
        <ele>651</ele>
        <time>2019-09-07T17:52:02Z</time>
      </trkpt>
      <trkpt lat="43.28944" lon="6.38023">
        <ele>649</ele>
        <time>2019-09-07T17:52:08Z</time>
      </trkpt>
      <trkpt lat="43.28921" lon="6.37993">
        <ele>650</ele>
        <time>2019-09-07T17:52:14Z</time>
      </trkpt>
      <trkpt lat="43.28887" lon="6.37966">
        <ele>649</ele>
        <time>2019-09-07T17:52:21Z</time>
      </trkpt>
      <trkpt lat="43.28865" lon="6.37952">
        <ele>649</ele>
        <time>2019-09-07T17:52:25Z</time>
      </trkpt>
      <trkpt lat="43.28716" lon="6.37873">
        <ele>646</ele>
        <time>2019-09-07T17:52:54Z</time>
      </trkpt>
      <trkpt lat="43.28681" lon="6.3785">
        <ele>646</ele>
        <time>2019-09-07T17:53:01Z</time>
      </trkpt>
      <trkpt lat="43.28377" lon="6.37571">
        <ele>621</ele>
        <time>2019-09-07T17:54:06Z</time>
      </trkpt>
      <trkpt lat="43.28377" lon="6.37573">
        <ele>621</ele>
        <time>2019-09-07T17:54:06Z</time>
      </trkpt>
      <trkpt lat="43.28157" lon="6.37374">
        <ele>617</ele>
        <time>2019-09-07T17:54:53Z</time>
      </trkpt>
      <trkpt lat="43.28133" lon="6.37354">
        <ele>616</ele>
        <time>2019-09-07T17:54:58Z</time>
      </trkpt>
      <trkpt lat="43.27911" lon="6.37193">
        <ele>606</ele>
        <time>2019-09-07T17:55:43Z</time>
      </trkpt>
      <trkpt lat="43.27875" lon="6.37157">
        <ele>605</ele>
        <time>2019-09-07T17:55:50Z</time>
      </trkpt>
      <trkpt lat="43.27853" lon="6.37131">
        <ele>603</ele>
        <time>2019-09-07T17:55:56Z</time>
      </trkpt>
      <trkpt lat="43.2783" lon="6.37084">
        <ele>602</ele>
        <time>2019-09-07T17:56:03Z</time>
      </trkpt>
      <trkpt lat="43.27816" lon="6.37033">
        <ele>603</ele>
        <time>2019-09-07T17:56:10Z</time>
      </trkpt>
      <trkpt lat="43.27813" lon="6.37012">
        <ele>603</ele>
        <time>2019-09-07T17:56:13Z</time>
      </trkpt>
      <trkpt lat="43.27815" lon="6.36986">
        <ele>602</ele>
        <time>2019-09-07T17:56:16Z</time>
      </trkpt>
      <trkpt lat="43.27822" lon="6.36979">
        <ele>600</ele>
        <time>2019-09-07T17:56:18Z</time>
      </trkpt>
      <trkpt lat="43.27835" lon="6.36972">
        <ele>597</ele>
        <time>2019-09-07T17:56:20Z</time>
      </trkpt>
      <trkpt lat="43.27844" lon="6.3696">
        <ele>594</ele>
        <time>2019-09-07T17:56:22Z</time>
      </trkpt>
      <trkpt lat="43.27851" lon="6.36941">
        <ele>592</ele>
        <time>2019-09-07T17:56:25Z</time>
      </trkpt>
      <trkpt lat="43.2786" lon="6.36903">
        <ele>587</ele>
        <time>2019-09-07T17:56:30Z</time>
      </trkpt>
      <trkpt lat="43.27859" lon="6.36883">
        <ele>585</ele>
        <time>2019-09-07T17:56:33Z</time>
      </trkpt>
      <trkpt lat="43.27855" lon="6.36874">
        <ele>586</ele>
        <time>2019-09-07T17:56:34Z</time>
      </trkpt>
      <trkpt lat="43.27822" lon="6.36849">
        <ele>594</ele>
        <time>2019-09-07T17:56:41Z</time>
      </trkpt>
      <trkpt lat="43.27814" lon="6.36837">
        <ele>595</ele>
        <time>2019-09-07T17:56:43Z</time>
      </trkpt>
      <trkpt lat="43.27812" lon="6.36819">
        <ele>595</ele>
        <time>2019-09-07T17:56:46Z</time>
      </trkpt>
      <trkpt lat="43.27816" lon="6.36768">
        <ele>591</ele>
        <time>2019-09-07T17:56:52Z</time>
      </trkpt>
      <trkpt lat="43.27813" lon="6.36724">
        <ele>593</ele>
        <time>2019-09-07T17:56:58Z</time>
      </trkpt>
      <trkpt lat="43.27815" lon="6.367">
        <ele>594</ele>
        <time>2019-09-07T17:57:01Z</time>
      </trkpt>
      <trkpt lat="43.27819" lon="6.36688">
        <ele>594</ele>
        <time>2019-09-07T17:57:03Z</time>
      </trkpt>
      <trkpt lat="43.27829" lon="6.36669">
        <ele>595</ele>
        <time>2019-09-07T17:57:06Z</time>
      </trkpt>
      <trkpt lat="43.2785" lon="6.36652">
        <ele>592</ele>
        <time>2019-09-07T17:57:10Z</time>
      </trkpt>
      <trkpt lat="43.27871" lon="6.36644">
        <ele>589</ele>
        <time>2019-09-07T17:57:14Z</time>
      </trkpt>
      <trkpt lat="43.27898" lon="6.3664">
        <ele>587</ele>
        <time>2019-09-07T17:57:19Z</time>
      </trkpt>
      <trkpt lat="43.27928" lon="6.36641">
        <ele>582</ele>
        <time>2019-09-07T17:57:24Z</time>
      </trkpt>
      <trkpt lat="43.2796" lon="6.36632">
        <ele>579</ele>
        <time>2019-09-07T17:57:30Z</time>
      </trkpt>
      <trkpt lat="43.2798" lon="6.36623">
        <ele>578</ele>
        <time>2019-09-07T17:57:34Z</time>
      </trkpt>
      <trkpt lat="43.27996" lon="6.36608">
        <ele>579</ele>
        <time>2019-09-07T17:57:37Z</time>
      </trkpt>
      <trkpt lat="43.28014" lon="6.36586">
        <ele>578</ele>
        <time>2019-09-07T17:57:41Z</time>
      </trkpt>
      <trkpt lat="43.28052" lon="6.36555">
        <ele>568</ele>
        <time>2019-09-07T17:57:49Z</time>
      </trkpt>
      <trkpt lat="43.28061" lon="6.36542">
        <ele>566</ele>
        <time>2019-09-07T17:57:52Z</time>
      </trkpt>
      <trkpt lat="43.28079" lon="6.36504">
        <ele>567</ele>
        <time>2019-09-07T17:57:58Z</time>
      </trkpt>
      <trkpt lat="43.28088" lon="6.36464">
        <ele>565</ele>
        <time>2019-09-07T17:58:03Z</time>
      </trkpt>
      <trkpt lat="43.28088" lon="6.36421">
        <ele>566</ele>
        <time>2019-09-07T17:58:09Z</time>
      </trkpt>
      <trkpt lat="43.281" lon="6.3633">
        <ele>561</ele>
        <time>2019-09-07T17:58:20Z</time>
      </trkpt>
      <trkpt lat="43.28096" lon="6.36278">
        <ele>560</ele>
        <time>2019-09-07T17:58:27Z</time>
      </trkpt>
      <trkpt lat="43.28109" lon="6.36257">
        <ele>559</ele>
        <time>2019-09-07T17:58:31Z</time>
      </trkpt>
      <trkpt lat="43.28124" lon="6.36239">
        <ele>560</ele>
        <time>2019-09-07T17:58:34Z</time>
      </trkpt>
      <trkpt lat="43.28139" lon="6.36226">
        <ele>562</ele>
        <time>2019-09-07T17:58:38Z</time>
      </trkpt>
      <trkpt lat="43.28194" lon="6.36184">
        <ele>569</ele>
        <time>2019-09-07T17:58:49Z</time>
      </trkpt>
      <trkpt lat="43.2827" lon="6.36119">
        <ele>580</ele>
        <time>2019-09-07T17:59:05Z</time>
      </trkpt>
      <trkpt lat="43.28302" lon="6.36094">
        <ele>584</ele>
        <time>2019-09-07T17:59:11Z</time>
      </trkpt>
      <trkpt lat="43.28311" lon="6.3609">
        <ele>585</ele>
        <time>2019-09-07T17:59:13Z</time>
      </trkpt>
      <trkpt lat="43.28335" lon="6.36084">
        <ele>585</ele>
        <time>2019-09-07T17:59:17Z</time>
      </trkpt>
      <trkpt lat="43.28359" lon="6.36086">
        <ele>587</ele>
        <time>2019-09-07T17:59:22Z</time>
      </trkpt>
      <trkpt lat="43.28407" lon="6.36124">
        <ele>584</ele>
        <time>2019-09-07T17:59:31Z</time>
      </trkpt>
      <trkpt lat="43.28423" lon="6.36131">
        <ele>584</ele>
        <time>2019-09-07T17:59:34Z</time>
      </trkpt>
      <trkpt lat="43.28446" lon="6.36136">
        <ele>583</ele>
        <time>2019-09-07T17:59:39Z</time>
      </trkpt>
      <trkpt lat="43.28466" lon="6.36135">
        <ele>583</ele>
        <time>2019-09-07T17:59:42Z</time>
      </trkpt>
      <trkpt lat="43.28482" lon="6.3613">
        <ele>583</ele>
        <time>2019-09-07T17:59:45Z</time>
      </trkpt>
      <trkpt lat="43.28496" lon="6.36118">
        <ele>583</ele>
        <time>2019-09-07T17:59:48Z</time>
      </trkpt>
      <trkpt lat="43.28497" lon="6.36114">
        <ele>584</ele>
        <time>2019-09-07T17:59:48Z</time>
      </trkpt>
      <trkpt lat="43.28495" lon="6.36095">
        <ele>585</ele>
        <time>2019-09-07T17:59:51Z</time>
      </trkpt>
      <trkpt lat="43.28491" lon="6.3609">
        <ele>585</ele>
        <time>2019-09-07T17:59:52Z</time>
      </trkpt>
      <trkpt lat="43.28483" lon="6.36086">
        <ele>586</ele>
        <time>2019-09-07T17:59:53Z</time>
      </trkpt>
      <trkpt lat="43.28474" lon="6.36087">
        <ele>587</ele>
        <time>2019-09-07T17:59:55Z</time>
      </trkpt>
      <trkpt lat="43.28454" lon="6.36095">
        <ele>588</ele>
        <time>2019-09-07T17:59:59Z</time>
      </trkpt>
      <trkpt lat="43.28442" lon="6.36095">
        <ele>588</ele>
        <time>2019-09-07T18:00:01Z</time>
      </trkpt>
      <trkpt lat="43.28389" lon="6.36038">
        <ele>596</ele>
        <time>2019-09-07T18:00:13Z</time>
      </trkpt>
      <trkpt lat="43.28364" lon="6.36025">
        <ele>599</ele>
        <time>2019-09-07T18:00:18Z</time>
      </trkpt>
      <trkpt lat="43.28299" lon="6.36014">
        <ele>605</ele>
        <time>2019-09-07T18:00:29Z</time>
      </trkpt>
      <trkpt lat="43.28231" lon="6.36014">
        <ele>603</ele>
        <time>2019-09-07T18:00:41Z</time>
      </trkpt>
      <trkpt lat="43.2822" lon="6.36009">
        <ele>603</ele>
        <time>2019-09-07T18:00:43Z</time>
      </trkpt>
      <trkpt lat="43.28213" lon="6.36003">
        <ele>603</ele>
        <time>2019-09-07T18:00:45Z</time>
      </trkpt>
      <trkpt lat="43.28203" lon="6.3598">
        <ele>604</ele>
        <time>2019-09-07T18:00:48Z</time>
      </trkpt>
      <trkpt lat="43.28163" lon="6.35849">
        <ele>616</ele>
        <time>2019-09-07T18:01:07Z</time>
      </trkpt>
      <trkpt lat="43.28151" lon="6.35833">
        <ele>617</ele>
        <time>2019-09-07T18:01:10Z</time>
      </trkpt>
      <trkpt lat="43.28137" lon="6.35822">
        <ele>618</ele>
        <time>2019-09-07T18:01:13Z</time>
      </trkpt>
      <trkpt lat="43.28064" lon="6.35792">
        <ele>614</ele>
        <time>2019-09-07T18:01:26Z</time>
      </trkpt>
      <trkpt lat="43.28054" lon="6.3578">
        <ele>615</ele>
        <time>2019-09-07T18:01:29Z</time>
      </trkpt>
      <trkpt lat="43.28049" lon="6.35765">
        <ele>618</ele>
        <time>2019-09-07T18:01:31Z</time>
      </trkpt>
      <trkpt lat="43.28036" lon="6.35661">
        <ele>635</ele>
        <time>2019-09-07T18:01:44Z</time>
      </trkpt>
      <trkpt lat="43.2803" lon="6.35652">
        <ele>636</ele>
        <time>2019-09-07T18:01:46Z</time>
      </trkpt>
      <trkpt lat="43.28025" lon="6.35649">
        <ele>635</ele>
        <time>2019-09-07T18:01:47Z</time>
      </trkpt>
      <trkpt lat="43.27994" lon="6.35644">
        <ele>631</ele>
        <time>2019-09-07T18:01:52Z</time>
      </trkpt>
      <trkpt lat="43.27963" lon="6.35631">
        <ele>631</ele>
        <time>2019-09-07T18:01:58Z</time>
      </trkpt>
      <trkpt lat="43.27947" lon="6.35612">
        <ele>634</ele>
        <time>2019-09-07T18:02:02Z</time>
      </trkpt>
      <trkpt lat="43.27936" lon="6.35591">
        <ele>638</ele>
        <time>2019-09-07T18:02:05Z</time>
      </trkpt>
      <trkpt lat="43.27927" lon="6.35585">
        <ele>639</ele>
        <time>2019-09-07T18:02:07Z</time>
      </trkpt>
      <trkpt lat="43.27891" lon="6.35586">
        <ele>637</ele>
        <time>2019-09-07T18:02:14Z</time>
      </trkpt>
      <trkpt lat="43.27827" lon="6.35568">
        <ele>636</ele>
        <time>2019-09-07T18:02:25Z</time>
      </trkpt>
      <trkpt lat="43.27819" lon="6.35561">
        <ele>635</ele>
        <time>2019-09-07T18:02:27Z</time>
      </trkpt>
      <trkpt lat="43.27818" lon="6.35553">
        <ele>634</ele>
        <time>2019-09-07T18:02:28Z</time>
      </trkpt>
      <trkpt lat="43.27821" lon="6.35537">
        <ele>632</ele>
        <time>2019-09-07T18:02:30Z</time>
      </trkpt>
      <trkpt lat="43.2785" lon="6.3548">
        <ele>633</ele>
        <time>2019-09-07T18:02:39Z</time>
      </trkpt>
      <trkpt lat="43.27854" lon="6.35465">
        <ele>633</ele>
        <time>2019-09-07T18:02:41Z</time>
      </trkpt>
      <trkpt lat="43.27869" lon="6.35369">
        <ele>629</ele>
        <time>2019-09-07T18:02:54Z</time>
      </trkpt>
      <trkpt lat="43.27891" lon="6.35272">
        <ele>629</ele>
        <time>2019-09-07T18:03:07Z</time>
      </trkpt>
      <trkpt lat="43.2789" lon="6.35254">
        <ele>627</ele>
        <time>2019-09-07T18:03:09Z</time>
      </trkpt>
      <trkpt lat="43.27883" lon="6.35225">
        <ele>617</ele>
        <time>2019-09-07T18:03:13Z</time>
      </trkpt>
      <trkpt lat="43.27883" lon="6.35216">
        <ele>616</ele>
        <time>2019-09-07T18:03:14Z</time>
      </trkpt>
      <trkpt lat="43.27889" lon="6.35193">
        <ele>616</ele>
        <time>2019-09-07T18:03:18Z</time>
      </trkpt>
      <trkpt lat="43.27908" lon="6.35139">
        <ele>617</ele>
        <time>2019-09-07T18:03:25Z</time>
      </trkpt>
      <trkpt lat="43.27922" lon="6.35109">
        <ele>617</ele>
        <time>2019-09-07T18:03:30Z</time>
      </trkpt>
      <trkpt lat="43.2793" lon="6.35099">
        <ele>617</ele>
        <time>2019-09-07T18:03:32Z</time>
      </trkpt>
      <trkpt lat="43.27965" lon="6.35069">
        <ele>619</ele>
        <time>2019-09-07T18:03:39Z</time>
      </trkpt>
      <trkpt lat="43.27981" lon="6.35047">
        <ele>619</ele>
        <time>2019-09-07T18:03:43Z</time>
      </trkpt>
      <trkpt lat="43.27991" lon="6.35021">
        <ele>618</ele>
        <time>2019-09-07T18:03:47Z</time>
      </trkpt>
      <trkpt lat="43.27988" lon="6.34893">
        <ele>611</ele>
        <time>2019-09-07T18:04:04Z</time>
      </trkpt>
      <trkpt lat="43.27988" lon="6.34876">
        <ele>611</ele>
        <time>2019-09-07T18:04:06Z</time>
      </trkpt>
      <trkpt lat="43.27991" lon="6.34867">
        <ele>612</ele>
        <time>2019-09-07T18:04:07Z</time>
      </trkpt>
      <trkpt lat="43.28001" lon="6.34853">
        <ele>614</ele>
        <time>2019-09-07T18:04:10Z</time>
      </trkpt>
      <trkpt lat="43.28029" lon="6.34834">
        <ele>612</ele>
        <time>2019-09-07T18:04:15Z</time>
      </trkpt>
      <trkpt lat="43.28053" lon="6.34809">
        <ele>612</ele>
        <time>2019-09-07T18:04:21Z</time>
      </trkpt>
      <trkpt lat="43.28067" lon="6.34788">
        <ele>614</ele>
        <time>2019-09-07T18:04:24Z</time>
      </trkpt>
      <trkpt lat="43.28085" lon="6.34753">
        <ele>617</ele>
        <time>2019-09-07T18:04:30Z</time>
      </trkpt>
      <trkpt lat="43.28107" lon="6.3472">
        <ele>615</ele>
        <time>2019-09-07T18:04:36Z</time>
      </trkpt>
      <trkpt lat="43.28174" lon="6.3465">
        <ele>601</ele>
        <time>2019-09-07T18:04:51Z</time>
      </trkpt>
      <trkpt lat="43.28177" lon="6.34643">
        <ele>600</ele>
        <time>2019-09-07T18:04:52Z</time>
      </trkpt>
      <trkpt lat="43.28177" lon="6.34634">
        <ele>601</ele>
        <time>2019-09-07T18:04:53Z</time>
      </trkpt>
      <trkpt lat="43.28165" lon="6.34568">
        <ele>615</ele>
        <time>2019-09-07T18:05:02Z</time>
      </trkpt>
      <trkpt lat="43.28165" lon="6.34541">
        <ele>619</ele>
        <time>2019-09-07T18:05:05Z</time>
      </trkpt>
      <trkpt lat="43.28167" lon="6.34533">
        <ele>619</ele>
        <time>2019-09-07T18:05:06Z</time>
      </trkpt>
      <trkpt lat="43.28183" lon="6.34509">
        <ele>615</ele>
        <time>2019-09-07T18:05:10Z</time>
      </trkpt>
      <trkpt lat="43.28227" lon="6.34467">
        <ele>601</ele>
        <time>2019-09-07T18:05:20Z</time>
      </trkpt>
      <trkpt lat="43.2824" lon="6.34412">
        <ele>600</ele>
        <time>2019-09-07T18:05:27Z</time>
      </trkpt>
      <trkpt lat="43.28237" lon="6.34385">
        <ele>598</ele>
        <time>2019-09-07T18:05:31Z</time>
      </trkpt>
      <trkpt lat="43.28223" lon="6.34357">
        <ele>601</ele>
        <time>2019-09-07T18:05:35Z</time>
      </trkpt>
      <trkpt lat="43.28167" lon="6.34274">
        <ele>610</ele>
        <time>2019-09-07T18:05:50Z</time>
      </trkpt>
      <trkpt lat="43.28157" lon="6.34252">
        <ele>611</ele>
        <time>2019-09-07T18:05:53Z</time>
      </trkpt>
      <trkpt lat="43.28155" lon="6.34236">
        <ele>610</ele>
        <time>2019-09-07T18:05:56Z</time>
      </trkpt>
      <trkpt lat="43.28166" lon="6.34168">
        <ele>599</ele>
        <time>2019-09-07T18:06:05Z</time>
      </trkpt>
      <trkpt lat="43.28165" lon="6.3415">
        <ele>599</ele>
        <time>2019-09-07T18:06:07Z</time>
      </trkpt>
      <trkpt lat="43.28151" lon="6.3408">
        <ele>604</ele>
        <time>2019-09-07T18:06:16Z</time>
      </trkpt>
      <trkpt lat="43.28151" lon="6.34062">
        <ele>605</ele>
        <time>2019-09-07T18:06:19Z</time>
      </trkpt>
      <trkpt lat="43.28156" lon="6.34039">
        <ele>603</ele>
        <time>2019-09-07T18:06:22Z</time>
      </trkpt>
      <trkpt lat="43.28172" lon="6.33989">
        <ele>595</ele>
        <time>2019-09-07T18:06:29Z</time>
      </trkpt>
      <trkpt lat="43.2818" lon="6.33904">
        <ele>595</ele>
        <time>2019-09-07T18:06:40Z</time>
      </trkpt>
      <trkpt lat="43.28189" lon="6.33865">
        <ele>600</ele>
        <time>2019-09-07T18:06:45Z</time>
      </trkpt>
      <trkpt lat="43.28194" lon="6.33857">
        <ele>600</ele>
        <time>2019-09-07T18:06:47Z</time>
      </trkpt>
      <trkpt lat="43.28204" lon="6.33852">
        <ele>598</ele>
        <time>2019-09-07T18:06:48Z</time>
      </trkpt>
      <trkpt lat="43.28213" lon="6.33851">
        <ele>596</ele>
        <time>2019-09-07T18:06:50Z</time>
      </trkpt>
      <trkpt lat="43.28226" lon="6.33852">
        <ele>591</ele>
        <time>2019-09-07T18:06:52Z</time>
      </trkpt>
      <trkpt lat="43.28262" lon="6.33867">
        <ele>577</ele>
        <time>2019-09-07T18:06:59Z</time>
      </trkpt>
      <trkpt lat="43.28299" lon="6.33867">
        <ele>567</ele>
        <time>2019-09-07T18:07:06Z</time>
      </trkpt>
      <trkpt lat="43.28304" lon="6.33862">
        <ele>567</ele>
        <time>2019-09-07T18:07:07Z</time>
      </trkpt>
      <trkpt lat="43.28319" lon="6.33777">
        <ele>570</ele>
        <time>2019-09-07T18:07:18Z</time>
      </trkpt>
      <trkpt lat="43.28323" lon="6.33729">
        <ele>567</ele>
        <time>2019-09-07T18:07:24Z</time>
      </trkpt>
      <trkpt lat="43.2832" lon="6.33699">
        <ele>565</ele>
        <time>2019-09-07T18:07:28Z</time>
      </trkpt>
      <trkpt lat="43.28313" lon="6.33687">
        <ele>566</ele>
        <time>2019-09-07T18:07:30Z</time>
      </trkpt>
      <trkpt lat="43.28232" lon="6.33601">
        <ele>579</ele>
        <time>2019-09-07T18:07:49Z</time>
      </trkpt>
      <trkpt lat="43.2823" lon="6.33595">
        <ele>579</ele>
        <time>2019-09-07T18:07:49Z</time>
      </trkpt>
      <trkpt lat="43.28231" lon="6.33583">
        <ele>577</ele>
        <time>2019-09-07T18:07:51Z</time>
      </trkpt>
      <trkpt lat="43.28236" lon="6.33573">
        <ele>574</ele>
        <time>2019-09-07T18:07:52Z</time>
      </trkpt>
      <trkpt lat="43.28242" lon="6.33547">
        <ele>569</ele>
        <time>2019-09-07T18:07:56Z</time>
      </trkpt>
      <trkpt lat="43.28243" lon="6.33535">
        <ele>568</ele>
        <time>2019-09-07T18:07:58Z</time>
      </trkpt>
      <trkpt lat="43.28242" lon="6.33521">
        <ele>567</ele>
        <time>2019-09-07T18:07:59Z</time>
      </trkpt>
      <trkpt lat="43.2823" lon="6.33474">
        <ele>571</ele>
        <time>2019-09-07T18:08:06Z</time>
      </trkpt>
      <trkpt lat="43.28229" lon="6.33434">
        <ele>571</ele>
        <time>2019-09-07T18:08:11Z</time>
      </trkpt>
      <trkpt lat="43.28232" lon="6.3341">
        <ele>569</ele>
        <time>2019-09-07T18:08:14Z</time>
      </trkpt>
      <trkpt lat="43.28243" lon="6.33366">
        <ele>569</ele>
        <time>2019-09-07T18:08:20Z</time>
      </trkpt>
      <trkpt lat="43.28257" lon="6.3334">
        <ele>566</ele>
        <time>2019-09-07T18:08:24Z</time>
      </trkpt>
      <trkpt lat="43.28271" lon="6.33328">
        <ele>564</ele>
        <time>2019-09-07T18:08:27Z</time>
      </trkpt>
      <trkpt lat="43.283" lon="6.33307">
        <ele>560</ele>
        <time>2019-09-07T18:08:33Z</time>
      </trkpt>
      <trkpt lat="43.28341" lon="6.33288">
        <ele>550</ele>
        <time>2019-09-07T18:08:41Z</time>
      </trkpt>
      <trkpt lat="43.2835" lon="6.33281">
        <ele>548</ele>
        <time>2019-09-07T18:08:43Z</time>
      </trkpt>
      <trkpt lat="43.28356" lon="6.3325">
        <ele>553</ele>
        <time>2019-09-07T18:08:47Z</time>
      </trkpt>
      <trkpt lat="43.28364" lon="6.33171">
        <ele>561</ele>
        <time>2019-09-07T18:08:57Z</time>
      </trkpt>
      <trkpt lat="43.2837" lon="6.33162">
        <ele>561</ele>
        <time>2019-09-07T18:08:59Z</time>
      </trkpt>
      <trkpt lat="43.28383" lon="6.3315">
        <ele>560</ele>
        <time>2019-09-07T18:09:02Z</time>
      </trkpt>
      <trkpt lat="43.28419" lon="6.33129">
        <ele>555</ele>
        <time>2019-09-07T18:09:09Z</time>
      </trkpt>
      <trkpt lat="43.28484" lon="6.33122">
        <ele>548</ele>
        <time>2019-09-07T18:09:20Z</time>
      </trkpt>
      <trkpt lat="43.28566" lon="6.33117">
        <ele>536</ele>
        <time>2019-09-07T18:09:35Z</time>
      </trkpt>
      <trkpt lat="43.28577" lon="6.33112">
        <ele>535</ele>
        <time>2019-09-07T18:09:37Z</time>
      </trkpt>
      <trkpt lat="43.28591" lon="6.33096">
        <ele>535</ele>
        <time>2019-09-07T18:09:40Z</time>
      </trkpt>
      <trkpt lat="43.286" lon="6.33071">
        <ele>534</ele>
        <time>2019-09-07T18:09:44Z</time>
      </trkpt>
      <trkpt lat="43.28599" lon="6.33034">
        <ele>535</ele>
        <time>2019-09-07T18:09:48Z</time>
      </trkpt>
      <trkpt lat="43.28576" lon="6.32868">
        <ele>534</ele>
        <time>2019-09-07T18:10:10Z</time>
      </trkpt>
      <trkpt lat="43.28578" lon="6.32854">
        <ele>532</ele>
        <time>2019-09-07T18:10:12Z</time>
      </trkpt>
      <trkpt lat="43.28583" lon="6.32843">
        <ele>530</ele>
        <time>2019-09-07T18:10:14Z</time>
      </trkpt>
      <trkpt lat="43.28628" lon="6.3278">
        <ele>512</ele>
        <time>2019-09-07T18:10:25Z</time>
      </trkpt>
      <trkpt lat="43.2863" lon="6.32784">
        <ele>512</ele>
        <time>2019-09-07T18:10:26Z</time>
      </trkpt>
      <trkpt lat="43.28628" lon="6.3278">
        <ele>512</ele>
        <time>2019-09-07T18:10:27Z</time>
      </trkpt>
      <trkpt lat="43.28618" lon="6.32776">
        <ele>513</ele>
        <time>2019-09-07T18:10:28Z</time>
      </trkpt>
      <trkpt lat="43.28598" lon="6.32773">
        <ele>516</ele>
        <time>2019-09-07T18:10:32Z</time>
      </trkpt>
      <trkpt lat="43.28559" lon="6.32776">
        <ele>524</ele>
        <time>2019-09-07T18:10:39Z</time>
      </trkpt>
      <trkpt lat="43.2852" lon="6.32769">
        <ele>529</ele>
        <time>2019-09-07T18:10:46Z</time>
      </trkpt>
      <trkpt lat="43.28508" lon="6.32764">
        <ele>529</ele>
        <time>2019-09-07T18:10:48Z</time>
      </trkpt>
      <trkpt lat="43.28477" lon="6.32734">
        <ele>527</ele>
        <time>2019-09-07T18:10:55Z</time>
      </trkpt>
      <trkpt lat="43.28438" lon="6.32721">
        <ele>532</ele>
        <time>2019-09-07T18:11:02Z</time>
      </trkpt>
      <trkpt lat="43.28412" lon="6.32718">
        <ele>537</ele>
        <time>2019-09-07T18:11:07Z</time>
      </trkpt>
      <trkpt lat="43.28383" lon="6.32704">
        <ele>536</ele>
        <time>2019-09-07T18:11:12Z</time>
      </trkpt>
      <trkpt lat="43.28341" lon="6.32667">
        <ele>536</ele>
        <time>2019-09-07T18:11:21Z</time>
      </trkpt>
      <trkpt lat="43.2832" lon="6.32644">
        <ele>533</ele>
        <time>2019-09-07T18:11:26Z</time>
      </trkpt>
      <trkpt lat="43.28315" lon="6.32646">
        <ele>532</ele>
        <time>2019-09-07T18:11:27Z</time>
      </trkpt>
      <trkpt lat="43.28303" lon="6.32597">
        <ele>529</ele>
        <time>2019-09-07T18:11:33Z</time>
      </trkpt>
      <trkpt lat="43.28301" lon="6.32549">
        <ele>531</ele>
        <time>2019-09-07T18:11:40Z</time>
      </trkpt>
      <trkpt lat="43.28301" lon="6.32498">
        <ele>535</ele>
        <time>2019-09-07T18:11:46Z</time>
      </trkpt>
      <trkpt lat="43.28312" lon="6.32429">
        <ele>534</ele>
        <time>2019-09-07T18:11:55Z</time>
      </trkpt>
      <trkpt lat="43.28317" lon="6.32376">
        <ele>532</ele>
        <time>2019-09-07T18:12:02Z</time>
      </trkpt>
      <trkpt lat="43.28314" lon="6.32293">
        <ele>528</ele>
        <time>2019-09-07T18:12:13Z</time>
      </trkpt>
      <trkpt lat="43.28309" lon="6.32258">
        <ele>526</ele>
        <time>2019-09-07T18:12:18Z</time>
      </trkpt>
      <trkpt lat="43.28295" lon="6.32224">
        <ele>525</ele>
        <time>2019-09-07T18:12:23Z</time>
      </trkpt>
      <trkpt lat="43.28284" lon="6.32182">
        <ele>525</ele>
        <time>2019-09-07T18:12:29Z</time>
      </trkpt>
      <trkpt lat="43.28277" lon="6.32114">
        <ele>532</ele>
        <time>2019-09-07T18:12:37Z</time>
      </trkpt>
      <trkpt lat="43.2827" lon="6.32078">
        <ele>536</ele>
        <time>2019-09-07T18:12:42Z</time>
      </trkpt>
      <trkpt lat="43.28257" lon="6.32043">
        <ele>541</ele>
        <time>2019-09-07T18:12:47Z</time>
      </trkpt>
      <trkpt lat="43.28238" lon="6.32004">
        <ele>542</ele>
        <time>2019-09-07T18:12:53Z</time>
      </trkpt>
      <trkpt lat="43.28243" lon="6.3199">
        <ele>543</ele>
        <time>2019-09-07T18:12:55Z</time>
      </trkpt>
      <trkpt lat="43.28253" lon="6.31973">
        <ele>544</ele>
        <time>2019-09-07T18:12:58Z</time>
      </trkpt>
      <trkpt lat="43.28269" lon="6.31958">
        <ele>543</ele>
        <time>2019-09-07T18:13:02Z</time>
      </trkpt>
      <trkpt lat="43.28313" lon="6.31926">
        <ele>547</ele>
        <time>2019-09-07T18:13:11Z</time>
      </trkpt>
      <trkpt lat="43.28334" lon="6.31901">
        <ele>550</ele>
        <time>2019-09-07T18:13:16Z</time>
      </trkpt>
      <trkpt lat="43.28347" lon="6.31878">
        <ele>547</ele>
        <time>2019-09-07T18:13:19Z</time>
      </trkpt>
      <trkpt lat="43.28351" lon="6.31862">
        <ele>547</ele>
        <time>2019-09-07T18:13:22Z</time>
      </trkpt>
      <trkpt lat="43.28369" lon="6.31817">
        <ele>548</ele>
        <time>2019-09-07T18:13:28Z</time>
      </trkpt>
      <trkpt lat="43.28392" lon="6.3174">
        <ele>557</ele>
        <time>2019-09-07T18:13:39Z</time>
      </trkpt>
      <trkpt lat="43.2841" lon="6.31699">
        <ele>564</ele>
        <time>2019-09-07T18:13:45Z</time>
      </trkpt>
      <trkpt lat="43.28422" lon="6.31652">
        <ele>568</ele>
        <time>2019-09-07T18:13:52Z</time>
      </trkpt>
      <trkpt lat="43.28428" lon="6.31552">
        <ele>572</ele>
        <time>2019-09-07T18:14:05Z</time>
      </trkpt>
      <trkpt lat="43.28426" lon="6.31496">
        <ele>571</ele>
        <time>2019-09-07T18:14:12Z</time>
      </trkpt>
      <trkpt lat="43.28431" lon="6.31456">
        <ele>571</ele>
        <time>2019-09-07T18:14:17Z</time>
      </trkpt>
      <trkpt lat="43.28441" lon="6.31433">
        <ele>573</ele>
        <time>2019-09-07T18:14:21Z</time>
      </trkpt>
      <trkpt lat="43.28458" lon="6.31419">
        <ele>579</ele>
        <time>2019-09-07T18:14:24Z</time>
      </trkpt>
      <trkpt lat="43.28483" lon="6.31409">
        <ele>587</ele>
        <time>2019-09-07T18:14:29Z</time>
      </trkpt>
      <trkpt lat="43.28493" lon="6.314">
        <ele>590</ele>
        <time>2019-09-07T18:14:31Z</time>
      </trkpt>
      <trkpt lat="43.28506" lon="6.31381">
        <ele>593</ele>
        <time>2019-09-07T18:14:34Z</time>
      </trkpt>
      <trkpt lat="43.28509" lon="6.31371">
        <ele>594</ele>
        <time>2019-09-07T18:14:36Z</time>
      </trkpt>
      <trkpt lat="43.28515" lon="6.31337">
        <ele>593</ele>
        <time>2019-09-07T18:14:40Z</time>
      </trkpt>
      <trkpt lat="43.28525" lon="6.31249">
        <ele>602</ele>
        <time>2019-09-07T18:14:52Z</time>
      </trkpt>
      <trkpt lat="43.28529" lon="6.31233">
        <ele>607</ele>
        <time>2019-09-07T18:14:54Z</time>
      </trkpt>
      <trkpt lat="43.28529" lon="6.31217">
        <ele>610</ele>
        <time>2019-09-07T18:14:56Z</time>
      </trkpt>
      <trkpt lat="43.28525" lon="6.31208">
        <ele>610</ele>
        <time>2019-09-07T18:14:57Z</time>
      </trkpt>
      <trkpt lat="43.28519" lon="6.31204">
        <ele>609</ele>
        <time>2019-09-07T18:14:59Z</time>
      </trkpt>
      <trkpt lat="43.2848" lon="6.312">
        <ele>600</ele>
        <time>2019-09-07T18:15:06Z</time>
      </trkpt>
      <trkpt lat="43.2845" lon="6.31182">
        <ele>600</ele>
        <time>2019-09-07T18:15:11Z</time>
      </trkpt>
      <trkpt lat="43.28438" lon="6.31168">
        <ele>601</ele>
        <time>2019-09-07T18:15:14Z</time>
      </trkpt>
      <trkpt lat="43.28399" lon="6.3111">
        <ele>606</ele>
        <time>2019-09-07T18:15:24Z</time>
      </trkpt>
      <trkpt lat="43.28399" lon="6.311">
        <ele>608</ele>
        <time>2019-09-07T18:15:26Z</time>
      </trkpt>
      <trkpt lat="43.28401" lon="6.31097">
        <ele>609</ele>
        <time>2019-09-07T18:15:26Z</time>
      </trkpt>
      <trkpt lat="43.28411" lon="6.31098">
        <ele>611</ele>
        <time>2019-09-07T18:15:28Z</time>
      </trkpt>
      <trkpt lat="43.28423" lon="6.31125">
        <ele>608</ele>
        <time>2019-09-07T18:15:32Z</time>
      </trkpt>
      <trkpt lat="43.2844" lon="6.31143">
        <ele>608</ele>
        <time>2019-09-07T18:15:36Z</time>
      </trkpt>
      <trkpt lat="43.28452" lon="6.31151">
        <ele>608</ele>
        <time>2019-09-07T18:15:38Z</time>
      </trkpt>
      <trkpt lat="43.28486" lon="6.3116">
        <ele>612</ele>
        <time>2019-09-07T18:15:44Z</time>
      </trkpt>
      <trkpt lat="43.28539" lon="6.31155">
        <ele>626</ele>
        <time>2019-09-07T18:15:54Z</time>
      </trkpt>
      <trkpt lat="43.28561" lon="6.31158">
        <ele>631</ele>
        <time>2019-09-07T18:15:58Z</time>
      </trkpt>
      <trkpt lat="43.28575" lon="6.31182">
        <ele>630</ele>
        <time>2019-09-07T18:16:02Z</time>
      </trkpt>
      <trkpt lat="43.28618" lon="6.31373">
        <ele>632</ele>
        <time>2019-09-07T18:16:28Z</time>
      </trkpt>
      <trkpt lat="43.28623" lon="6.31411">
        <ele>629</ele>
        <time>2019-09-07T18:16:33Z</time>
      </trkpt>
      <trkpt lat="43.28627" lon="6.31419">
        <ele>628</ele>
        <time>2019-09-07T18:16:34Z</time>
      </trkpt>
      <trkpt lat="43.2863" lon="6.3142">
        <ele>629</ele>
        <time>2019-09-07T18:16:34Z</time>
      </trkpt>
      <trkpt lat="43.28637" lon="6.31413">
        <ele>631</ele>
        <time>2019-09-07T18:16:36Z</time>
      </trkpt>
      <trkpt lat="43.28638" lon="6.31406">
        <ele>632</ele>
        <time>2019-09-07T18:16:37Z</time>
      </trkpt>
      <trkpt lat="43.28631" lon="6.31367">
        <ele>636</ele>
        <time>2019-09-07T18:16:42Z</time>
      </trkpt>
      <trkpt lat="43.28628" lon="6.3127">
        <ele>644</ele>
        <time>2019-09-07T18:16:55Z</time>
      </trkpt>
      <trkpt lat="43.28636" lon="6.31206">
        <ele>653</ele>
        <time>2019-09-07T18:17:03Z</time>
      </trkpt>
      <trkpt lat="43.28637" lon="6.3118">
        <ele>656</ele>
        <time>2019-09-07T18:17:07Z</time>
      </trkpt>
      <trkpt lat="43.28632" lon="6.31105">
        <ele>662</ele>
        <time>2019-09-07T18:17:16Z</time>
      </trkpt>
      <trkpt lat="43.28617" lon="6.31049">
        <ele>664</ele>
        <time>2019-09-07T18:17:24Z</time>
      </trkpt>
      <trkpt lat="43.28597" lon="6.3102">
        <ele>666</ele>
        <time>2019-09-07T18:17:29Z</time>
      </trkpt>
      <trkpt lat="43.28573" lon="6.31001">
        <ele>669</ele>
        <time>2019-09-07T18:17:34Z</time>
      </trkpt>
      <trkpt lat="43.28575" lon="6.30999">
        <ele>669</ele>
        <time>2019-09-07T18:17:35Z</time>
      </trkpt>
      <trkpt lat="43.28573" lon="6.31001">
        <ele>669</ele>
        <time>2019-09-07T18:17:35Z</time>
      </trkpt>
      <trkpt lat="43.28553" lon="6.30996">
        <ele>667</ele>
        <time>2019-09-07T18:17:39Z</time>
      </trkpt>
      <trkpt lat="43.28547" lon="6.30992">
        <ele>667</ele>
        <time>2019-09-07T18:17:40Z</time>
      </trkpt>
      <trkpt lat="43.28477" lon="6.3093">
        <ele>673</ele>
        <time>2019-09-07T18:17:55Z</time>
      </trkpt>
      <trkpt lat="43.28464" lon="6.3091">
        <ele>674</ele>
        <time>2019-09-07T18:17:58Z</time>
      </trkpt>
      <trkpt lat="43.28446" lon="6.30864">
        <ele>675</ele>
        <time>2019-09-07T18:18:05Z</time>
      </trkpt>
      <trkpt lat="43.28433" lon="6.30838">
        <ele>677</ele>
        <time>2019-09-07T18:18:09Z</time>
      </trkpt>
      <trkpt lat="43.28328" lon="6.30692">
        <ele>679</ele>
        <time>2019-09-07T18:18:36Z</time>
      </trkpt>
      <trkpt lat="43.2827" lon="6.30618">
        <ele>673</ele>
        <time>2019-09-07T18:18:50Z</time>
      </trkpt>
      <trkpt lat="43.2825" lon="6.30567">
        <ele>673</ele>
        <time>2019-09-07T18:18:57Z</time>
      </trkpt>
      <trkpt lat="43.28246" lon="6.30467">
        <ele>670</ele>
        <time>2019-09-07T18:19:10Z</time>
      </trkpt>
      <trkpt lat="43.28244" lon="6.30456">
        <ele>669</ele>
        <time>2019-09-07T18:19:12Z</time>
      </trkpt>
      <trkpt lat="43.28236" lon="6.30444">
        <ele>668</ele>
        <time>2019-09-07T18:19:14Z</time>
      </trkpt>
      <trkpt lat="43.28233" lon="6.30435">
        <ele>667</ele>
        <time>2019-09-07T18:19:15Z</time>
      </trkpt>
      <trkpt lat="43.28232" lon="6.30424">
        <ele>667</ele>
        <time>2019-09-07T18:19:16Z</time>
      </trkpt>
      <trkpt lat="43.28225" lon="6.30401">
        <ele>665</ele>
        <time>2019-09-07T18:19:20Z</time>
      </trkpt>
      <trkpt lat="43.28219" lon="6.30359">
        <ele>662</ele>
        <time>2019-09-07T18:19:25Z</time>
      </trkpt>
      <trkpt lat="43.28219" lon="6.30344">
        <ele>661</ele>
        <time>2019-09-07T18:19:27Z</time>
      </trkpt>
      <trkpt lat="43.28226" lon="6.30305">
        <ele>662</ele>
        <time>2019-09-07T18:19:32Z</time>
      </trkpt>
      <trkpt lat="43.28222" lon="6.30269">
        <ele>662</ele>
        <time>2019-09-07T18:19:37Z</time>
      </trkpt>
      <trkpt lat="43.28222" lon="6.30225">
        <ele>662</ele>
        <time>2019-09-07T18:19:43Z</time>
      </trkpt>
      <trkpt lat="43.28204" lon="6.30134">
        <ele>663</ele>
        <time>2019-09-07T18:19:55Z</time>
      </trkpt>
      <trkpt lat="43.28197" lon="6.30118">
        <ele>663</ele>
        <time>2019-09-07T18:19:57Z</time>
      </trkpt>
      <trkpt lat="43.28179" lon="6.30034">
        <ele>664</ele>
        <time>2019-09-07T18:20:09Z</time>
      </trkpt>
      <trkpt lat="43.28173" lon="6.29985">
        <ele>664</ele>
        <time>2019-09-07T18:20:15Z</time>
      </trkpt>
      <trkpt lat="43.28174" lon="6.29943">
        <ele>666</ele>
        <time>2019-09-07T18:20:21Z</time>
      </trkpt>
      <trkpt lat="43.28171" lon="6.29926">
        <ele>667</ele>
        <time>2019-09-07T18:20:23Z</time>
      </trkpt>
      <trkpt lat="43.28137" lon="6.29831">
        <ele>674</ele>
        <time>2019-09-07T18:20:37Z</time>
      </trkpt>
      <trkpt lat="43.28111" lon="6.29775">
        <ele>680</ele>
        <time>2019-09-07T18:20:45Z</time>
      </trkpt>
      <trkpt lat="43.28086" lon="6.29739">
        <ele>685</ele>
        <time>2019-09-07T18:20:52Z</time>
      </trkpt>
      <trkpt lat="43.28078" lon="6.29731">
        <ele>686</ele>
        <time>2019-09-07T18:20:53Z</time>
      </trkpt>
      <trkpt lat="43.28057" lon="6.2972">
        <ele>688</ele>
        <time>2019-09-07T18:20:57Z</time>
      </trkpt>
      <trkpt lat="43.28006" lon="6.29708">
        <ele>686</ele>
        <time>2019-09-07T18:21:07Z</time>
      </trkpt>
      <trkpt lat="43.27914" lon="6.29712">
        <ele>684</ele>
        <time>2019-09-07T18:21:23Z</time>
      </trkpt>
      <trkpt lat="43.27903" lon="6.29695">
        <ele>685</ele>
        <time>2019-09-07T18:21:26Z</time>
      </trkpt>
      <trkpt lat="43.27903" lon="6.29668">
        <ele>689</ele>
        <time>2019-09-07T18:21:29Z</time>
      </trkpt>
      <trkpt lat="43.27909" lon="6.29654">
        <ele>689</ele>
        <time>2019-09-07T18:21:31Z</time>
      </trkpt>
      <trkpt lat="43.27916" lon="6.29645">
        <ele>690</ele>
        <time>2019-09-07T18:21:33Z</time>
      </trkpt>
      <trkpt lat="43.27929" lon="6.29637">
        <ele>692</ele>
        <time>2019-09-07T18:21:36Z</time>
      </trkpt>
      <trkpt lat="43.27956" lon="6.29609">
        <ele>697</ele>
        <time>2019-09-07T18:21:42Z</time>
      </trkpt>
      <trkpt lat="43.2799" lon="6.29535">
        <ele>706</ele>
        <time>2019-09-07T18:21:53Z</time>
      </trkpt>
      <trkpt lat="43.28005" lon="6.29487">
        <ele>711</ele>
        <time>2019-09-07T18:22:00Z</time>
      </trkpt>
      <trkpt lat="43.28012" lon="6.29443">
        <ele>713</ele>
        <time>2019-09-07T18:22:06Z</time>
      </trkpt>
      <trkpt lat="43.28011" lon="6.29379">
        <ele>714</ele>
        <time>2019-09-07T18:22:14Z</time>
      </trkpt>
      <trkpt lat="43.28002" lon="6.29324">
        <ele>714</ele>
        <time>2019-09-07T18:22:21Z</time>
      </trkpt>
      <trkpt lat="43.27988" lon="6.29269">
        <ele>711</ele>
        <time>2019-09-07T18:22:29Z</time>
      </trkpt>
      <trkpt lat="43.27982" lon="6.29213">
        <ele>710</ele>
        <time>2019-09-07T18:22:36Z</time>
      </trkpt>
      <trkpt lat="43.27986" lon="6.29189">
        <ele>713</ele>
        <time>2019-09-07T18:22:39Z</time>
      </trkpt>
      <trkpt lat="43.28005" lon="6.29163">
        <ele>721</ele>
        <time>2019-09-07T18:22:44Z</time>
      </trkpt>
      <trkpt lat="43.28014" lon="6.29135">
        <ele>721</ele>
        <time>2019-09-07T18:22:48Z</time>
      </trkpt>
      <trkpt lat="43.28022" lon="6.29097">
        <ele>720</ele>
        <time>2019-09-07T18:22:53Z</time>
      </trkpt>
      <trkpt lat="43.28024" lon="6.2904">
        <ele>716</ele>
        <time>2019-09-07T18:23:01Z</time>
      </trkpt>
      <trkpt lat="43.28029" lon="6.29034">
        <ele>717</ele>
        <time>2019-09-07T18:23:02Z</time>
      </trkpt>
      <trkpt lat="43.28037" lon="6.29032">
        <ele>718</ele>
        <time>2019-09-07T18:23:03Z</time>
      </trkpt>
      <trkpt lat="43.2806" lon="6.29041">
        <ele>724</ele>
        <time>2019-09-07T18:23:07Z</time>
      </trkpt>
      <trkpt lat="43.28069" lon="6.29052">
        <ele>728</ele>
        <time>2019-09-07T18:23:10Z</time>
      </trkpt>
      <trkpt lat="43.28078" lon="6.29058">
        <ele>731</ele>
        <time>2019-09-07T18:23:11Z</time>
      </trkpt>
      <trkpt lat="43.28101" lon="6.29081">
        <ele>734</ele>
        <time>2019-09-07T18:23:16Z</time>
      </trkpt>
      <trkpt lat="43.28136" lon="6.29103">
        <ele>735</ele>
        <time>2019-09-07T18:23:23Z</time>
      </trkpt>
      <trkpt lat="43.28163" lon="6.29132">
        <ele>738</ele>
        <time>2019-09-07T18:23:29Z</time>
      </trkpt>
      <trkpt lat="43.28171" lon="6.29147">
        <ele>738</ele>
        <time>2019-09-07T18:23:32Z</time>
      </trkpt>
      <trkpt lat="43.28177" lon="6.29177">
        <ele>741</ele>
        <time>2019-09-07T18:23:36Z</time>
      </trkpt>
      <trkpt lat="43.2819" lon="6.29291">
        <ele>752</ele>
        <time>2019-09-07T18:23:51Z</time>
      </trkpt>
      <trkpt lat="43.28204" lon="6.29349">
        <ele>755</ele>
        <time>2019-09-07T18:23:59Z</time>
      </trkpt>
      <trkpt lat="43.2821" lon="6.29364">
        <ele>754</ele>
        <time>2019-09-07T18:24:01Z</time>
      </trkpt>
      <trkpt lat="43.28223" lon="6.29386">
        <ele>753</ele>
        <time>2019-09-07T18:24:05Z</time>
      </trkpt>
      <trkpt lat="43.2823" lon="6.29406">
        <ele>753</ele>
        <time>2019-09-07T18:24:07Z</time>
      </trkpt>
      <trkpt lat="43.28232" lon="6.29424">
        <ele>754</ele>
        <time>2019-09-07T18:24:10Z</time>
      </trkpt>
      <trkpt lat="43.28228" lon="6.29467">
        <ele>753</ele>
        <time>2019-09-07T18:24:15Z</time>
      </trkpt>
      <trkpt lat="43.28221" lon="6.29474">
        <ele>754</ele>
        <time>2019-09-07T18:24:17Z</time>
      </trkpt>
      <trkpt lat="43.28217" lon="6.29474">
        <ele>755</ele>
        <time>2019-09-07T18:24:18Z</time>
      </trkpt>
      <trkpt lat="43.28206" lon="6.29472">
        <ele>757</ele>
        <time>2019-09-07T18:24:20Z</time>
      </trkpt>
      <trkpt lat="43.282" lon="6.29466">
        <ele>758</ele>
        <time>2019-09-07T18:24:21Z</time>
      </trkpt>
      <trkpt lat="43.28191" lon="6.2944">
        <ele>762</ele>
        <time>2019-09-07T18:24:25Z</time>
      </trkpt>
      <trkpt lat="43.28189" lon="6.29401">
        <ele>763</ele>
        <time>2019-09-07T18:24:30Z</time>
      </trkpt>
      <trkpt lat="43.28186" lon="6.29391">
        <ele>763</ele>
        <time>2019-09-07T18:24:31Z</time>
      </trkpt>
      <trkpt lat="43.2815" lon="6.29335">
        <ele>762</ele>
        <time>2019-09-07T18:24:41Z</time>
      </trkpt>
      <trkpt lat="43.28141" lon="6.29305">
        <ele>759</ele>
        <time>2019-09-07T18:24:45Z</time>
      </trkpt>
      <trkpt lat="43.28136" lon="6.29299">
        <ele>759</ele>
        <time>2019-09-07T18:24:46Z</time>
      </trkpt>
      <trkpt lat="43.28115" lon="6.29306">
        <ele>757</ele>
        <time>2019-09-07T18:24:50Z</time>
      </trkpt>
      <trkpt lat="43.28114" lon="6.2931">
        <ele>757</ele>
        <time>2019-09-07T18:24:51Z</time>
      </trkpt>
      <trkpt lat="43.28116" lon="6.29355">
        <ele>758</ele>
        <time>2019-09-07T18:24:56Z</time>
      </trkpt>
      <trkpt lat="43.28132" lon="6.29397">
        <ele>761</ele>
        <time>2019-09-07T18:25:03Z</time>
      </trkpt>
      <trkpt lat="43.28121" lon="6.29396">
        <ele>759</ele>
        <time>2019-09-07T18:25:05Z</time>
      </trkpt>
      <trkpt lat="43.28116" lon="6.29393">
        <ele>758</ele>
        <time>2019-09-07T18:25:06Z</time>
      </trkpt>
      <trkpt lat="43.28106" lon="6.29376">
        <ele>756</ele>
        <time>2019-09-07T18:25:08Z</time>
      </trkpt>
      <trkpt lat="43.28102" lon="6.29364">
        <ele>756</ele>
        <time>2019-09-07T18:25:10Z</time>
      </trkpt>
      <trkpt lat="43.28096" lon="6.29334">
        <ele>755</ele>
        <time>2019-09-07T18:25:14Z</time>
      </trkpt>
      <trkpt lat="43.28089" lon="6.29315">
        <ele>755</ele>
        <time>2019-09-07T18:25:17Z</time>
      </trkpt>
      <trkpt lat="43.28086" lon="6.29289">
        <ele>755</ele>
        <time>2019-09-07T18:25:20Z</time>
      </trkpt>
      <trkpt lat="43.28077" lon="6.29257">
        <ele>753</ele>
        <time>2019-09-07T18:25:25Z</time>
      </trkpt>
      <trkpt lat="43.28077" lon="6.29232">
        <ele>752</ele>
        <time>2019-09-07T18:25:28Z</time>
      </trkpt>
      <trkpt lat="43.28093" lon="6.29198">
        <ele>751</ele>
        <time>2019-09-07T18:25:33Z</time>
      </trkpt>
      <trkpt lat="43.28093" lon="6.29183">
        <ele>749</ele>
        <time>2019-09-07T18:25:35Z</time>
      </trkpt>
      <trkpt lat="43.28098" lon="6.2917">
        <ele>747</ele>
        <time>2019-09-07T18:25:37Z</time>
      </trkpt>
      <trkpt lat="43.28104" lon="6.29165">
        <ele>747</ele>
        <time>2019-09-07T18:25:38Z</time>
      </trkpt>
      <trkpt lat="43.28115" lon="6.29162">
        <ele>745</ele>
        <time>2019-09-07T18:25:40Z</time>
      </trkpt>
      <trkpt lat="43.28127" lon="6.29162">
        <ele>745</ele>
        <time>2019-09-07T18:25:42Z</time>
      </trkpt>
      <trkpt lat="43.28144" lon="6.29167">
        <ele>744</ele>
        <time>2019-09-07T18:25:46Z</time>
      </trkpt>
      <trkpt lat="43.28151" lon="6.29156">
        <ele>742</ele>
        <time>2019-09-07T18:25:47Z</time>
      </trkpt>
      <trkpt lat="43.28157" lon="6.29152">
        <ele>741</ele>
        <time>2019-09-07T18:25:49Z</time>
      </trkpt>
      <trkpt lat="43.28171" lon="6.29149">
        <ele>739</ele>
        <time>2019-09-07T18:25:51Z</time>
      </trkpt>
      <trkpt lat="43.28171" lon="6.29147">
        <ele>738</ele>
        <time>2019-09-07T18:25:51Z</time>
      </trkpt>
      <trkpt lat="43.28163" lon="6.29132">
        <ele>738</ele>
        <time>2019-09-07T18:25:54Z</time>
      </trkpt>
      <trkpt lat="43.28136" lon="6.29103">
        <ele>735</ele>
        <time>2019-09-07T18:26:00Z</time>
      </trkpt>
      <trkpt lat="43.28124" lon="6.29095">
        <ele>735</ele>
        <time>2019-09-07T18:26:02Z</time>
      </trkpt>
      <trkpt lat="43.28122" lon="6.2909">
        <ele>734</ele>
        <time>2019-09-07T18:26:03Z</time>
      </trkpt>
      <trkpt lat="43.28124" lon="6.29095">
        <ele>735</ele>
        <time>2019-09-07T18:26:04Z</time>
      </trkpt>
      <trkpt lat="43.28101" lon="6.29081">
        <ele>734</ele>
        <time>2019-09-07T18:26:08Z</time>
      </trkpt>
      <trkpt lat="43.28078" lon="6.29058">
        <ele>731</ele>
        <time>2019-09-07T18:26:13Z</time>
      </trkpt>
      <trkpt lat="43.28069" lon="6.29052">
        <ele>728</ele>
        <time>2019-09-07T18:26:15Z</time>
      </trkpt>
      <trkpt lat="43.2806" lon="6.29041">
        <ele>724</ele>
        <time>2019-09-07T18:26:17Z</time>
      </trkpt>
      <trkpt lat="43.28037" lon="6.29032">
        <ele>718</ele>
        <time>2019-09-07T18:26:21Z</time>
      </trkpt>
      <trkpt lat="43.28029" lon="6.29034">
        <ele>717</ele>
        <time>2019-09-07T18:26:23Z</time>
      </trkpt>
      <trkpt lat="43.28024" lon="6.2904">
        <ele>716</ele>
        <time>2019-09-07T18:26:24Z</time>
      </trkpt>
      <trkpt lat="43.28022" lon="6.29097">
        <ele>720</ele>
        <time>2019-09-07T18:26:31Z</time>
      </trkpt>
      <trkpt lat="43.28014" lon="6.29135">
        <ele>721</ele>
        <time>2019-09-07T18:26:37Z</time>
      </trkpt>
      <trkpt lat="43.28005" lon="6.29163">
        <ele>721</ele>
        <time>2019-09-07T18:26:41Z</time>
      </trkpt>
      <trkpt lat="43.27986" lon="6.29189">
        <ele>713</ele>
        <time>2019-09-07T18:26:45Z</time>
      </trkpt>
      <trkpt lat="43.27982" lon="6.29213">
        <ele>710</ele>
        <time>2019-09-07T18:26:49Z</time>
      </trkpt>
      <trkpt lat="43.27988" lon="6.29269">
        <ele>711</ele>
        <time>2019-09-07T18:26:56Z</time>
      </trkpt>
      <trkpt lat="43.28002" lon="6.29324">
        <ele>714</ele>
        <time>2019-09-07T18:27:03Z</time>
      </trkpt>
      <trkpt lat="43.28011" lon="6.29379">
        <ele>714</ele>
        <time>2019-09-07T18:27:11Z</time>
      </trkpt>
      <trkpt lat="43.28012" lon="6.29443">
        <ele>713</ele>
        <time>2019-09-07T18:27:19Z</time>
      </trkpt>
      <trkpt lat="43.2801" lon="6.29463">
        <ele>712</ele>
        <time>2019-09-07T18:27:22Z</time>
      </trkpt>
      <trkpt lat="43.27996" lon="6.29517">
        <ele>708</ele>
        <time>2019-09-07T18:27:29Z</time>
      </trkpt>
      <trkpt lat="43.2798" lon="6.29559">
        <ele>703</ele>
        <time>2019-09-07T18:27:35Z</time>
      </trkpt>
      <trkpt lat="43.27956" lon="6.29609">
        <ele>697</ele>
        <time>2019-09-07T18:27:43Z</time>
      </trkpt>
      <trkpt lat="43.27929" lon="6.29637">
        <ele>692</ele>
        <time>2019-09-07T18:27:49Z</time>
      </trkpt>
      <trkpt lat="43.27916" lon="6.29645">
        <ele>690</ele>
        <time>2019-09-07T18:27:51Z</time>
      </trkpt>
      <trkpt lat="43.27909" lon="6.29654">
        <ele>689</ele>
        <time>2019-09-07T18:27:53Z</time>
      </trkpt>
      <trkpt lat="43.27903" lon="6.29668">
        <ele>689</ele>
        <time>2019-09-07T18:27:55Z</time>
      </trkpt>
      <trkpt lat="43.27903" lon="6.29695">
        <ele>685</ele>
        <time>2019-09-07T18:27:59Z</time>
      </trkpt>
      <trkpt lat="43.27914" lon="6.29712">
        <ele>684</ele>
        <time>2019-09-07T18:28:02Z</time>
      </trkpt>
      <trkpt lat="43.28006" lon="6.29708">
        <ele>686</ele>
        <time>2019-09-07T18:28:18Z</time>
      </trkpt>
      <trkpt lat="43.28057" lon="6.2972">
        <ele>688</ele>
        <time>2019-09-07T18:28:27Z</time>
      </trkpt>
      <trkpt lat="43.28078" lon="6.29731">
        <ele>686</ele>
        <time>2019-09-07T18:28:31Z</time>
      </trkpt>
      <trkpt lat="43.28086" lon="6.29739">
        <ele>685</ele>
        <time>2019-09-07T18:28:33Z</time>
      </trkpt>
      <trkpt lat="43.28111" lon="6.29775">
        <ele>680</ele>
        <time>2019-09-07T18:28:40Z</time>
      </trkpt>
      <trkpt lat="43.28137" lon="6.29831">
        <ele>674</ele>
        <time>2019-09-07T18:28:48Z</time>
      </trkpt>
      <trkpt lat="43.28171" lon="6.29926">
        <ele>667</ele>
        <time>2019-09-07T18:29:02Z</time>
      </trkpt>
      <trkpt lat="43.28174" lon="6.29943">
        <ele>666</ele>
        <time>2019-09-07T18:29:04Z</time>
      </trkpt>
      <trkpt lat="43.28173" lon="6.29985">
        <ele>664</ele>
        <time>2019-09-07T18:29:10Z</time>
      </trkpt>
      <trkpt lat="43.28179" lon="6.30034">
        <ele>664</ele>
        <time>2019-09-07T18:29:16Z</time>
      </trkpt>
      <trkpt lat="43.28197" lon="6.30118">
        <ele>663</ele>
        <time>2019-09-07T18:29:27Z</time>
      </trkpt>
      <trkpt lat="43.28204" lon="6.30134">
        <ele>663</ele>
        <time>2019-09-07T18:29:30Z</time>
      </trkpt>
      <trkpt lat="43.28214" lon="6.30191">
        <ele>663</ele>
        <time>2019-09-07T18:29:37Z</time>
      </trkpt>
      <trkpt lat="43.2822" lon="6.30212">
        <ele>662</ele>
        <time>2019-09-07T18:29:40Z</time>
      </trkpt>
      <trkpt lat="43.28222" lon="6.30225">
        <ele>662</ele>
        <time>2019-09-07T18:29:42Z</time>
      </trkpt>
      <trkpt lat="43.28222" lon="6.30269">
        <ele>662</ele>
        <time>2019-09-07T18:29:48Z</time>
      </trkpt>
      <trkpt lat="43.28226" lon="6.30305">
        <ele>662</ele>
        <time>2019-09-07T18:29:52Z</time>
      </trkpt>
      <trkpt lat="43.28219" lon="6.30344">
        <ele>661</ele>
        <time>2019-09-07T18:29:58Z</time>
      </trkpt>
      <trkpt lat="43.28219" lon="6.30359">
        <ele>662</ele>
        <time>2019-09-07T18:30:00Z</time>
      </trkpt>
      <trkpt lat="43.28225" lon="6.30401">
        <ele>665</ele>
        <time>2019-09-07T18:30:05Z</time>
      </trkpt>
      <trkpt lat="43.28232" lon="6.30424">
        <ele>667</ele>
        <time>2019-09-07T18:30:08Z</time>
      </trkpt>
      <trkpt lat="43.28233" lon="6.30435">
        <ele>667</ele>
        <time>2019-09-07T18:30:10Z</time>
      </trkpt>
      <trkpt lat="43.28236" lon="6.30444">
        <ele>668</ele>
        <time>2019-09-07T18:30:11Z</time>
      </trkpt>
      <trkpt lat="43.28244" lon="6.30456">
        <ele>669</ele>
        <time>2019-09-07T18:30:13Z</time>
      </trkpt>
      <trkpt lat="43.28246" lon="6.30467">
        <ele>670</ele>
        <time>2019-09-07T18:30:15Z</time>
      </trkpt>
      <trkpt lat="43.2825" lon="6.30567">
        <ele>673</ele>
        <time>2019-09-07T18:30:28Z</time>
      </trkpt>
      <trkpt lat="43.2827" lon="6.30618">
        <ele>673</ele>
        <time>2019-09-07T18:30:35Z</time>
      </trkpt>
      <trkpt lat="43.28328" lon="6.30692">
        <ele>679</ele>
        <time>2019-09-07T18:30:49Z</time>
      </trkpt>
      <trkpt lat="43.28433" lon="6.30838">
        <ele>677</ele>
        <time>2019-09-07T18:31:16Z</time>
      </trkpt>
      <trkpt lat="43.28446" lon="6.30864">
        <ele>675</ele>
        <time>2019-09-07T18:31:20Z</time>
      </trkpt>
      <trkpt lat="43.28464" lon="6.3091">
        <ele>674</ele>
        <time>2019-09-07T18:31:27Z</time>
      </trkpt>
      <trkpt lat="43.28477" lon="6.3093">
        <ele>673</ele>
        <time>2019-09-07T18:31:30Z</time>
      </trkpt>
      <trkpt lat="43.28534" lon="6.30982">
        <ele>667</ele>
        <time>2019-09-07T18:31:42Z</time>
      </trkpt>
      <trkpt lat="43.28553" lon="6.30996">
        <ele>667</ele>
        <time>2019-09-07T18:31:46Z</time>
      </trkpt>
      <trkpt lat="43.28573" lon="6.31001">
        <ele>669</ele>
        <time>2019-09-07T18:31:50Z</time>
      </trkpt>
      <trkpt lat="43.28582" lon="6.30991">
        <ele>670</ele>
        <time>2019-09-07T18:31:52Z</time>
      </trkpt>
      <trkpt lat="43.28596" lon="6.30986">
        <ele>670</ele>
        <time>2019-09-07T18:31:54Z</time>
      </trkpt>
      <trkpt lat="43.28628" lon="6.31002">
        <ele>669</ele>
        <time>2019-09-07T18:32:00Z</time>
      </trkpt>
      <trkpt lat="43.28636" lon="6.31015">
        <ele>668</ele>
        <time>2019-09-07T18:32:03Z</time>
      </trkpt>
      <trkpt lat="43.28651" lon="6.31029">
        <ele>669</ele>
        <time>2019-09-07T18:32:06Z</time>
      </trkpt>
      <trkpt lat="43.28657" lon="6.31031">
        <ele>669</ele>
        <time>2019-09-07T18:32:07Z</time>
      </trkpt>
      <trkpt lat="43.28663" lon="6.31031">
        <ele>670</ele>
        <time>2019-09-07T18:32:08Z</time>
      </trkpt>
      <trkpt lat="43.2867" lon="6.31026">
        <ele>670</ele>
        <time>2019-09-07T18:32:09Z</time>
      </trkpt>
      <trkpt lat="43.2872" lon="6.3102">
        <ele>668</ele>
        <time>2019-09-07T18:32:18Z</time>
      </trkpt>
      <trkpt lat="43.28743" lon="6.3101">
        <ele>665</ele>
        <time>2019-09-07T18:32:23Z</time>
      </trkpt>
      <trkpt lat="43.2883" lon="6.31007">
        <ele>659</ele>
        <time>2019-09-07T18:32:38Z</time>
      </trkpt>
      <trkpt lat="43.28912" lon="6.31011">
        <ele>663</ele>
        <time>2019-09-07T18:32:53Z</time>
      </trkpt>
      <trkpt lat="43.28953" lon="6.31019">
        <ele>659</ele>
        <time>2019-09-07T18:33:00Z</time>
      </trkpt>
      <trkpt lat="43.29" lon="6.31045">
        <ele>658</ele>
        <time>2019-09-07T18:33:09Z</time>
      </trkpt>
      <trkpt lat="43.29019" lon="6.31053">
        <ele>657</ele>
        <time>2019-09-07T18:33:13Z</time>
      </trkpt>
      <trkpt lat="43.29036" lon="6.31053">
        <ele>654</ele>
        <time>2019-09-07T18:33:16Z</time>
      </trkpt>
      <trkpt lat="43.29106" lon="6.31048">
        <ele>641</ele>
        <time>2019-09-07T18:33:28Z</time>
      </trkpt>
      <trkpt lat="43.29155" lon="6.31039">
        <ele>630</ele>
        <time>2019-09-07T18:33:37Z</time>
      </trkpt>
      <trkpt lat="43.29224" lon="6.31032">
        <ele>616</ele>
        <time>2019-09-07T18:33:49Z</time>
      </trkpt>
      <trkpt lat="43.29241" lon="6.31033">
        <ele>613</ele>
        <time>2019-09-07T18:33:52Z</time>
      </trkpt>
      <trkpt lat="43.29256" lon="6.31031">
        <ele>611</ele>
        <time>2019-09-07T18:33:55Z</time>
      </trkpt>
      <trkpt lat="43.29313" lon="6.31013">
        <ele>604</ele>
        <time>2019-09-07T18:34:05Z</time>
      </trkpt>
      <trkpt lat="43.29336" lon="6.31012">
        <ele>601</ele>
        <time>2019-09-07T18:34:09Z</time>
      </trkpt>
      <trkpt lat="43.29361" lon="6.31021">
        <ele>599</ele>
        <time>2019-09-07T18:34:14Z</time>
      </trkpt>
      <trkpt lat="43.29371" lon="6.31022">
        <ele>599</ele>
        <time>2019-09-07T18:34:16Z</time>
      </trkpt>
      <trkpt lat="43.29386" lon="6.3102">
        <ele>599</ele>
        <time>2019-09-07T18:34:19Z</time>
      </trkpt>
      <trkpt lat="43.29396" lon="6.31015">
        <ele>599</ele>
        <time>2019-09-07T18:34:20Z</time>
      </trkpt>
      <trkpt lat="43.29398" lon="6.3101">
        <ele>600</ele>
        <time>2019-09-07T18:34:21Z</time>
      </trkpt>
      <trkpt lat="43.29397" lon="6.30995">
        <ele>601</ele>
        <time>2019-09-07T18:34:23Z</time>
      </trkpt>
      <trkpt lat="43.29394" lon="6.30991">
        <ele>601</ele>
        <time>2019-09-07T18:34:24Z</time>
      </trkpt>
      <trkpt lat="43.29373" lon="6.30982">
        <ele>599</ele>
        <time>2019-09-07T18:34:28Z</time>
      </trkpt>
      <trkpt lat="43.29362" lon="6.30973">
        <ele>598</ele>
        <time>2019-09-07T18:34:30Z</time>
      </trkpt>
      <trkpt lat="43.29338" lon="6.30943">
        <ele>593</ele>
        <time>2019-09-07T18:34:36Z</time>
      </trkpt>
      <trkpt lat="43.2932" lon="6.30911">
        <ele>589</ele>
        <time>2019-09-07T18:34:41Z</time>
      </trkpt>
      <trkpt lat="43.29301" lon="6.30886">
        <ele>584</ele>
        <time>2019-09-07T18:34:46Z</time>
      </trkpt>
      <trkpt lat="43.29292" lon="6.30879">
        <ele>583</ele>
        <time>2019-09-07T18:34:48Z</time>
      </trkpt>
      <trkpt lat="43.29245" lon="6.30872">
        <ele>586</ele>
        <time>2019-09-07T18:34:56Z</time>
      </trkpt>
      <trkpt lat="43.29234" lon="6.30867">
        <ele>585</ele>
        <time>2019-09-07T18:34:58Z</time>
      </trkpt>
      <trkpt lat="43.29226" lon="6.3086">
        <ele>584</ele>
        <time>2019-09-07T18:35:00Z</time>
      </trkpt>
      <trkpt lat="43.29217" lon="6.30847">
        <ele>581</ele>
        <time>2019-09-07T18:35:02Z</time>
      </trkpt>
      <trkpt lat="43.29197" lon="6.3081">
        <ele>575</ele>
        <time>2019-09-07T18:35:08Z</time>
      </trkpt>
      <trkpt lat="43.29202" lon="6.30809">
        <ele>574</ele>
        <time>2019-09-07T18:35:09Z</time>
      </trkpt>
      <trkpt lat="43.29241" lon="6.30828">
        <ele>572</ele>
        <time>2019-09-07T18:35:16Z</time>
      </trkpt>
      <trkpt lat="43.29252" lon="6.30827">
        <ele>570</ele>
        <time>2019-09-07T18:35:18Z</time>
      </trkpt>
      <trkpt lat="43.29267" lon="6.30812">
        <ele>565</ele>
        <time>2019-09-07T18:35:22Z</time>
      </trkpt>
      <trkpt lat="43.29277" lon="6.30806">
        <ele>562</ele>
        <time>2019-09-07T18:35:23Z</time>
      </trkpt>
      <trkpt lat="43.29304" lon="6.30798">
        <ele>557</ele>
        <time>2019-09-07T18:35:28Z</time>
      </trkpt>
      <trkpt lat="43.29334" lon="6.308">
        <ele>555</ele>
        <time>2019-09-07T18:35:34Z</time>
      </trkpt>
      <trkpt lat="43.29366" lon="6.30812">
        <ele>557</ele>
        <time>2019-09-07T18:35:40Z</time>
      </trkpt>
      <trkpt lat="43.29376" lon="6.30813">
        <ele>557</ele>
        <time>2019-09-07T18:35:41Z</time>
      </trkpt>
      <trkpt lat="43.29379" lon="6.30811">
        <ele>556</ele>
        <time>2019-09-07T18:35:42Z</time>
      </trkpt>
      <trkpt lat="43.29402" lon="6.30767">
        <ele>543</ele>
        <time>2019-09-07T18:35:49Z</time>
      </trkpt>
      <trkpt lat="43.29424" lon="6.30744">
        <ele>536</ele>
        <time>2019-09-07T18:35:54Z</time>
      </trkpt>
      <trkpt lat="43.29438" lon="6.30738">
        <ele>534</ele>
        <time>2019-09-07T18:35:57Z</time>
      </trkpt>
      <trkpt lat="43.2949" lon="6.30734">
        <ele>531</ele>
        <time>2019-09-07T18:36:06Z</time>
      </trkpt>
      <trkpt lat="43.2955" lon="6.30739">
        <ele>528</ele>
        <time>2019-09-07T18:36:17Z</time>
      </trkpt>
      <trkpt lat="43.29574" lon="6.3073">
        <ele>523</ele>
        <time>2019-09-07T18:36:21Z</time>
      </trkpt>
      <trkpt lat="43.29589" lon="6.30734">
        <ele>523</ele>
        <time>2019-09-07T18:36:24Z</time>
      </trkpt>
      <trkpt lat="43.29597" lon="6.30739">
        <ele>524</ele>
        <time>2019-09-07T18:36:25Z</time>
      </trkpt>
      <trkpt lat="43.29615" lon="6.30757">
        <ele>528</ele>
        <time>2019-09-07T18:36:29Z</time>
      </trkpt>
      <trkpt lat="43.29621" lon="6.30758">
        <ele>528</ele>
        <time>2019-09-07T18:36:30Z</time>
      </trkpt>
      <trkpt lat="43.29677" lon="6.30713">
        <ele>509</ele>
        <time>2019-09-07T18:36:42Z</time>
      </trkpt>
      <trkpt lat="43.29704" lon="6.30713">
        <ele>511</ele>
        <time>2019-09-07T18:36:47Z</time>
      </trkpt>
      <trkpt lat="43.29706" lon="6.3071">
        <ele>510</ele>
        <time>2019-09-07T18:36:47Z</time>
      </trkpt>
      <trkpt lat="43.29692" lon="6.30701">
        <ele>506</ele>
        <time>2019-09-07T18:36:50Z</time>
      </trkpt>
      <trkpt lat="43.29674" lon="6.30698">
        <ele>503</ele>
        <time>2019-09-07T18:36:53Z</time>
      </trkpt>
      <trkpt lat="43.29636" lon="6.30714">
        <ele>511</ele>
        <time>2019-09-07T18:37:00Z</time>
      </trkpt>
      <trkpt lat="43.2963" lon="6.30719">
        <ele>514</ele>
        <time>2019-09-07T18:37:01Z</time>
      </trkpt>
      <trkpt lat="43.29626" lon="6.30719">
        <ele>514</ele>
        <time>2019-09-07T18:37:02Z</time>
      </trkpt>
      <trkpt lat="43.29617" lon="6.30706">
        <ele>511</ele>
        <time>2019-09-07T18:37:04Z</time>
      </trkpt>
      <trkpt lat="43.29607" lon="6.30676">
        <ele>501</ele>
        <time>2019-09-07T18:37:09Z</time>
      </trkpt>
      <trkpt lat="43.296" lon="6.30667">
        <ele>499</ele>
        <time>2019-09-07T18:37:10Z</time>
      </trkpt>
      <trkpt lat="43.2959" lon="6.3066">
        <ele>498</ele>
        <time>2019-09-07T18:37:12Z</time>
      </trkpt>
      <trkpt lat="43.29547" lon="6.30645">
        <ele>498</ele>
        <time>2019-09-07T18:37:20Z</time>
      </trkpt>
      <trkpt lat="43.29483" lon="6.30611">
        <ele>496</ele>
        <time>2019-09-07T18:37:33Z</time>
      </trkpt>
      <trkpt lat="43.2947" lon="6.30605">
        <ele>497</ele>
        <time>2019-09-07T18:37:35Z</time>
      </trkpt>
      <trkpt lat="43.2945" lon="6.306">
        <ele>498</ele>
        <time>2019-09-07T18:37:39Z</time>
      </trkpt>
      <trkpt lat="43.29448" lon="6.30597">
        <ele>498</ele>
        <time>2019-09-07T18:37:39Z</time>
      </trkpt>
      <trkpt lat="43.29454" lon="6.30593">
        <ele>496</ele>
        <time>2019-09-07T18:37:40Z</time>
      </trkpt>
      <trkpt lat="43.29466" lon="6.30592">
        <ele>494</ele>
        <time>2019-09-07T18:37:42Z</time>
      </trkpt>
      <trkpt lat="43.29523" lon="6.30594">
        <ele>487</ele>
        <time>2019-09-07T18:37:53Z</time>
      </trkpt>
      <trkpt lat="43.29561" lon="6.30589">
        <ele>481</ele>
        <time>2019-09-07T18:37:59Z</time>
      </trkpt>
      <trkpt lat="43.29595" lon="6.30592">
        <ele>478</ele>
        <time>2019-09-07T18:38:05Z</time>
      </trkpt>
      <trkpt lat="43.29607" lon="6.30594">
        <ele>477</ele>
        <time>2019-09-07T18:38:08Z</time>
      </trkpt>
      <trkpt lat="43.29615" lon="6.30598">
        <ele>477</ele>
        <time>2019-09-07T18:38:09Z</time>
      </trkpt>
      <trkpt lat="43.29638" lon="6.30622">
        <ele>482</ele>
        <time>2019-09-07T18:38:14Z</time>
      </trkpt>
      <trkpt lat="43.29643" lon="6.30621">
        <ele>481</ele>
        <time>2019-09-07T18:38:15Z</time>
      </trkpt>
      <trkpt lat="43.29659" lon="6.30598">
        <ele>472</ele>
        <time>2019-09-07T18:38:19Z</time>
      </trkpt>
      <trkpt lat="43.29669" lon="6.30596">
        <ele>471</ele>
        <time>2019-09-07T18:38:21Z</time>
      </trkpt>
      <trkpt lat="43.29696" lon="6.30598">
        <ele>475</ele>
        <time>2019-09-07T18:38:26Z</time>
      </trkpt>
      <trkpt lat="43.29699" lon="6.30596">
        <ele>475</ele>
        <time>2019-09-07T18:38:26Z</time>
      </trkpt>
      <trkpt lat="43.29704" lon="6.30592">
        <ele>474</ele>
        <time>2019-09-07T18:38:28Z</time>
      </trkpt>
      <trkpt lat="43.29717" lon="6.3057">
        <ele>471</ele>
        <time>2019-09-07T18:38:31Z</time>
      </trkpt>
      <trkpt lat="43.29743" lon="6.30542">
        <ele>466</ele>
        <time>2019-09-07T18:38:37Z</time>
      </trkpt>
      <trkpt lat="43.29758" lon="6.30506">
        <ele>458</ele>
        <time>2019-09-07T18:38:42Z</time>
      </trkpt>
      <trkpt lat="43.29797" lon="6.30445">
        <ele>453</ele>
        <time>2019-09-07T18:38:53Z</time>
      </trkpt>
      <trkpt lat="43.29825" lon="6.30388">
        <ele>448</ele>
        <time>2019-09-07T18:39:02Z</time>
      </trkpt>
      <trkpt lat="43.29843" lon="6.3036">
        <ele>446</ele>
        <time>2019-09-07T18:39:07Z</time>
      </trkpt>
      <trkpt lat="43.29877" lon="6.3032">
        <ele>446</ele>
        <time>2019-09-07T18:39:15Z</time>
      </trkpt>
      <trkpt lat="43.2988" lon="6.30314">
        <ele>446</ele>
        <time>2019-09-07T18:39:16Z</time>
      </trkpt>
      <trkpt lat="43.29883" lon="6.30258">
        <ele>436</ele>
        <time>2019-09-07T18:39:23Z</time>
      </trkpt>
      <trkpt lat="43.29887" lon="6.30244">
        <ele>435</ele>
        <time>2019-09-07T18:39:25Z</time>
      </trkpt>
      <trkpt lat="43.29894" lon="6.30234">
        <ele>434</ele>
        <time>2019-09-07T18:39:27Z</time>
      </trkpt>
      <trkpt lat="43.29907" lon="6.30226">
        <ele>435</ele>
        <time>2019-09-07T18:39:29Z</time>
      </trkpt>
      <trkpt lat="43.29925" lon="6.302">
        <ele>434</ele>
        <time>2019-09-07T18:39:34Z</time>
      </trkpt>
      <trkpt lat="43.29954" lon="6.30166">
        <ele>434</ele>
        <time>2019-09-07T18:39:41Z</time>
      </trkpt>
      <trkpt lat="43.29959" lon="6.30123">
        <ele>425</ele>
        <time>2019-09-07T18:39:46Z</time>
      </trkpt>
      <trkpt lat="43.29964" lon="6.30113">
        <ele>424</ele>
        <time>2019-09-07T18:39:48Z</time>
      </trkpt>
      <trkpt lat="43.29976" lon="6.30091">
        <ele>421</ele>
        <time>2019-09-07T18:39:51Z</time>
      </trkpt>
      <trkpt lat="43.29986" lon="6.30082">
        <ele>421</ele>
        <time>2019-09-07T18:39:53Z</time>
      </trkpt>
      <trkpt lat="43.30001" lon="6.30075">
        <ele>421</ele>
        <time>2019-09-07T18:39:56Z</time>
      </trkpt>
      <trkpt lat="43.3" lon="6.30072">
        <ele>420</ele>
        <time>2019-09-07T18:39:57Z</time>
      </trkpt>
      <trkpt lat="43.29994" lon="6.30071">
        <ele>418</ele>
        <time>2019-09-07T18:39:58Z</time>
      </trkpt>
      <trkpt lat="43.29983" lon="6.30072">
        <ele>417</ele>
        <time>2019-09-07T18:40:00Z</time>
      </trkpt>
      <trkpt lat="43.29963" lon="6.30077">
        <ele>414</ele>
        <time>2019-09-07T18:40:03Z</time>
      </trkpt>
      <trkpt lat="43.2995" lon="6.30085">
        <ele>414</ele>
        <time>2019-09-07T18:40:06Z</time>
      </trkpt>
      <trkpt lat="43.29921" lon="6.30121">
        <ele>416</ele>
        <time>2019-09-07T18:40:13Z</time>
      </trkpt>
      <trkpt lat="43.29903" lon="6.30148">
        <ele>417</ele>
        <time>2019-09-07T18:40:18Z</time>
      </trkpt>
      <trkpt lat="43.29896" lon="6.30154">
        <ele>417</ele>
        <time>2019-09-07T18:40:19Z</time>
      </trkpt>
      <trkpt lat="43.29891" lon="6.30154">
        <ele>416</ele>
        <time>2019-09-07T18:40:20Z</time>
      </trkpt>
      <trkpt lat="43.29912" lon="6.30105">
        <ele>410</ele>
        <time>2019-09-07T18:40:27Z</time>
      </trkpt>
      <trkpt lat="43.29923" lon="6.30066">
        <ele>404</ele>
        <time>2019-09-07T18:40:33Z</time>
      </trkpt>
      <trkpt lat="43.29935" lon="6.30038">
        <ele>398</ele>
        <time>2019-09-07T18:40:37Z</time>
      </trkpt>
      <trkpt lat="43.29944" lon="6.30028">
        <ele>396</ele>
        <time>2019-09-07T18:40:39Z</time>
      </trkpt>
      <trkpt lat="43.29956" lon="6.3002">
        <ele>395</ele>
        <time>2019-09-07T18:40:41Z</time>
      </trkpt>
      <trkpt lat="43.29988" lon="6.30014">
        <ele>397</ele>
        <time>2019-09-07T18:40:47Z</time>
      </trkpt>
      <trkpt lat="43.30027" lon="6.30002">
        <ele>393</ele>
        <time>2019-09-07T18:40:54Z</time>
      </trkpt>
      <trkpt lat="43.30077" lon="6.29997">
        <ele>388</ele>
        <time>2019-09-07T18:41:03Z</time>
      </trkpt>
      <trkpt lat="43.30116" lon="6.29997">
        <ele>385</ele>
        <time>2019-09-07T18:41:10Z</time>
      </trkpt>
      <trkpt lat="43.30195" lon="6.30006">
        <ele>381</ele>
        <time>2019-09-07T18:41:24Z</time>
      </trkpt>
      <trkpt lat="43.30203" lon="6.30005">
        <ele>380</ele>
        <time>2019-09-07T18:41:26Z</time>
      </trkpt>
      <trkpt lat="43.30196" lon="6.29999">
        <ele>378</ele>
        <time>2019-09-07T18:41:27Z</time>
      </trkpt>
      <trkpt lat="43.30163" lon="6.29991">
        <ele>377</ele>
        <time>2019-09-07T18:41:33Z</time>
      </trkpt>
      <trkpt lat="43.30111" lon="6.29964">
        <ele>370</ele>
        <time>2019-09-07T18:41:43Z</time>
      </trkpt>
      <trkpt lat="43.30077" lon="6.29951">
        <ele>367</ele>
        <time>2019-09-07T18:41:49Z</time>
      </trkpt>
      <trkpt lat="43.30043" lon="6.29944">
        <ele>367</ele>
        <time>2019-09-07T18:41:55Z</time>
      </trkpt>
      <trkpt lat="43.3" lon="6.29929">
        <ele>366</ele>
        <time>2019-09-07T18:42:03Z</time>
      </trkpt>
      <trkpt lat="43.29973" lon="6.29915">
        <ele>361</ele>
        <time>2019-09-07T18:42:08Z</time>
      </trkpt>
      <trkpt lat="43.29912" lon="6.29852">
        <ele>347</ele>
        <time>2019-09-07T18:42:22Z</time>
      </trkpt>
      <trkpt lat="43.29901" lon="6.29849">
        <ele>347</ele>
        <time>2019-09-07T18:42:24Z</time>
      </trkpt>
      <trkpt lat="43.29898" lon="6.29849">
        <ele>348</ele>
        <time>2019-09-07T18:42:24Z</time>
      </trkpt>
      <trkpt lat="43.29894" lon="6.29854">
        <ele>349</ele>
        <time>2019-09-07T18:42:25Z</time>
      </trkpt>
      <trkpt lat="43.2985" lon="6.29934">
        <ele>364</ele>
        <time>2019-09-07T18:42:38Z</time>
      </trkpt>
      <trkpt lat="43.29838" lon="6.29939">
        <ele>364</ele>
        <time>2019-09-07T18:42:41Z</time>
      </trkpt>
      <trkpt lat="43.29833" lon="6.29934">
        <ele>363</ele>
        <time>2019-09-07T18:42:42Z</time>
      </trkpt>
      <trkpt lat="43.29831" lon="6.29865">
        <ele>356</ele>
        <time>2019-09-07T18:42:51Z</time>
      </trkpt>
      <trkpt lat="43.2983" lon="6.29823">
        <ele>353</ele>
        <time>2019-09-07T18:42:56Z</time>
      </trkpt>
      <trkpt lat="43.29833" lon="6.29749">
        <ele>346</ele>
        <time>2019-09-07T18:43:06Z</time>
      </trkpt>
      <trkpt lat="43.29835" lon="6.29737">
        <ele>344</ele>
        <time>2019-09-07T18:43:07Z</time>
      </trkpt>
      <trkpt lat="43.29856" lon="6.29699">
        <ele>337</ele>
        <time>2019-09-07T18:43:14Z</time>
      </trkpt>
      <trkpt lat="43.29854" lon="6.297">
        <ele>338</ele>
        <time>2019-09-07T18:43:14Z</time>
      </trkpt>
      <trkpt lat="43.29856" lon="6.29699">
        <ele>337</ele>
        <time>2019-09-07T18:43:14Z</time>
      </trkpt>
      <trkpt lat="43.29854" lon="6.29696">
        <ele>337</ele>
        <time>2019-09-07T18:43:15Z</time>
      </trkpt>
      <trkpt lat="43.29849" lon="6.29695">
        <ele>338</ele>
        <time>2019-09-07T18:43:16Z</time>
      </trkpt>
      <trkpt lat="43.29786" lon="6.29694">
        <ele>345</ele>
        <time>2019-09-07T18:43:27Z</time>
      </trkpt>
      <trkpt lat="43.29778" lon="6.2969">
        <ele>345</ele>
        <time>2019-09-07T18:43:28Z</time>
      </trkpt>
      <trkpt lat="43.29705" lon="6.2963">
        <ele>337</ele>
        <time>2019-09-07T18:43:44Z</time>
      </trkpt>
      <trkpt lat="43.2968" lon="6.29619">
        <ele>336</ele>
        <time>2019-09-07T18:43:48Z</time>
      </trkpt>
      <trkpt lat="43.2965" lon="6.29613">
        <ele>338</ele>
        <time>2019-09-07T18:43:54Z</time>
      </trkpt>
      <trkpt lat="43.29623" lon="6.29626">
        <ele>344</ele>
        <time>2019-09-07T18:43:59Z</time>
      </trkpt>
      <trkpt lat="43.2961" lon="6.29627">
        <ele>346</ele>
        <time>2019-09-07T18:44:01Z</time>
      </trkpt>
      <trkpt lat="43.29603" lon="6.29619">
        <ele>344</ele>
        <time>2019-09-07T18:44:03Z</time>
      </trkpt>
      <trkpt lat="43.29589" lon="6.29594">
        <ele>338</ele>
        <time>2019-09-07T18:44:07Z</time>
      </trkpt>
      <trkpt lat="43.29573" lon="6.29583">
        <ele>336</ele>
        <time>2019-09-07T18:44:10Z</time>
      </trkpt>
      <trkpt lat="43.29551" lon="6.29574">
        <ele>335</ele>
        <time>2019-09-07T18:44:14Z</time>
      </trkpt>
      <trkpt lat="43.29529" lon="6.29571">
        <ele>336</ele>
        <time>2019-09-07T18:44:18Z</time>
      </trkpt>
      <trkpt lat="43.29503" lon="6.29571">
        <ele>338</ele>
        <time>2019-09-07T18:44:23Z</time>
      </trkpt>
      <trkpt lat="43.29462" lon="6.2958">
        <ele>338</ele>
        <time>2019-09-07T18:44:30Z</time>
      </trkpt>
      <trkpt lat="43.29427" lon="6.29597">
        <ele>339</ele>
        <time>2019-09-07T18:44:37Z</time>
      </trkpt>
      <trkpt lat="43.29387" lon="6.29628">
        <ele>348</ele>
        <time>2019-09-07T18:44:45Z</time>
      </trkpt>
      <trkpt lat="43.29351" lon="6.29661">
        <ele>349</ele>
        <time>2019-09-07T18:44:52Z</time>
      </trkpt>
      <trkpt lat="43.29347" lon="6.29664">
        <ele>349</ele>
        <time>2019-09-07T18:44:53Z</time>
      </trkpt>
      <trkpt lat="43.29342" lon="6.29662">
        <ele>349</ele>
        <time>2019-09-07T18:44:54Z</time>
      </trkpt>
      <trkpt lat="43.2934" lon="6.2966">
        <ele>349</ele>
        <time>2019-09-07T18:44:55Z</time>
      </trkpt>
      <trkpt lat="43.29341" lon="6.29649">
        <ele>350</ele>
        <time>2019-09-07T18:44:56Z</time>
      </trkpt>
      <trkpt lat="43.29344" lon="6.29641">
        <ele>351</ele>
        <time>2019-09-07T18:44:57Z</time>
      </trkpt>
      <trkpt lat="43.29375" lon="6.29595">
        <ele>347</ele>
        <time>2019-09-07T18:45:05Z</time>
      </trkpt>
      <trkpt lat="43.29402" lon="6.29562">
        <ele>342</ele>
        <time>2019-09-07T18:45:12Z</time>
      </trkpt>
      <trkpt lat="43.29436" lon="6.29526">
        <ele>340</ele>
        <time>2019-09-07T18:45:19Z</time>
      </trkpt>
      <trkpt lat="43.29455" lon="6.29509">
        <ele>338</ele>
        <time>2019-09-07T18:45:23Z</time>
      </trkpt>
      <trkpt lat="43.29474" lon="6.29497">
        <ele>335</ele>
        <time>2019-09-07T18:45:27Z</time>
      </trkpt>
      <trkpt lat="43.29573" lon="6.29451">
        <ele>328</ele>
        <time>2019-09-07T18:45:46Z</time>
      </trkpt>
      <trkpt lat="43.29607" lon="6.2944">
        <ele>324</ele>
        <time>2019-09-07T18:45:52Z</time>
      </trkpt>
      <trkpt lat="43.29689" lon="6.29433">
        <ele>314</ele>
        <time>2019-09-07T18:46:07Z</time>
      </trkpt>
      <trkpt lat="43.29818" lon="6.29429">
        <ele>305</ele>
        <time>2019-09-07T18:46:30Z</time>
      </trkpt>
      <trkpt lat="43.29861" lon="6.29422">
        <ele>302</ele>
        <time>2019-09-07T18:46:37Z</time>
      </trkpt>
      <trkpt lat="43.30012" lon="6.29386">
        <ele>296</ele>
        <time>2019-09-07T18:47:05Z</time>
      </trkpt>
      <trkpt lat="43.30074" lon="6.29386">
        <ele>293</ele>
        <time>2019-09-07T18:47:16Z</time>
      </trkpt>
      <trkpt lat="43.30091" lon="6.29384">
        <ele>291</ele>
        <time>2019-09-07T18:47:19Z</time>
      </trkpt>
      <trkpt lat="43.3012" lon="6.29371">
        <ele>288</ele>
        <time>2019-09-07T18:47:24Z</time>
      </trkpt>
      <trkpt lat="43.30158" lon="6.29344">
        <ele>283</ele>
        <time>2019-09-07T18:47:32Z</time>
      </trkpt>
      <trkpt lat="43.30189" lon="6.29312">
        <ele>281</ele>
        <time>2019-09-07T18:47:39Z</time>
      </trkpt>
      <trkpt lat="43.30197" lon="6.29307">
        <ele>280</ele>
        <time>2019-09-07T18:47:40Z</time>
      </trkpt>
      <trkpt lat="43.30208" lon="6.29307">
        <ele>278</ele>
        <time>2019-09-07T18:47:42Z</time>
      </trkpt>
      <trkpt lat="43.30209" lon="6.29311">
        <ele>277</ele>
        <time>2019-09-07T18:47:43Z</time>
      </trkpt>
      <trkpt lat="43.30218" lon="6.29315">
        <ele>274</ele>
        <time>2019-09-07T18:47:44Z</time>
      </trkpt>
      <trkpt lat="43.30228" lon="6.29309">
        <ele>273</ele>
        <time>2019-09-07T18:47:46Z</time>
      </trkpt>
      <trkpt lat="43.30252" lon="6.29282">
        <ele>271</ele>
        <time>2019-09-07T18:47:52Z</time>
      </trkpt>
      <trkpt lat="43.30266" lon="6.29274">
        <ele>271</ele>
        <time>2019-09-07T18:47:54Z</time>
      </trkpt>
      <trkpt lat="43.30278" lon="6.29273">
        <ele>270</ele>
        <time>2019-09-07T18:47:57Z</time>
      </trkpt>
      <trkpt lat="43.30301" lon="6.29287">
        <ele>265</ele>
        <time>2019-09-07T18:48:01Z</time>
      </trkpt>
      <trkpt lat="43.30315" lon="6.29292">
        <ele>263</ele>
        <time>2019-09-07T18:48:04Z</time>
      </trkpt>
      <trkpt lat="43.3035" lon="6.29298">
        <ele>257</ele>
        <time>2019-09-07T18:48:10Z</time>
      </trkpt>
      <trkpt lat="43.3036" lon="6.29289">
        <ele>257</ele>
        <time>2019-09-07T18:48:12Z</time>
      </trkpt>
      <trkpt lat="43.30372" lon="6.29258">
        <ele>258</ele>
        <time>2019-09-07T18:48:17Z</time>
      </trkpt>
      <trkpt lat="43.30412" lon="6.292">
        <ele>253</ele>
        <time>2019-09-07T18:48:27Z</time>
      </trkpt>
      <trkpt lat="43.3042" lon="6.2915">
        <ele>253</ele>
        <time>2019-09-07T18:48:34Z</time>
      </trkpt>
      <trkpt lat="43.30428" lon="6.29136">
        <ele>252</ele>
        <time>2019-09-07T18:48:36Z</time>
      </trkpt>
      <trkpt lat="43.3044" lon="6.2913">
        <ele>250</ele>
        <time>2019-09-07T18:48:38Z</time>
      </trkpt>
      <trkpt lat="43.3046" lon="6.29127">
        <ele>247</ele>
        <time>2019-09-07T18:48:42Z</time>
      </trkpt>
      <trkpt lat="43.30526" lon="6.29089">
        <ele>239</ele>
        <time>2019-09-07T18:48:54Z</time>
      </trkpt>
      <trkpt lat="43.3056" lon="6.29075">
        <ele>237</ele>
        <time>2019-09-07T18:49:01Z</time>
      </trkpt>
      <trkpt lat="43.30616" lon="6.29069">
        <ele>233</ele>
        <time>2019-09-07T18:49:11Z</time>
      </trkpt>
      <trkpt lat="43.30655" lon="6.2907">
        <ele>231</ele>
        <time>2019-09-07T18:49:18Z</time>
      </trkpt>
      <trkpt lat="43.30678" lon="6.29066">
        <ele>229</ele>
        <time>2019-09-07T18:49:22Z</time>
      </trkpt>
      <trkpt lat="43.30707" lon="6.29059">
        <ele>228</ele>
        <time>2019-09-07T18:49:27Z</time>
      </trkpt>
      <trkpt lat="43.3073" lon="6.29049">
        <ele>227</ele>
        <time>2019-09-07T18:49:31Z</time>
      </trkpt>
      <trkpt lat="43.30751" lon="6.29046">
        <ele>226</ele>
        <time>2019-09-07T18:49:35Z</time>
      </trkpt>
      <trkpt lat="43.30762" lon="6.29042">
        <ele>225</ele>
        <time>2019-09-07T18:49:37Z</time>
      </trkpt>
      <trkpt lat="43.30776" lon="6.29032">
        <ele>225</ele>
        <time>2019-09-07T18:49:40Z</time>
      </trkpt>
      <trkpt lat="43.3079" lon="6.29028">
        <ele>224</ele>
        <time>2019-09-07T18:49:42Z</time>
      </trkpt>
      <trkpt lat="43.30833" lon="6.29022">
        <ele>222</ele>
        <time>2019-09-07T18:49:50Z</time>
      </trkpt>
      <trkpt lat="43.30857" lon="6.29022">
        <ele>221</ele>
        <time>2019-09-07T18:49:54Z</time>
      </trkpt>
      <trkpt lat="43.30863" lon="6.29024">
        <ele>220</ele>
        <time>2019-09-07T18:49:56Z</time>
      </trkpt>
      <trkpt lat="43.30874" lon="6.29034">
        <ele>219</ele>
        <time>2019-09-07T18:49:58Z</time>
      </trkpt>
      <trkpt lat="43.30889" lon="6.29054">
        <ele>217</ele>
        <time>2019-09-07T18:50:02Z</time>
      </trkpt>
      <trkpt lat="43.30899" lon="6.2906">
        <ele>217</ele>
        <time>2019-09-07T18:50:04Z</time>
      </trkpt>
      <trkpt lat="43.30914" lon="6.29067">
        <ele>215</ele>
        <time>2019-09-07T18:50:06Z</time>
      </trkpt>
      <trkpt lat="43.30925" lon="6.29069">
        <ele>215</ele>
        <time>2019-09-07T18:50:08Z</time>
      </trkpt>
      <trkpt lat="43.30959" lon="6.29087">
        <ele>213</ele>
        <time>2019-09-07T18:50:15Z</time>
      </trkpt>
      <trkpt lat="43.31006" lon="6.29119">
        <ele>211</ele>
        <time>2019-09-07T18:50:24Z</time>
      </trkpt>
      <trkpt lat="43.31018" lon="6.29125">
        <ele>210</ele>
        <time>2019-09-07T18:50:26Z</time>
      </trkpt>
      <trkpt lat="43.31039" lon="6.29131">
        <ele>209</ele>
        <time>2019-09-07T18:50:30Z</time>
      </trkpt>
      <trkpt lat="43.31125" lon="6.29141">
        <ele>204</ele>
        <time>2019-09-07T18:50:46Z</time>
      </trkpt>
      <trkpt lat="43.3116" lon="6.29141">
        <ele>202</ele>
        <time>2019-09-07T18:50:52Z</time>
      </trkpt>
      <trkpt lat="43.31239" lon="6.2913">
        <ele>198</ele>
        <time>2019-09-07T18:51:06Z</time>
      </trkpt>
      <trkpt lat="43.31287" lon="6.29126">
        <ele>197</ele>
        <time>2019-09-07T18:51:15Z</time>
      </trkpt>
      <trkpt lat="43.31357" lon="6.29129">
        <ele>194</ele>
        <time>2019-09-07T18:51:27Z</time>
      </trkpt>
      <trkpt lat="43.31444" lon="6.29109">
        <ele>191</ele>
        <time>2019-09-07T18:51:43Z</time>
      </trkpt>
      <trkpt lat="43.31476" lon="6.29099">
        <ele>190</ele>
        <time>2019-09-07T18:51:49Z</time>
      </trkpt>
      <trkpt lat="43.31504" lon="6.29094">
        <ele>189</ele>
        <time>2019-09-07T18:51:54Z</time>
      </trkpt>
      <trkpt lat="43.31573" lon="6.2907">
        <ele>187</ele>
        <time>2019-09-07T18:52:06Z</time>
      </trkpt>
      <trkpt lat="43.31587" lon="6.29061">
        <ele>187</ele>
        <time>2019-09-07T18:52:09Z</time>
      </trkpt>
      <trkpt lat="43.31626" lon="6.29027">
        <ele>185</ele>
        <time>2019-09-07T18:52:17Z</time>
      </trkpt>
      <trkpt lat="43.31652" lon="6.29008">
        <ele>184</ele>
        <time>2019-09-07T18:52:22Z</time>
      </trkpt>
      <trkpt lat="43.31669" lon="6.28988">
        <ele>182</ele>
        <time>2019-09-07T18:52:26Z</time>
      </trkpt>
      <trkpt lat="43.31683" lon="6.28977">
        <ele>179</ele>
        <time>2019-09-07T18:52:29Z</time>
      </trkpt>
      <trkpt lat="43.31711" lon="6.2896">
        <ele>175</ele>
        <time>2019-09-07T18:52:35Z</time>
      </trkpt>
      <trkpt lat="43.31725" lon="6.28955">
        <ele>174</ele>
        <time>2019-09-07T18:52:37Z</time>
      </trkpt>
      <trkpt lat="43.3175" lon="6.28952">
        <ele>171</ele>
        <time>2019-09-07T18:52:42Z</time>
      </trkpt>
      <trkpt lat="43.31758" lon="6.28955">
        <ele>170</ele>
        <time>2019-09-07T18:52:43Z</time>
      </trkpt>
      <trkpt lat="43.31778" lon="6.28972">
        <ele>169</ele>
        <time>2019-09-07T18:52:47Z</time>
      </trkpt>
      <trkpt lat="43.31804" lon="6.29007">
        <ele>166</ele>
        <time>2019-09-07T18:52:54Z</time>
      </trkpt>
      <trkpt lat="43.31819" lon="6.29019">
        <ele>164</ele>
        <time>2019-09-07T18:52:57Z</time>
      </trkpt>
      <trkpt lat="43.31833" lon="6.29008">
        <ele>162</ele>
        <time>2019-09-07T18:53:00Z</time>
      </trkpt>
      <trkpt lat="43.31842" lon="6.29006">
        <ele>162</ele>
        <time>2019-09-07T18:53:01Z</time>
      </trkpt>
      <trkpt lat="43.31857" lon="6.28998">
        <ele>162</ele>
        <time>2019-09-07T18:53:04Z</time>
      </trkpt>
      <trkpt lat="43.31866" lon="6.28989">
        <ele>163</ele>
        <time>2019-09-07T18:53:06Z</time>
      </trkpt>
      <trkpt lat="43.3189" lon="6.28974">
        <ele>164</ele>
        <time>2019-09-07T18:53:11Z</time>
      </trkpt>
      <trkpt lat="43.31925" lon="6.28947">
        <ele>166</ele>
        <time>2019-09-07T18:53:18Z</time>
      </trkpt>
      <trkpt lat="43.32018" lon="6.28843">
        <ele>173</ele>
        <time>2019-09-07T18:53:39Z</time>
      </trkpt>
      <trkpt lat="43.32056" lon="6.28932">
        <ele>171</ele>
        <time>2019-09-07T18:53:53Z</time>
      </trkpt>
      <trkpt lat="43.32069" lon="6.28984">
        <ele>171</ele>
        <time>2019-09-07T18:54:00Z</time>
      </trkpt>
      <trkpt lat="43.32083" lon="6.29025">
        <ele>171</ele>
        <time>2019-09-07T18:54:06Z</time>
      </trkpt>
      <trkpt lat="43.32127" lon="6.29122">
        <ele>166</ele>
        <time>2019-09-07T18:54:21Z</time>
      </trkpt>
      <trkpt lat="43.32159" lon="6.29174">
        <ele>162</ele>
        <time>2019-09-07T18:54:29Z</time>
      </trkpt>
      <trkpt lat="43.32164" lon="6.2918">
        <ele>161</ele>
        <time>2019-09-07T18:54:31Z</time>
      </trkpt>
      <trkpt lat="43.32185" lon="6.29192">
        <ele>160</ele>
        <time>2019-09-07T18:54:35Z</time>
      </trkpt>
      <trkpt lat="43.32348" lon="6.29264">
        <ele>156</ele>
        <time>2019-09-07T18:55:05Z</time>
      </trkpt>
      <trkpt lat="43.32358" lon="6.29271">
        <ele>156</ele>
        <time>2019-09-07T18:55:07Z</time>
      </trkpt>
      <trkpt lat="43.32384" lon="6.29381">
        <ele>154</ele>
        <time>2019-09-07T18:55:22Z</time>
      </trkpt>
      <trkpt lat="43.32382" lon="6.29399">
        <ele>154</ele>
        <time>2019-09-07T18:55:24Z</time>
      </trkpt>
    </trkseg>
  </trk>
</gpx>